[[{"header":{"parameterUnit":"m.s-1","parameterCategory":1,"la1":30.6,"la2":29.2853,"lo1":-89.7004,"lo2":-87.6739,"dy":0.0162,"dx":0.0183,"nx":112,"ny":82,"refTime":"2026-04-11T00:00:00:Z","depth":0,"parameterNumber":2,"parameterNumberName":"U-component_of_WINDS"},"data":[0.0,0.0,0.0,0.0,0.0,0.0,0.0,0.0,0.0,0.0,0.0,0.0,0.0,0.0,0.0,0.0,0.0,0.0,0.0,0.0,0.0,0.0,0.0,0.0,0.0,0.0,0.0,0.0,0.0,0.0,0.0,0.0,0.0,0.0,0.0,0.0,0.0,0.0,0.0,0.0,0.0,0.0,0.0,0.0,0.0,0.0,0.0,0.0,0.0,0.0,0.0,0.0,0.0,0.0,0.0,0.0,0.0,0.0,0.0,0.0,0.0,0.0,0.0,0.0,0.0,0.0,0.0,0.0,0.0,0.0,0.0,0.0,0.0,0.0,0.0,0.0,0.0,0.0,0.0,0.0,0.0,0.0,0.0,0.0,0.0,0.0,0.0,0.0,0.0,0.0,0.0,2.0244,2.1038,2.1368,2.1023,2.0524,1.9346,1.7328,0.0,0.0,0.0,0.0,0.0,0.0,0.0,0.0,0.0,0.0,0.0,0.0,0.0,0.0,0.0,0.0,0.0,0.0,0.0,0.0,0.0,0.0,0.0,0.0,0.0,0.0,0.0,0.0,0.0,0.0,0.0,0.0,0.0,0.0,0.0,0.0,0.0,0.0,0.0,0.0,0.0,0.0,0.0,0.0,0.0,0.0,0.0,0.0,0.0,0.0,0.0,0.0,0.0,0.0,0.0,0.0,0.0,0.0,0.0,0.0,0.0,0.0,0.0,0.0,0.0,0.0,0.0,0.0,0.0,0.0,0.0,0.0,0.0,0.0,0.0,0.0,0.0,0.0,0.0,0.0,0.0,0.0,0.0,0.0,0.0,0.0,0.0,0.0,0.0,0.0,0.0,0.0,0.0,0.0,0.0,0.0,0.0,0.0,0.0,0.0,0.0,0.0,0.0,0.0,1.9006,2.1671,2.1438,2.1063,2.0999,2.0244,1.9182,1.7706,0.0,0.0,0.0,0.0,0.0,0.0,0.0,0.0,0.0,0.0,0.0,0.0,0.0,0.0,0.0,0.0,0.0,0.0,0.0,0.0,0.0,0.0,0.0,0.0,0.0,0.0,0.0,0.0,0.0,0.0,0.0,0.0,0.0,0.0,0.0,0.0,0.0,0.0,0.0,0.0,0.0,0.0,0.0,0.0,0.0,0.0,0.0,0.0,0.0,0.0,0.0,0.0,0.0,0.0,0.0,0.0,0.0,0.0,0.0,0.0,0.0,0.0,0.0,0.0,0.0,0.0,0.0,0.0,0.0,0.0,0.0,0.0,0.0,0.0,0.0,0.0,0.0,0.0,0.0,0.0,0.0,0.0,0.0,0.0,0.0,0.0,0.0,0.0,0.0,0.0,0.0,0.0,0.0,0.0,0.0,0.0,0.0,0.0,0.0,0.0,0.0,0.0,0.0,1.9424,2.022,2.1759,2.1544,2.1134,2.0673,2.0253,1.9273,1.7487,1.6389,0.0,0.0,0.0,0.0,0.0,0.0,0.0,0.0,0.0,0.0,0.0,0.0,0.0,0.0,0.0,0.0,0.0,0.0,0.0,0.0,0.0,0.0,0.0,0.0,0.0,0.0,0.0,0.0,0.0,0.0,0.0,0.0,0.0,0.0,0.0,0.0,0.0,0.0,0.0,0.0,0.0,0.0,0.0,0.0,0.0,0.0,0.0,0.0,0.0,0.0,0.0,0.0,0.0,0.0,0.0,0.0,0.0,0.0,0.0,0.0,0.0,0.0,0.0,0.0,0.0,0.0,0.0,0.0,0.0,0.0,0.0,0.0,0.0,0.0,0.0,0.0,0.0,0.0,0.0,0.0,0.0,0.0,0.0,0.0,0.0,0.0,0.0,0.0,0.0,0.0,0.0,0.0,0.0,0.0,0.0,0.0,0.0,0.0,0.0,0.0,0.0,0.0,2.0955,2.1339,2.1433,2.1368,2.1015,2.035,2.0073,1.9169,1.737,1.6195,0.0,0.0,0.0,0.0,0.0,0.0,0.0,0.0,0.0,0.0,0.0,0.0,0.0,0.0,0.0,0.0,0.0,0.0,0.0,0.0,0.0,0.0,0.0,0.0,0.0,0.0,0.0,0.0,0.0,0.0,0.0,0.0,0.0,0.0,0.0,0.0,0.0,0.0,0.0,0.0,0.0,0.0,0.0,0.0,0.0,0.0,0.0,0.0,0.0,0.0,0.0,0.0,0.0,0.0,0.0,0.0,0.0,0.0,0.0,0.0,0.0,0.0,0.0,0.0,0.0,0.0,0.0,0.0,0.0,0.0,0.0,0.0,0.0,0.0,0.0,0.0,0.0,0.0,0.0,0.0,0.0,0.0,0.0,0.0,0.0,0.0,0.0,0.0,0.0,0.0,0.0,0.0,0.0,0.0,0.0,0.0,0.0,0.0,0.0,0.0,0.0,0.0,2.0301,2.1458,2.1079,2.0665,2.0358,2.0299,1.9385,1.848,1.7718,1.5897,0.0,0.0,0.0,0.0,0.0,0.0,0.0,0.0,0.0,0.0,0.0,0.0,0.0,0.0,0.0,0.0,0.0,0.0,0.0,0.0,0.0,0.0,0.0,0.0,0.0,0.0,0.0,0.0,0.0,0.0,0.0,0.0,0.0,0.0,0.0,0.0,0.0,0.0,0.0,0.0,0.0,0.0,0.0,0.0,0.0,0.0,0.0,0.0,0.0,0.0,0.0,0.0,0.0,0.0,0.0,0.0,0.0,0.0,0.0,0.0,0.0,0.0,0.0,0.0,0.0,0.0,0.0,0.0,0.0,0.0,0.0,0.0,0.0,0.0,0.0,0.0,0.0,0.0,0.0,0.0,0.0,0.0,0.0,0.0,0.0,0.0,0.0,0.0,0.0,0.0,0.0,0.0,0.0,0.0,0.0,0.0,0.0,0.0,0.0,0.0,0.0,0.0,2.026,2.0999,0.0,2.0788,2.0663,1.9984,1.925,1.8491,1.7764,0.0,0.0,0.0,0.0,0.0,0.0,0.0,0.0,0.0,0.0,0.0,0.0,0.0,0.0,0.0,0.0,0.0,0.0,0.0,0.0,0.0,0.0,0.0,0.0,0.0,0.0,0.0,0.0,0.0,0.0,0.0,0.0,0.0,0.0,0.0,0.0,0.0,0.0,0.0,0.0,0.0,0.0,0.0,0.0,0.0,0.0,0.0,0.0,0.0,0.0,0.0,0.0,0.0,0.0,0.0,0.0,0.0,0.0,0.0,0.0,0.0,0.0,0.0,0.0,0.0,0.0,0.0,0.0,0.0,0.0,0.0,0.0,0.0,0.0,0.0,0.0,0.0,0.0,0.0,0.0,0.0,0.0,0.0,0.0,0.0,0.0,0.0,0.0,0.0,0.0,0.0,0.0,0.0,0.0,0.0,0.0,0.0,0.0,0.0,0.0,0.0,0.0,1.9249,2.0509,2.1037,0.0,2.0824,2.0737,1.9795,1.9007,1.827,1.7553,0.0,0.0,0.0,0.0,0.0,0.0,0.0,0.0,0.0,0.0,0.0,0.0,0.0,0.0,0.0,0.0,0.0,0.0,0.0,0.0,0.0,0.0,0.0,0.0,0.0,0.0,0.0,0.0,0.0,0.0,0.0,0.0,0.0,0.0,0.0,0.0,0.0,0.0,0.0,0.0,0.0,0.0,0.0,0.0,0.0,0.0,0.0,0.0,0.0,0.0,0.0,0.0,0.0,0.0,0.0,0.0,0.0,0.0,0.0,0.0,0.0,0.0,0.0,0.0,0.0,0.0,0.0,0.0,0.0,0.0,0.0,0.0,0.0,0.0,0.0,0.0,0.0,0.0,0.0,0.0,0.0,0.0,0.0,0.0,0.0,0.0,0.0,0.0,0.0,0.0,0.0,0.0,0.0,0.0,0.0,0.0,0.0,0.0,0.0,0.0,0.0,0.0,1.9524,2.1037,2.1675,2.0802,2.0728,2.0458,1.9759,1.86,1.7694,0.0,0.0,0.0,0.0,0.0,0.0,0.0,0.0,0.0,0.0,0.0,0.0,0.0,0.0,0.0,0.0,0.0,0.0,0.0,0.0,0.0,0.0,0.0,0.0,0.0,0.0,0.0,0.0,0.0,0.0,0.0,0.0,0.0,0.0,0.0,0.0,0.0,0.0,0.0,0.0,0.0,0.0,0.0,0.0,0.0,0.0,0.0,0.0,0.0,0.0,0.0,0.0,0.0,0.0,0.0,0.0,0.0,0.0,0.0,0.0,0.0,0.0,0.0,0.0,0.0,0.0,0.0,0.0,0.0,0.0,0.0,0.0,0.0,0.0,0.0,0.0,0.0,0.0,0.0,0.0,0.0,0.0,0.0,0.0,0.0,0.0,0.0,0.0,0.0,0.0,0.0,0.0,0.0,0.0,0.0,0.0,0.0,0.0,0.0,0.0,0.0,0.0,0.0,0.0,2.0901,2.1685,2.1425,2.1824,2.1505,1.9972,1.9168,1.8104,1.6619,0.0,0.0,0.0,0.0,0.0,0.0,0.0,0.0,0.0,0.0,0.0,0.0,0.0,0.0,0.0,0.0,0.0,0.0,0.0,0.0,0.0,0.0,0.0,0.0,0.0,0.0,0.0,0.0,0.0,0.0,0.0,0.0,0.0,0.0,0.0,0.0,0.0,0.0,0.0,0.0,0.0,0.0,0.0,0.0,0.0,0.0,0.0,0.0,0.0,0.0,0.0,0.0,0.0,0.0,0.0,0.0,0.0,0.0,0.0,0.0,0.0,0.0,0.0,0.0,0.0,0.0,0.0,0.0,0.0,0.0,0.0,0.0,0.0,0.0,0.0,0.0,0.0,0.0,0.0,0.0,0.0,0.0,0.0,0.0,0.0,0.0,0.0,0.0,0.0,0.0,0.0,0.0,0.0,0.0,0.0,0.0,0.0,0.0,0.0,0.0,0.0,0.0,1.9814,2.1183,2.1992,2.2084,2.2463,2.193,2.0057,1.9421,1.824,1.6182,0.0,0.0,0.0,0.0,0.0,0.0,0.0,0.0,0.0,0.0,0.0,0.0,0.0,0.0,0.0,0.0,0.0,0.0,0.0,0.0,0.0,0.0,0.0,0.0,0.0,0.0,0.0,0.0,0.0,0.0,0.0,0.0,0.0,0.0,0.0,0.0,0.0,0.0,0.0,0.0,0.0,0.0,0.0,0.0,0.0,0.0,0.0,0.0,0.0,0.0,0.0,0.0,0.0,0.0,0.0,0.0,0.0,0.0,0.0,0.0,0.0,0.0,0.0,0.0,0.0,0.0,0.0,0.0,0.0,0.0,0.0,0.0,0.0,0.0,0.0,0.0,0.0,0.0,0.0,0.0,0.0,0.0,0.0,0.0,0.0,0.0,0.0,0.0,0.0,0.0,0.0,0.0,0.0,0.0,0.0,0.0,0.0,0.0,0.0,0.0,0.0,0.0,2.0503,2.1703,2.246,2.2744,2.2741,2.1966,2.015,1.9442,1.816,1.5926,0.0,0.0,0.0,0.0,0.0,0.0,0.0,0.0,0.0,0.0,0.0,0.0,0.0,0.0,0.0,0.0,0.0,0.0,0.0,0.0,0.0,0.0,0.0,0.0,0.0,0.0,0.0,0.0,0.0,0.0,0.0,0.0,0.0,0.0,0.0,0.0,0.0,0.0,0.0,0.0,0.0,0.0,0.0,0.0,0.0,0.0,0.0,0.0,0.0,0.0,0.0,0.0,0.0,0.0,0.0,0.0,0.0,0.0,0.0,0.0,1.7204,0.0,0.0,0.0,0.0,0.0,0.0,0.0,0.0,0.0,0.0,0.0,0.0,0.0,0.0,0.0,0.0,0.0,0.0,0.0,0.0,0.0,0.0,0.0,0.0,0.0,0.0,0.0,0.0,0.0,0.0,0.0,0.0,0.0,0.0,0.0,0.0,0.0,0.0,0.0,0.0,0.0,2.1253,2.2175,2.2806,2.3362,2.2988,2.2143,2.0789,1.9701,1.8326,1.6441,0.0,0.0,0.0,0.0,0.0,0.0,0.0,0.0,0.0,0.0,0.0,0.0,0.0,0.0,0.0,0.0,0.0,0.0,0.0,0.0,0.0,0.0,0.0,0.0,0.0,0.0,0.0,0.0,0.0,0.0,0.0,0.0,0.0,0.0,0.0,0.0,0.0,0.0,0.0,0.0,0.0,0.0,0.0,0.0,0.0,0.0,0.0,0.0,0.0,0.0,0.0,0.0,0.0,0.0,0.0,0.0,0.0,0.0,0.0,0.0,0.0,1.7712,0.0,0.0,0.0,0.0,0.0,0.0,0.0,0.0,0.0,0.0,0.0,0.0,0.0,0.0,0.0,0.0,0.0,0.0,0.0,0.0,0.0,0.0,0.0,0.0,0.0,0.0,0.0,0.0,0.0,0.0,0.0,0.0,0.0,0.0,0.0,0.0,0.0,0.0,0.0,0.0,2.1466,2.2323,2.2827,2.3128,2.2886,2.2096,2.0599,1.989,1.8666,1.6629,1.5477,0.0,0.0,0.0,0.0,0.0,0.0,0.0,0.0,0.0,0.0,0.0,0.0,0.0,0.0,0.0,0.0,0.0,0.0,0.0,0.0,0.0,0.0,0.0,0.0,0.0,0.0,0.0,0.0,0.0,0.0,0.0,0.0,0.0,0.0,0.0,0.0,0.0,0.0,0.0,0.0,0.0,0.0,0.0,0.0,0.0,0.0,0.0,0.0,0.0,0.0,0.0,0.0,0.0,2.1859,2.1898,2.2221,2.2774,2.2774,2.2286,2.0916,1.991,1.9271,0.0,0.0,0.0,0.0,0.0,0.0,0.0,0.0,0.0,0.0,0.0,0.0,0.0,0.0,0.0,0.0,0.0,0.0,0.0,0.0,0.0,0.0,0.0,0.0,0.0,1.9454,1.871,0.0,0.0,0.0,0.0,0.0,0.0,0.0,0.0,0.0,0.0,0.0,0.0,2.1593,2.237,2.2692,2.2693,2.25,2.1755,2.0279,1.9956,1.9008,1.7071,1.6245,1.5537,0.0,0.0,0.0,0.0,0.0,0.0,0.0,0.0,0.0,0.0,0.0,0.0,0.0,0.0,0.0,0.0,0.0,0.0,0.0,0.0,0.0,0.0,0.0,0.0,0.0,0.0,0.0,0.0,0.0,0.0,0.0,0.0,1.3557,1.4134,0.0,0.0,0.0,0.0,0.0,0.0,0.0,0.0,0.0,0.0,0.0,0.0,0.0,2.049,2.0966,2.2548,2.3211,2.297,2.4849,2.5493,2.5084,2.5695,2.5921,2.582,2.5619,0.0,2.0465,2.039,0.0,0.0,0.0,0.0,0.0,0.0,0.0,0.0,0.0,0.0,0.0,0.0,0.0,0.0,0.0,0.0,0.0,0.0,0.0,0.0,0.0,0.0,2.0898,2.0004,1.9736,1.961,0.0,1.8192,1.6799,1.55,1.5238,0.0,0.0,0.0,0.0,0.0,0.0,0.0,2.2053,2.2508,2.2698,2.2706,2.1702,2.0954,2.0715,1.9718,1.9006,1.8682,1.7227,1.6356,1.6237,1.4777,0.0,0.0,0.0,0.0,0.0,0.0,0.0,0.0,0.0,0.0,0.0,0.0,0.0,0.0,0.0,0.0,0.0,0.0,0.0,0.0,0.0,0.0,0.0,0.0,0.0,0.0,0.0,0.0,0.0,1.3279,1.4374,1.3989,1.4328,1.4491,0.0,0.0,0.0,0.0,0.0,0.0,0.0,0.0,0.0,2.1616,2.2246,2.2964,2.3794,2.4874,2.5427,2.5485,2.6482,2.6984,2.7017,2.7286,2.7412,2.7412,2.7412,2.6256,2.4296,2.3065,2.1518,1.9936,0.0,0.0,0.0,0.0,2.03,2.0489,2.0989,2.1365,0.0,2.1551,0.0,0.0,0.0,0.0,0.0,0.0,0.0,0.0,0.0,0.0,2.2033,2.2142,2.1906,2.1641,2.1641,2.0345,1.8728,0.0,1.6941,1.6644,1.5856,0.0,0.0,0.0,0.0,0.0,2.2665,2.3333,2.3295,2.2193,2.1573,2.0988,2.0296,1.975,1.9321,1.9033,1.8306,1.7779,1.7464,1.6145,1.5176,0.0,0.0,0.0,0.0,0.0,0.0,0.0,0.0,0.0,0.0,0.0,0.0,0.0,0.0,0.0,0.0,0.0,0.0,0.0,0.0,0.0,0.0,0.0,0.0,0.0,0.0,0.0,0.0,1.4324,1.5164,1.4059,1.4653,1.4868,0.0,0.0,0.0,0.0,0.0,0.0,2.1521,2.2186,2.305,2.4139,2.4607,2.5285,2.6239,2.6834,2.7311,2.7695,2.7864,2.8147,2.8524,2.8524,2.8524,2.8524,2.8524,2.8222,2.7544,2.5502,2.3728,2.2343,2.2447,2.2422,2.2433,2.3125,2.3025,2.2648,2.3461,2.3647,2.3496,2.3221,0.0,2.187,2.0462,0.0,0.0,0.0,0.0,2.1641,2.2519,2.2843,2.316,2.3988,2.3863,2.3521,2.3521,2.2498,2.1018,0.0,1.8706,1.8346,1.7531,0.0,0.0,0.0,0.0,2.2152,2.2905,2.357,2.3393,2.1956,2.1681,2.1159,2.0114,2.0037,1.9786,1.9233,1.9083,1.8832,1.8418,1.7464,1.6611,1.5919,0.0,0.0,0.0,0.0,0.0,0.0,0.0,0.0,0.0,0.0,0.0,0.0,0.0,0.0,0.0,0.0,0.0,0.0,0.0,0.0,0.0,0.0,0.0,0.0,0.0,0.0,0.0,0.0,0.0,1.5234,1.6807,0.0,0.0,0.0,0.0,1.8439,2.1238,2.3211,2.3803,2.4833,2.5912,2.706,2.7135,2.7394,2.7971,2.8505,2.8787,2.8831,2.9402,2.9679,2.9704,2.9704,2.9704,2.9704,2.9704,2.9377,2.8706,2.706,2.6298,2.6147,2.5468,2.5619,2.6223,2.6273,2.5904,2.5385,2.546,2.5143,2.4892,2.5929,2.5192,2.3753,2.3095,2.2558,0.0,0.0,2.2959,2.3746,2.3887,2.4296,2.4691,2.4741,2.4741,2.47,2.47,2.4239,2.3191,0.0,2.01,1.9851,2.0315,0.0,2.0637,2.1228,2.1906,2.2381,2.2433,2.2495,2.2471,2.2364,2.1846,2.1272,2.0705,2.0641,2.0415,1.9811,1.9284,1.8983,1.8958,1.8418,1.759,1.6475,1.6385,0.0,0.0,0.0,0.0,0.0,0.0,0.0,0.0,0.0,0.0,0.0,0.0,0.0,0.0,0.0,0.0,0.0,0.0,0.0,0.0,0.0,0.0,0.0,0.0,0.0,0.0,0.0,0.0,1.6638,1.7712,0.0,1.6966,1.8349,1.9479,1.9828,2.2548,2.4147,2.4013,2.6046,2.7257,2.73,2.7971,2.8624,2.9176,2.9377,2.9478,2.9478,2.9704,2.9804,2.9804,2.9804,2.9804,2.9804,2.9804,2.9679,2.9428,2.8869,2.8341,2.7864,2.7336,2.7462,2.7889,2.7638,2.7394,2.7218,2.7218,2.7092,2.6942,2.6984,2.6373,2.5569,2.5351,2.5145,2.4995,2.4989,2.5272,2.5588,2.5593,2.5753,2.5879,2.5879,2.5603,2.5293,2.5293,2.4892,2.4264,2.3502,2.2282,2.1247,2.0742,2.0946,2.1248,2.1491,2.2378,2.3018,2.2964,2.3345,2.3289,2.2444,2.2149,2.1794,2.1256,2.0893,2.0616,2.0376,1.9836,1.9522,1.9522,1.8995,1.8356,1.7615,1.6876,1.5593,0.0,0.0,0.0,0.0,0.0,0.0,0.0,0.0,0.0,0.0,0.0,0.0,0.0,0.0,0.0,0.0,0.0,0.0,0.0,0.0,0.0,0.0,0.0,0.0,0.0,0.0,1.7877,1.7955,1.9149,1.9579,1.8551,2.0182,2.1317,2.1308,2.3999,2.5303,2.4578,2.6451,2.7406,2.7049,2.8077,2.866,2.8692,2.9449,2.9624,2.9248,2.9624,2.9804,2.9804,2.9804,2.9804,2.9804,2.9804,2.9804,2.9804,2.9804,2.9503,2.9051,2.8775,2.8825,2.9026,2.8775,2.8674,2.8649,2.843,2.8355,2.8279,2.7745,2.7336,2.7052,2.7052,2.7052,2.7052,2.7052,2.7052,2.7052,2.7052,2.7052,2.7052,2.7052,2.6608,2.618,2.618,2.5737,2.531,2.5118,2.4014,2.2924,2.2211,2.2372,2.2618,2.2679,2.3361,2.379,2.358,2.3935,2.3783,2.2692,2.2583,2.2357,2.182,2.1281,2.0893,2.0705,2.0125,1.9736,1.9522,1.9183,1.8657,1.7928,1.6988,1.5969,1.4919,0.0,0.0,0.0,0.0,0.0,0.0,0.0,0.0,0.0,0.0,0.0,0.0,0.0,0.0,0.0,0.0,0.0,0.0,0.0,0.0,0.0,0.0,0.0,1.7143,1.8889,1.9859,1.926,2.1261,2.1849,1.9642,2.2374,2.3856,2.2793,2.5496,2.6717,2.5583,2.6153,2.6483,2.6464,2.7504,2.7588,2.6549,2.8662,2.9175,2.8091,2.9234,2.9771,2.9732,2.9771,2.9771,2.9707,2.9746,2.9765,2.974,2.9804,2.9804,2.9804,2.9804,2.9804,2.9804,2.9804,2.9804,2.9704,2.9132,2.8932,2.8856,2.8304,2.8147,2.8147,2.8147,2.8147,2.8147,2.8147,2.8147,2.8147,2.8147,2.8122,2.8122,2.8097,2.7695,2.7311,2.7311,2.6927,2.6373,2.5787,2.5243,2.4867,2.4816,2.4816,2.4816,2.4816,2.4816,0.0,2.4079,2.4029,2.3788,2.3195,2.312,2.292,2.2383,2.182,2.1281,2.0755,2.015,1.9572,1.9058,1.9033,1.8543,1.7462,1.6848,1.6536,1.6536,0.0,0.0,0.0,0.0,0.0,0.0,0.0,0.0,0.0,0.0,0.0,0.0,0.0,0.0,0.0,0.0,0.0,0.0,0.0,0.0,0.0,0.0,1.7644,1.814,1.9222,2.0256,2.1035,2.2226,2.2757,2.2109,2.3189,2.3663,2.3043,2.4535,2.4997,2.3855,2.5502,2.6244,2.5722,2.6788,2.7366,2.7363,2.7962,2.8111,2.7834,2.9059,2.9163,2.8301,2.9249,2.8994,2.7874,2.8719,2.8867,2.8629,2.9443,2.9804,2.9804,2.9804,2.9804,2.9804,2.9804,2.9804,2.9798,2.9603,2.9553,2.9528,2.9377,2.9327,2.9327,2.9327,2.9327,2.9327,2.9327,2.9327,2.9227,2.8781,2.8681,2.858,2.8179,2.7996,2.7871,2.7871,2.777,2.762,2.7444,2.6967,2.6214,2.5017,2.4816,2.4816,2.4816,2.4816,0.0,2.4591,2.4591,2.4365,2.3813,2.3738,2.3512,2.292,2.202,2.1432,2.1281,2.0338,1.9723,1.9572,1.9572,1.9246,1.8556,1.7626,1.7149,0.0,0.0,0.0,0.0,0.0,0.0,0.0,0.0,0.0,0.0,0.0,0.0,0.0,0.0,0.0,0.0,0.0,0.0,0.0,0.0,0.0,0.0,1.8516,1.9355,2.0137,2.0508,2.1152,2.2285,2.2986,2.3396,2.3396,2.4056,2.4104,2.3164,2.4308,2.4562,2.3443,2.4813,2.5413,2.4995,2.6082,2.6561,2.6308,2.7239,2.748,2.7041,2.8242,2.8415,2.7743,2.8458,2.8277,0.0,2.8617,2.8973,2.8811,2.9995,3.0457,0.0,0.0,0.0,0.0,0.0,2.9804,2.9804,2.9804,2.9804,2.9804,2.9804,2.9804,2.9804,2.9804,2.9804,2.9804,2.9804,2.9804,2.9704,2.9377,2.9283,2.9183,2.89,2.8624,2.843,2.843,2.8254,2.8097,2.8097,2.7846,0.0,2.6347,2.5812,2.5511,2.5511,2.5511,2.541,2.5184,2.5143,2.4917,2.439,2.413,2.3853,2.3512,2.2472,0.0,0.0,0.0,1.9962,1.9497,1.9258,0.0,0.0,0.0,0.0,0.0,0.0,0.0,0.0,1.7837,1.795,0.0,0.0,0.0,0.0,0.0,0.0,0.0,0.0,0.0,0.0,0.0,0.0,0.0,0.0,0.0,0.0,2.0214,2.1172,2.2402,2.2266,2.2305,2.3025,2.3493,2.3769,2.3711,2.4662,2.4696,2.3286,2.4481,2.4878,2.3935,0.0,0.0,0.0,0.0,2.5526,2.457,2.6499,2.6992,2.6067,2.717,2.7613,2.748,2.7613,2.7591,2.7481,2.8722,2.9234,2.9315,3.0663,3.1284,3.1306,3.0281,2.988,2.988,2.9804,2.9804,2.9804,2.9804,0.0,0.0,2.9804,2.9804,2.9804,2.9804,2.9804,2.9804,2.9804,2.9804,2.9804,2.9804,2.9804,2.9804,2.9804,2.9383,2.9007,2.9007,2.8631,2.8298,2.8298,2.8247,2.8197,2.8197,2.7361,2.665,2.66,2.6575,2.6373,2.5778,2.5703,2.5485,2.4942,0.0,0.0,2.4104,2.3125,2.2458,2.2383,2.1382,2.0326,1.9309,1.8819,1.9058,2.0062,2.0087,2.0614,2.1669,2.1669,2.1733,2.1733,1.9635,1.9459,0.0,0.0,0.0,0.0,0.0,0.0,0.0,0.0,0.0,0.0,0.0,0.0,0.0,0.0,0.0,2.0547,2.1289,2.1953,2.2869,2.2927,2.2927,2.3081,2.3493,2.3652,2.3279,2.4067,2.4349,2.3714,2.4224,2.4483,2.4297,2.4352,2.457,2.4945,2.5177,2.5334,2.5464,2.5877,2.5976,2.5781,0.0,0.0,2.6119,2.7142,2.6863,2.5651,2.6785,2.7094,2.693,2.9081,3.0514,3.1336,3.0708,3.0437,3.0387,2.9955,2.9804,2.9804,2.9804,2.9804,2.9804,2.9804,2.9804,2.9804,2.9804,2.9804,0.0,2.9804,2.9804,2.9804,2.9804,2.9804,2.9804,2.9804,2.9704,2.9628,2.9628,2.9528,2.9453,2.9453,2.9082,2.8756,2.8756,2.8204,2.7645,2.7211,2.7135,2.6952,2.6399,2.6323,2.6097,2.5511,2.536,2.5134,2.4691,2.4054,2.3461,2.297,2.1945,2.1256,2.1016,2.0929,2.1167,2.1805,2.1805,2.2132,2.2794,2.2794,2.3035,2.3477,2.2132,2.1694,0.0,0.0,0.0,0.0,0.0,0.0,0.0,0.0,0.0,0.0,0.0,1.738,1.8457,0.0,2.0333,2.164,2.2206,2.2635,2.3042,2.3101,2.3201,2.3415,2.3848,2.4023,2.3786,2.4355,2.457,2.4141,2.4492,2.4746,2.4746,2.4937,2.5152,2.5391,2.541,2.5508,2.5693,2.5693,2.5693,2.5718,2.6332,2.6328,2.5718,2.6356,2.6188,2.5482,2.6634,2.7026,2.7024,2.9433,3.1129,3.221,3.1637,3.126,3.0959,3.0683,3.0583,3.0583,3.0583,3.0583,3.0557,3.0281,3.0206,3.0156,2.988,2.9804,2.9804,2.9804,2.9804,2.9804,2.9804,2.9804,2.9804,2.9804,2.9804,2.9804,2.9804,2.9804,2.9804,2.9804,2.9553,2.9333,2.9333,2.9126,2.8674,2.7821,2.7462,2.7211,2.6927,2.6675,2.6373,2.608,2.5778,2.5485,2.5218,2.4716,2.4164,2.3587,2.305,2.2623,2.2307,2.2307,2.2558,2.315,2.315,2.3411,2.3948,2.3948,2.439,2.5226,2.4673,2.4104,0.0,0.0,0.0,0.0,0.0,0.0,0.0,0.0,1.6293,1.7269,1.8069,1.8966,2.0079,2.0918,2.1718,2.2498,2.2888,2.312,2.322,2.324,2.3376,2.375,2.4082,2.4293,2.4391,2.4805,2.4945,2.457,2.4941,2.5219,2.5219,2.5523,2.5693,2.5693,2.5693,2.5693,2.5693,2.5693,2.5693,2.5693,2.5693,2.5693,2.5693,2.5693,2.5693,2.5766,2.6788,2.7363,2.7767,2.9943,3.1601,3.2692,3.2481,3.2114,3.1687,3.1461,3.1406,3.1406,3.1406,3.1406,3.1311,3.0909,3.0758,3.0683,3.0231,3.003,2.9955,2.9955,2.988,2.9804,2.9804,2.9804,2.9804,2.9804,2.9804,2.9804,2.9804,2.9804,2.9804,2.9804,2.9804,2.9804,2.9804,2.9804,2.9453,2.8405,2.7896,2.757,2.7462,2.706,2.6776,2.6675,2.6231,2.5887,2.5762,2.5285,2.4766,2.433,2.4205,2.3938,2.3446,2.3421,2.3712,2.4305,2.4305,2.4632,2.5293,2.5293,2.5711,2.6504,2.6504,2.6118,1.575,1.564,1.5571,1.6313,1.6211,1.6555,0.0,0.0,1.8615,1.9902,2.0527,2.1015,2.1562,2.2051,2.2498,2.2967,2.3062,2.3259,2.3652,2.3711,2.373,2.3789,2.3828,2.4004,2.4352,2.4805,2.5082,2.5024,2.541,2.564,2.564,2.5679,2.5693,2.5693,2.5693,2.5693,2.5693,2.5693,2.5693,2.5693,2.5693,2.5693,2.5693,2.5693,2.5693,2.5718,2.5844,2.6548,2.7696,2.905,3.0305,3.151,3.2581,3.2964,3.2788,3.1783,3.1406,3.1406,3.1406,3.1406,3.1386,3.1311,3.1311,3.1286,3.1235,3.0884,3.0512,3.0512,3.0181,2.9804,2.9804,2.9804,2.9804,2.9804,2.9804,2.9804,2.9804,2.9804,2.9804,2.9804,2.9804,2.9804,2.9804,2.9804,2.9578,2.8907,2.8756,2.8555,2.8072,2.7971,2.7745,2.7261,2.716,2.6909,2.6449,2.5854,2.5485,2.541,2.4967,2.4691,2.46,2.46,2.4867,2.541,2.541,2.5937,2.7035,2.7035,2.6829,2.6489,2.6489,2.6943,1.7132,1.6875,1.6758,0.0,1.7874,1.8298,1.9591,1.9844,2.0077,2.1133,2.168,2.2088,2.2518,2.2732,2.2886,0.0,2.3337,2.3574,2.3769,2.4004,2.416,2.416,2.4375,2.4535,2.4391,2.5039,2.5449,2.5449,2.5601,2.5693,2.5693,2.5693,2.5693,2.5693,2.5952,2.6113,2.6113,2.6342,2.6459,2.6459,2.6459,2.6459,2.6459,2.6459,2.6459,2.6459,2.6459,2.7615,2.9558,3.0057,3.1274,3.2815,3.3371,3.3366,3.304,3.2562,3.2386,3.2386,3.2386,3.2386,3.2336,3.1989,3.1863,3.1813,3.1486,3.1235,3.106,3.106,3.0683,3.0281,3.0281,3.003,2.9804,2.9804,2.9804,2.9804,2.9804,2.9804,2.9804,2.9804,2.9804,2.9804,2.9804,2.9804,2.9704,2.9478,2.9132,2.8831,2.8605,2.8279,2.8021,2.7795,2.777,2.767,2.7462,2.7193,2.7067,2.7067,2.6824,2.6724,2.6724,2.6724,2.6841,2.7042,2.7067,2.7293,2.777,2.777,2.749,2.6975,2.6975,2.7021,1.8205,1.8047,0.0,1.8965,1.9474,1.9961,2.0488,2.0879,2.1329,2.207,2.2459,2.2752,2.3042,2.3101,2.314,2.3279,2.3574,2.3867,2.4124,2.4414,2.459,2.459,2.498,2.5039,2.4473,2.5191,2.5693,2.5693,2.5693,2.5693,2.5693,2.5835,2.5893,2.5893,2.6328,2.6562,2.6562,2.6855,2.6986,2.6986,2.6986,2.6986,2.6986,2.6986,2.6986,2.6986,2.6986,2.8266,3.0392,3.0776,3.1996,3.3653,3.399,3.3872,3.352,3.352,3.3366,3.309,3.309,3.309,3.304,3.2591,3.2466,3.239,3.2009,3.1738,3.1612,3.1612,3.1235,3.0834,3.0834,3.0532,3.0206,3.0055,3.003,2.998,2.9829,2.9804,2.9804,2.9804,2.9804,2.9804,2.9804,2.9804,2.9804,2.9804,2.9428,2.9157,2.9157,2.8656,2.8304,2.8304,2.8197,2.8097,2.8097,2.8097,2.8097,2.8097,2.8097,2.8097,2.8097,2.8097,2.8097,2.8097,2.8097,2.8025,2.7872,2.7872,2.7439,2.6625,2.6625,2.6224,1.8713,1.8926,1.9452,2.0312,2.084,2.1386,2.2225,2.242,2.2557,2.2964,2.3062,2.3081,2.3101,2.3101,2.3259,2.3691,2.3789,2.4105,2.4926,2.5063,2.5082,2.5082,2.5449,2.5347,0.0,2.5191,2.5693,2.5693,2.5693,2.5693,2.5693,2.6133,2.6367,2.6367,2.6777,2.6967,2.6967,2.6986,2.6986,2.6986,2.6986,2.6986,2.6986,2.6986,2.6986,2.6986,2.6986,2.7784,2.9141,3.0392,3.1687,3.3048,3.4222,3.4678,3.4653,3.4653,3.3997,3.309,3.309,3.309,3.309,3.309,3.3065,3.3065,3.3065,3.2641,3.219,3.219,3.1788,3.1381,3.1381,3.1361,3.121,3.0688,3.0563,3.0412,2.9905,2.9804,2.9804,2.9804,2.9804,2.9804,2.9804,2.9804,2.9804,2.9804,2.9779,2.9754,2.9754,2.9233,2.8881,2.8881,2.8405,2.8097,2.8097,2.8097,2.8097,2.8097,2.8097,2.8097,2.8097,2.8097,2.8097,2.8097,2.8097,2.7823,2.7338,2.7338,2.6488,2.4872,2.4872,2.4276,1.8945,0.0,2.0371,2.125,2.1758,2.2206,2.2771,2.2908,2.2947,2.3062,2.3101,2.3101,2.3101,2.3101,2.3259,2.3711,2.4023,2.4297,2.459,2.5137,2.5269,2.4707,2.5019,0.0,0.0,0.0,0.0,2.5312,2.5542,2.5835,2.6152,2.6309,2.6523,2.6797,2.7226,2.7467,2.7467,2.7734,2.7871,2.7871,2.7871,2.7871,2.7871,2.7871,2.7871,2.7871,2.7871,2.8617,2.9947,3.129,3.2419,3.3434,3.4721,3.5029,3.4703,3.4703,3.4452,3.4123,3.3746,3.3621,3.3571,3.3215,3.309,3.309,3.309,3.2964,3.2813,3.2813,3.2365,3.1938,3.1938,3.1662,3.1336,3.116,3.1135,3.0984,3.0457,3.0331,2.9989,2.8879,2.8668,2.845,2.7726,2.7606,2.7606,2.7606,2.885,2.9804,2.9804,2.9628,2.9503,2.9503,2.9327,2.9227,2.9227,2.8546,2.8091,2.8091,2.7427,2.7052,2.7052,2.7052,2.7052,2.7052,2.7052,2.6943,2.6763,2.6763,2.6076,2.4808,2.4808,2.4189,1.996,2.0644,2.127,2.2109,2.2518,2.2664,2.25,2.2796,2.2972,2.2536,2.2378,2.2435,2.2802,2.245,2.2397,2.3413,2.3926,2.4297,2.4609,2.5137,2.5293,2.4727,2.4926,0.0,0.0,0.0,0.0,2.5121,2.5464,2.5893,2.6367,2.6523,2.6816,2.7226,2.7682,2.7917,2.7917,2.8191,2.8301,2.8301,2.8301,2.8301,2.8301,2.8301,2.8301,2.8301,2.8301,2.9059,3.0359,3.1235,3.2177,3.3161,3.4031,3.4149,3.3906,3.4422,3.4585,3.4556,3.4292,3.4198,3.4148,3.3771,3.352,3.3305,3.2865,3.2586,3.2326,3.1911,3.1796,3.1828,3.1828,3.1924,3.1959,3.1738,3.1687,3.1537,3.1009,3.0562,2.9927,2.8848,2.8143,2.7535,2.6833,2.6595,2.6504,2.6504,2.773,2.8752,2.9126,2.9566,2.9643,2.9248,2.9184,2.9028,2.8653,2.7947,2.7522,2.7522,2.6871,2.6504,2.6504,2.6504,2.6504,2.6504,2.6504,2.6318,2.588,2.588,2.5315,2.4189,2.4189,2.38,2.1563,2.1873,2.2045,2.2821,2.295,2.2621,2.148,2.2079,2.2582,2.1403,2.0945,2.1062,2.2063,0.0,2.0829,2.2773,2.3516,2.4124,2.4945,2.5102,2.5121,0.0,0.0,0.0,0.0,0.0,0.0,2.516,0.0,2.5932,2.6406,2.6816,2.7246,2.7702,2.8086,2.8301,2.8301,2.8301,2.8301,2.8301,2.8301,2.8301,2.8301,2.8301,2.8301,2.8301,2.8301,2.9032,3.0198,3.0276,3.1056,3.2205,3.228,3.2306,3.2457,3.3797,3.4288,3.4316,3.4532,3.4595,3.4638,3.4613,3.4192,3.3524,3.2374,3.1631,3.0937,2.9761,3.026,3.1135,3.1112,3.1996,3.2768,3.2176,3.2051,3.1901,3.1372,3.0375,2.9508,2.9421,2.807,2.6945,2.6945,2.665,2.64,2.6338,2.6442,2.6851,2.7884,2.8969,2.9229,2.8148,2.8024,2.7602,2.6586,2.6462,2.6421,2.6421,2.6359,2.6338,2.6338,2.6338,2.6338,2.6338,2.6338,2.5776,2.4702,2.4702,2.4168,2.3101,2.3101,2.3101,2.1699,2.167,2.1507,2.171,2.1078,2.0336,2.0042,2.0045,1.9947,1.9392,1.9093,1.8897,1.8912,0.0,0.0,2.1509,2.3089,0.0,2.4551,2.5156,0.0,0.0,0.0,2.5043,2.4945,2.5121,0.0,0.0,2.5977,2.6406,2.6836,2.7291,2.7721,2.8125,2.8242,2.8301,2.8301,2.8301,2.8301,2.8301,2.8301,2.8301,2.8301,2.8301,2.8301,2.8301,2.8301,2.8495,2.8873,2.9885,3.0488,3.0927,3.1901,3.2306,3.2331,3.2682,3.2855,3.2835,3.2906,3.3311,3.374,3.3331,3.2441,3.1479,3.1148,3.094,3.0687,3.0045,3.0073,3.0238,2.992,3.0101,3.0304,3.0143,3.012,2.9959,2.9429,2.9073,2.8475,2.7216,2.5727,2.4642,2.4642,2.4973,2.4935,2.4102,2.5421,2.6607,2.6851,2.7159,2.7221,2.6933,2.6892,2.6812,2.6524,2.5714,2.5231,2.5231,2.4446,2.3973,2.3973,2.3973,2.3973,2.3973,2.3973,2.3822,2.3519,2.3519,2.3387,2.3101,2.3101,2.3101,2.1466,2.1087,2.0499,2.0499,2.0003,1.93,1.8502,1.8626,1.8566,1.7469,1.7137,0.0,1.7038,1.7759,0.0,0.0,0.0,0.0,2.278,2.4293,2.5116,0.0,2.4726,0.0,2.5082,2.5434,2.5762,0.0,2.625,2.6685,2.7266,2.7565,2.7878,2.8281,2.8301,2.8301,2.8301,2.8301,2.8301,2.8301,2.8301,2.8301,2.8301,2.8301,2.8301,2.8301,0.0,2.8301,2.8361,2.9112,2.9434,2.9513,3.0229,3.054,3.0618,3.121,3.1418,3.1495,3.2104,3.2202,3.2155,3.2446,3.1854,3.0945,3.0406,3.0079,2.9694,2.89,2.908,2.9384,2.8999,2.9267,2.9618,2.944,2.9396,2.9306,2.9014,2.8516,2.7655,2.5995,2.4953,2.432,2.4102,2.4249,2.4126,2.3506,2.4311,2.502,2.502,2.5882,2.6318,2.5797,2.5755,2.5546,2.5062,2.4425,2.4039,2.4039,2.3452,2.3101,2.3101,2.3101,2.3101,2.3101,2.3101,2.3101,2.3101,2.3101,2.3101,2.3101,2.3101,2.3101,2.086,2.0184,1.9285,1.9311,1.9163,1.8589,1.6966,1.7336,1.7456,1.5539,0.0,1.5157,1.5557,1.5611,1.5981,1.7094,0.0,2.1432,2.0712,2.2907,2.4135,2.2965,2.3903,2.4751,2.4976,2.5673,2.6251,2.6543,2.6588,2.69,2.7643,2.7741,2.7936,2.8281,2.8301,2.8301,2.8301,2.8301,2.8301,2.8301,2.8301,2.8301,2.8301,2.8301,2.8301,2.8301,2.8301,0.0,2.8301,2.8301,2.8301,2.8301,2.8301,2.8301,2.8441,2.9618,3.0042,3.0198,3.1367,3.103,3.0276,3.1596,3.1589,3.0883,2.9821,2.9143,2.8485,2.7396,2.7839,2.857,2.8163,2.8818,2.95,2.9175,2.9044,2.9,2.9,2.8139,2.6907,2.5453,2.5141,2.4965,2.457,2.416,2.3867,2.3867,2.3532,2.3237,2.3198,2.4871,2.5651,2.4681,2.4553,2.4168,2.3169,2.3101,2.3101,2.3101,2.3101,2.3101,2.3101,2.3101,2.3101,2.3101,2.3101,2.3101,2.3101,2.3101,2.312,2.3179,2.3179,2.3218,1.9765,1.8925,1.807,1.8297,1.7383,1.6312,1.5759,1.5257,0.0,0.0,1.2879,1.2548,1.2635,1.3991,1.5365,1.6057,0.0,0.0,0.0,0.0,2.1881,0.0,0.0,0.0,0.0,0.0,0.0,0.0,0.0,2.7526,2.7682,2.8015,2.8223,2.8301,2.8301,2.8301,2.8301,2.8301,2.8301,2.8301,2.8301,2.8301,2.8301,2.8301,2.8301,2.8301,2.8301,0.0,2.8301,2.8301,2.8301,2.8301,2.8301,2.8301,2.8327,2.8548,2.8654,2.8681,2.89,2.8847,2.8873,3.0224,2.9823,2.8807,2.8615,2.845,2.8279,2.7735,2.7721,2.7803,2.7343,2.7356,2.7512,2.7432,2.7177,2.6917,2.6917,2.6466,2.5945,2.5649,2.5312,2.5063,2.4984,2.459,2.4316,2.4316,2.4215,2.404,2.373,2.3692,2.3626,2.343,2.3387,2.3299,2.3123,2.3101,2.3101,2.3101,2.3101,2.3101,2.3101,2.3101,2.3101,2.3101,2.3101,2.3101,2.3101,2.3101,2.3298,2.3672,2.3672,2.3867,1.8572,1.7646,1.6786,1.7097,1.6378,1.5444,1.4856,0.0,0.0,0.0,1.1748,1.1543,1.1283,0.0,0.0,0.0,0.0,0.0,0.0,0.0,0.0,0.0,0.0,0.0,0.0,0.0,0.0,0.0,0.0,2.8015,2.8015,2.821,2.8301,2.8301,2.8301,2.8301,2.8301,2.8301,2.8301,2.8301,2.8301,2.8301,2.8301,2.8301,2.8301,2.8301,2.8301,0.0,2.8301,2.8301,2.8301,2.8301,2.8301,2.8301,2.8301,2.8301,2.8301,2.8301,2.8301,2.8301,2.8388,2.9059,2.882,2.8301,2.8301,2.8301,2.8262,2.8073,2.8015,2.7917,2.7487,2.7344,2.7305,2.707,2.6699,2.6387,2.6387,2.603,2.5693,2.5693,2.5542,2.541,2.541,2.5039,2.4746,2.4746,2.457,2.4313,2.4141,2.3903,2.361,2.314,2.3101,2.3101,2.3101,2.3101,2.3101,2.3101,2.3101,2.3101,2.3101,2.3101,2.3198,2.3454,2.3454,2.3571,2.3786,2.3786,2.3884,2.4121,2.4121,2.4219,1.7375,1.663,1.5875,1.623,1.5855,1.5164,1.4303,1.3587,0.0,0.0,1.1129,1.1116,1.076,0.0,1.2583,0.0,1.4613,0.0,0.0,0.0,0.0,0.0,0.0,0.0,0.0,0.0,0.0,0.0,0.0,0.0,2.8301,2.8301,2.8301,2.8301,2.8301,2.8301,2.8301,2.8301,2.8301,2.8301,2.8301,2.8301,2.8301,2.8301,2.8301,2.8301,2.8301,0.0,0.0,2.8301,2.8301,2.8301,2.8301,2.8301,2.8301,2.8301,2.8301,2.8301,2.8301,2.8301,2.8301,2.8301,2.8301,2.8301,2.8301,2.8301,2.8301,2.8301,2.8301,2.8223,2.7917,2.7839,2.7721,2.7266,2.6894,2.6666,2.6543,2.6225,2.5952,2.5874,2.5854,2.5835,2.5737,2.5449,2.5239,2.5239,2.4922,2.4645,2.457,2.4551,2.4235,2.3474,2.3396,2.3396,2.3396,2.3396,2.3396,2.3396,2.3396,2.3396,2.3396,2.3396,2.3552,2.3906,2.3926,2.4082,2.4391,2.4391,2.4449,2.4551,2.4551,2.4609,1.6346,1.6128,1.5875,1.623,1.5855,1.5164,1.4303,0.0,0.0,1.1253,1.0825,1.0734,1.0932,1.1276,1.1886,1.2999,1.381,1.4675,0.0,0.0,0.0,0.0,0.0,0.0,0.0,0.0,0.0,0.0,0.0,0.0,2.8228,2.8301,2.8301,2.8301,2.8301,2.8301,2.8301,2.8301,2.8301,2.8301,2.8301,2.8301,2.8301,2.8301,2.8301,2.8301,2.8301,0.0,0.0,2.8301,2.8301,2.8301,2.8301,2.8301,2.8301,2.8301,2.8301,2.8301,2.8301,2.8301,2.8301,2.8301,2.8301,2.8301,2.8301,2.8301,2.8301,2.8301,2.8301,2.8281,2.8242,2.8242,2.8125,2.7721,2.7604,2.7467,2.7051,2.6908,2.6752,2.6406,2.6328,2.6211,2.5752,2.5679,2.5659,2.5659,2.562,2.5445,2.5082,2.5024,2.4848,2.4332,2.4274,2.4274,2.4274,2.4274,2.4274,2.4274,2.4274,2.4274,2.4274,2.4274,2.4293,2.4332,2.4332,2.4352,2.4391,2.4391,2.4609,2.5024,2.5024,2.5234,1.5925,1.5888,1.5875,1.623,1.5722,1.4932,1.4007,0.0,1.2163,1.1002,1.0667,1.0626,1.0747,1.0985,1.1436,1.2283,1.2617,1.33,1.4808,0.0,0.0,0.0,0.0,0.0,0.0,0.0,0.0,0.0,0.0,0.0,2.5553,2.7303,2.8301,2.8301,2.8301,2.8301,2.8301,2.8301,2.8301,2.8301,2.8301,2.8301,2.8301,2.8301,2.8301,2.8301,2.8301,0.0,0.0,2.8301,2.8301,2.8301,2.8301,2.8301,2.8301,2.8301,2.8301,2.8301,2.8301,2.8301,2.8301,2.8301,2.8301,2.8301,2.8301,2.8301,2.8301,2.8301,2.8301,2.8301,2.8301,2.8301,2.8262,2.8112,2.7878,2.7643,2.7467,2.7207,2.6947,2.6797,2.6758,2.6621,2.6211,2.6133,2.6035,2.5732,2.5693,2.564,2.5488,2.5469,2.5386,2.521,2.4703,2.4391,2.4391,2.4391,2.4391,2.4391,2.4391,2.4391,2.4391,2.4391,2.4531,2.4828,2.4828,2.4941,2.5191,2.5191,2.5289,2.5469,2.5469,2.5542,1.5701,1.5808,1.5861,1.6086,1.5508,1.4603,0.0,1.2807,1.1882,1.0814,1.0602,1.0602,1.0602,1.0811,1.1199,1.1788,1.2109,1.2799,1.4287,1.4714,0.0,0.0,0.0,0.0,0.0,0.0,0.0,0.0,0.0,0.0,2.3766,2.58,2.7168,2.7645,2.8067,2.8301,2.8301,2.8301,2.8301,2.8301,2.8301,2.8301,2.8301,2.8301,2.8301,2.8301,2.8301,0.0,0.0,2.8301,2.8301,2.8301,2.8301,2.8359,2.8476,2.8476,2.8555,2.8672,2.8672,2.8672,2.8652,2.8516,2.8476,2.8457,2.834,2.8301,2.8301,2.8301,2.8301,2.8301,2.8301,2.8301,2.8301,2.8301,2.8093,2.7878,2.7878,2.7617,2.7363,2.7226,2.7207,2.707,2.6641,2.6582,2.6465,2.6128,2.6089,2.605,2.5913,2.5913,2.5854,2.5693,2.5152,2.4781,2.4781,2.4781,2.4781,2.4781,2.4781,2.4781,2.4781,2.4781,2.4941,2.5278,2.5297,2.543,2.5693,2.5693,2.5693,2.5693,2.5835,2.5971,1.5648,1.5808,1.5808,1.5808,1.5154,1.4274,1.3393,1.2537,1.1658,1.0774,1.0602,1.0602,1.0602,1.0811,1.1199,1.1788,1.2612,1.3487,1.4381,1.5248,0.0,0.0,0.0,0.0,0.0,0.0,0.0,0.0,0.0,0.0,2.371,2.3822,2.4544,2.6073,2.7538,2.8301,2.8301,2.8301,2.8301,2.8301,2.8301,2.8301,2.8301,2.8301,2.8301,0.0,0.0,0.0,0.0,2.8301,2.8301,2.8301,2.8301,2.8555,2.8879,2.8879,2.918,2.9579,2.9579,2.9579,2.952,2.9062,2.8879,2.8801,2.8418,2.8301,2.8301,2.8301,2.8301,2.8301,2.8301,2.8301,2.8301,2.8301,2.8281,2.8281,2.8281,2.8281,2.8191,2.7761,2.7682,2.7545,2.7064,2.6986,2.6986,2.6986,2.6986,2.6855,2.6426,2.6387,2.6211,2.5757,2.5674,2.5698,2.5698,2.5698,2.5698,2.5698,2.5698,2.5698,2.5698,2.5698,2.5698,2.5674,2.5674,2.5718,2.5693,2.5693,2.5693,2.5693,2.6191,2.6602,1.4536,1.4754,1.4861,1.4683,1.4261,1.3674,1.2766,1.2229,1.1658,1.0774,1.0602,1.0602,1.0602,1.0667,1.1039,1.2029,1.2398,1.3039,0.0,0.0,0.0,0.0,0.0,0.0,0.0,0.0,0.0,0.0,0.0,0.0,2.0773,2.1756,2.2983,2.4488,2.5991,2.6798,2.6798,2.7807,2.8301,2.8301,2.8301,2.8301,2.8301,2.8301,2.8301,0.0,0.0,0.0,0.0,2.8301,2.8301,2.832,2.8613,2.8809,2.8918,2.9258,2.9481,2.9598,2.9598,2.9598,2.9579,2.9442,2.9383,2.9277,2.8848,2.8516,2.8301,2.8301,2.8301,2.8301,2.8301,2.8301,2.8301,2.8301,2.8301,2.8301,2.8301,2.8301,2.8262,2.8125,2.8112,2.7995,2.7565,2.7487,2.7363,2.707,2.6986,2.6947,2.6836,2.6816,2.6758,2.6596,2.6576,2.6342,2.5732,2.5693,2.5693,2.5693,2.5693,2.5693,2.5693,2.5693,2.5693,2.5693,2.601,2.6191,2.6191,2.644,2.6576,2.6596,2.6758,2.7051,1.3587,1.4055,1.4309,1.4135,1.3694,1.3133,1.2452,1.1922,1.139,1.072,1.0602,1.0602,1.0602,1.068,1.1012,1.1837,1.2251,1.2906,0.0,0.0,0.0,0.0,0.0,0.0,0.0,0.0,0.0,0.0,0.0,0.0,1.9401,2.0285,2.1202,2.2096,2.4156,2.5233,2.5233,2.6717,2.7484,2.7465,2.804,2.8301,2.8301,2.8301,2.8301,0.0,0.0,0.0,0.0,2.8301,2.8379,2.8555,2.8781,2.9094,2.9434,2.9707,2.995,3.0106,3.0106,3.0106,3.0067,2.9891,2.9735,2.954,2.9238,2.875,2.8301,2.8301,2.8301,2.8301,2.8301,2.8301,2.8301,2.8301,2.8301,2.8301,2.8301,2.8301,2.8301,2.8301,2.8301,2.8203,2.7976,2.7936,2.7839,2.7539,2.75,2.7441,2.7285,2.7266,2.7207,2.7006,2.6986,2.6771,2.6245,2.6186,2.6186,2.6186,2.6186,2.6186,2.6186,2.6186,2.6186,2.6186,2.6484,2.6621,2.6621,2.6894,2.709,2.7266,2.7266,2.75,0.0,1.3467,1.3942,1.3895,1.3286,1.261,1.2278,1.1583,0.0,1.0653,1.0602,1.06,1.064,1.0825,1.1089,1.1472,1.2256,0.0,0.0,0.0,0.0,0.0,0.0,0.0,0.0,0.0,0.0,0.0,0.0,0.0,1.9401,1.9401,1.9401,1.9401,2.2068,2.3543,2.3627,2.5178,2.5936,2.5964,2.733,2.7987,2.7987,2.7987,2.7987,0.0,0.0,0.0,0.0,2.8094,2.8319,2.8578,2.8597,2.9119,2.9862,3.0015,3.0277,3.0587,3.0674,3.0645,3.0509,3.017,2.98,2.9497,2.9609,2.9023,2.834,2.834,2.832,2.8301,2.8301,2.8301,2.8301,2.8301,2.8301,2.8301,2.8301,2.8301,2.8301,2.8301,2.8301,2.8301,2.8301,2.8301,2.8301,2.8301,2.8301,2.8171,2.778,2.7741,2.7585,2.7148,2.7084,2.7084,2.7084,2.7051,2.6986,2.6986,2.6986,2.6986,2.6986,2.6986,2.6986,2.6986,2.7025,2.7045,2.7084,2.7084,2.7324,2.7741,2.7741,2.7956,1.1065,0.0,1.235,1.2104,1.1873,1.1646,0.0,1.1142,1.0932,1.0653,0.0,1.0734,1.1142,1.0932,1.1146,1.2559,1.2959,0.0,0.0,0.0,0.0,0.0,0.0,0.0,0.0,0.0,0.0,0.0,0.0,1.9401,1.9401,1.9401,1.9401,1.9401,2.0068,2.0988,2.2109,2.3599,2.435,2.435,2.4682,2.4848,2.4848,2.4848,2.4848,0.0,0.0,0.0,2.4931,2.6127,2.6142,2.5422,2.5726,2.6093,2.6629,2.8244,2.8128,2.7331,2.8545,2.817,2.7344,2.8448,2.8557,2.8457,2.9698,2.9453,2.8769,2.8769,2.8535,2.8301,2.8301,2.8301,2.8301,2.8301,2.8301,2.8301,2.8301,2.8301,2.8301,2.8301,2.8301,2.8301,2.8301,2.8301,2.8301,2.8301,2.8301,2.8262,2.8191,2.8171,2.8105,2.8008,2.7988,2.7988,2.7988,2.7383,2.6986,2.6986,2.6986,2.6986,2.6986,2.6986,2.6986,2.6986,2.7344,2.7702,2.7988,2.7988,2.8047,2.8171,2.8171,2.823,1.0144,1.0918,1.1663,1.1637,1.1513,1.1366,1.1223,1.0982,1.0787,0.0,0.0,1.0734,1.1142,1.1076,0.0,1.2791,1.3227,0.0,0.0,0.0,0.0,0.0,0.0,0.0,0.0,0.0,0.0,0.0,0.0,1.9401,1.9401,1.9401,1.9401,1.9401,1.9401,1.978,2.0587,2.204,2.2786,2.2786,2.3487,2.3794,2.3794,2.3794,2.3794,0.0,0.0,0.0,2.3933,2.5453,2.551,2.4602,2.4829,2.5195,2.5764,2.6867,2.6742,2.6136,2.7013,2.6742,2.6136,2.7013,2.7145,2.7138,2.7995,2.7785,2.7515,2.8842,2.9062,2.8914,2.8914,2.8914,2.8914,2.8914,2.8914,2.8914,2.8914,2.8711,2.8574,2.8574,2.8418,2.8359,2.8555,2.8418,2.8359,2.8555,2.8418,2.8301,2.8301,2.8301,2.8301,2.8301,2.8301,2.8301,2.8301,2.7871,2.7598,2.7598,2.7598,2.7598,2.7598,2.7598,2.7598,2.7598,2.7858,2.8093,2.8301,2.8301,2.8301,2.8301,2.8301,2.8398,0.9781,1.0568,1.1396,1.1574,1.1476,1.1326,1.1286,0.0,0.0,0.0,0.0,0.0,0.0,0.0,0.0,0.0,0.0,0.0,0.0,0.0,0.0,0.0,0.0,0.0,0.0,0.0,0.0,0.0,0.0,1.9401,1.9401,1.9401,1.9401,1.9401,1.9401,1.9401,1.9401,2.0644,2.1259,2.1287,2.2533,2.3123,2.3123,2.3123,2.3123,2.3207,0.0,0.0,2.3235,2.4793,2.493,2.4181,2.4181,2.4627,2.5283,2.5558,2.5467,2.5253,2.5253,2.5253,2.5283,2.5558,2.5619,2.568,2.5924,2.5723,2.5932,2.8357,2.9143,2.9271,2.9542,2.9598,2.9598,2.9598,2.9598,2.9598,2.9598,2.9277,2.9023,2.9023,2.873,2.8594,2.8965,2.873,2.8613,2.8965,2.8711,2.8496,2.8496,2.8496,2.8496,2.8496,2.8496,2.8496,2.8496,2.8496,2.8496,2.8496,2.8359,2.8301,2.8301,2.8301,2.8301,2.8301,2.8301,2.8301,2.8301,2.8359,2.8398,2.8398,2.8484,2.8672,1.0184,1.0758,1.0955,1.0485,1.0728,1.0995,1.0758,1.0653,0.0,0.0,0.0,0.0,0.0,0.0,0.0,0.0,0.0,0.0,0.0,0.0,0.0,0.0,0.0,0.0,0.0,0.0,0.0,0.0,0.0,1.9401,1.9401,1.9401,1.9401,1.9401,1.9401,1.9401,1.9401,1.962,1.9735,1.9735,1.9953,2.0068,2.0068,2.0068,2.0068,2.0155,0.0,2.1458,2.0184,2.1671,2.1743,2.0939,2.0939,2.1313,2.2027,2.345,2.3076,2.1839,2.1839,2.1839,2.209,2.3512,2.3962,2.4209,2.5589,2.5935,2.5976,2.6439,2.7012,2.7823,2.9215,2.9598,2.9598,2.9598,2.9598,2.9598,2.9598,2.954,2.95,2.95,2.9442,2.9422,2.9481,2.9442,2.9422,2.9481,2.9442,2.9403,2.9403,2.9403,2.9403,2.9403,2.9403,2.9403,2.9403,2.9403,2.9403,2.9403,2.8718,2.8301,2.8301,2.8301,2.8301,2.8301,2.8301,2.8301,2.8301,2.8652,2.8828,2.8801,2.9227,2.9442,0.9473,1.006,1.0488,1.0396,1.1035,1.1663,1.1547,1.1417,0.0,0.0,0.0,0.0,0.0,0.0,0.0,0.0,0.0,0.0,0.0,0.0,0.0,0.0,0.0,0.0,0.0,0.0,0.0,0.0,0.0,0.0,1.9401,1.9401,1.9401,1.9401,1.9401,1.9401,1.9401,1.9401,1.9401,1.9401,1.9401,1.9401,1.9401,1.9401,1.9401,1.9475,0.0,2.0759,1.9504,2.1002,2.1059,2.0197,2.0197,2.0557,2.1204,2.1978,2.1758,2.1109,2.1109,2.1109,2.1235,2.1996,2.2247,2.2404,2.3124,2.3358,2.3544,2.444,2.5572,2.6675,2.7458,2.7663,2.7663,2.7663,2.7663,2.7663,2.7663,2.7454,2.7543,2.8442,2.8417,2.8625,2.9722,2.9755,2.9676,2.9891,2.9755,2.9598,2.9598,2.9598,2.9598,2.9598,2.9598,2.9598,2.9598,2.9598,2.9598,2.9598,2.9227,2.9012,2.9012,2.9012,2.9012,2.9012,2.9012,2.9012,2.9012,2.918,2.9277,2.9277,2.95,2.9715,0.9165,0.9554,1.0053,1.0643,1.14,1.2064,1.2345,1.2149,1.193,0.0,0.0,0.0,0.0,0.0,0.0,0.0,0.0,0.0,0.0,0.0,0.0,0.0,0.0,0.0,0.0,0.0,0.0,0.0,0.0,0.0,1.9401,1.9401,1.9401,1.9401,1.9401,1.9401,1.9401,1.9401,1.9401,1.9401,1.9401,1.9401,1.9401,1.9401,1.9401,1.9446,2.0587,2.0457,1.9475,2.0616,2.0723,2.0197,2.0197,2.0557,2.1109,2.1109,2.1109,2.1109,2.1109,2.1109,2.1109,2.1109,2.1109,2.1109,2.1109,2.1109,2.1348,2.2654,2.3885,2.5039,2.5802,2.6015,2.6015,2.6015,2.6015,2.6015,2.6015,2.5723,2.5824,2.7134,2.7111,2.7336,2.894,2.8954,2.9003,2.9671,2.9517,2.9448,2.9855,2.9911,2.9911,2.9911,2.9911,2.9911,2.9911,2.9911,2.9911,2.9911,2.9715,2.9598,2.9598,2.9598,2.9598,2.9598,2.9598,2.9598,2.9598,2.9696,2.9755,2.9755,2.9852,3.0087,1.0222,0.9923,0.9669,1.102,1.1223,1.1387,1.2502,1.2315,0.0,1.1359,0.0,0.0,0.0,0.0,0.0,0.0,0.0,0.0,0.0,0.0,0.0,0.0,0.0,0.0,0.0,0.0,0.0,0.0,0.0,0.0,1.9401,1.9401,1.9401,1.9401,1.9401,1.9401,1.9401,1.9401,1.9401,1.9401,1.9401,1.9401,1.9401,1.9401,1.9401,1.9401,1.9504,1.9504,1.9401,1.9504,1.9824,2.0197,2.0197,2.0557,2.1109,2.1109,2.1109,2.1109,2.1109,2.1109,2.1109,2.1109,2.1109,2.1109,2.1109,2.1109,2.1141,2.1267,2.1348,2.2139,2.5222,2.6015,2.6015,2.6015,2.6015,2.6015,2.6015,2.5951,2.5995,2.6117,2.61,2.6114,2.6268,2.6282,2.6794,2.8313,2.8503,2.9035,3.0607,3.083,3.083,3.083,3.083,3.083,3.083,3.083,3.083,3.083,3.0048,2.9598,2.9598,2.9598,2.9598,2.9598,2.9598,2.9598,2.9598,2.9961,3.0156,3.0156,3.0586,3.082,0.9487,0.9365,0.9369,1.1005,1.053,0.0,0.0,1.2508,1.2067,1.2275,1.2233,0.0,0.0,0.0,0.0,0.0,0.0,0.0,0.0,0.0,0.0,0.0,0.0,0.0,0.0,0.0,0.0,0.0,0.0,0.0,1.9401,1.9401,1.9401,1.9401,1.9401,1.9401,1.9401,1.9401,1.9401,1.9401,1.9401,1.9401,1.9401,1.9401,1.9401,1.9401,1.9401,1.9401,1.9401,1.9401,1.9706,2.0237,2.0597,2.0909,2.1109,2.1109,2.1109,2.1109,2.1109,2.1109,2.1109,2.1109,2.1109,2.1109,2.1109,2.1109,2.1109,2.1109,2.1109,2.138,2.264,2.2937,2.2937,2.2937,2.2937,2.2937,2.2937,2.2937,2.3248,2.4332,2.4502,2.484,2.5832,2.6015,2.6227,2.6832,2.6923,2.7512,2.9128,2.9335,2.9737,3.0791,3.0898,3.0898,3.0898,3.0898,3.0898,3.0898,3.0595,3.0419,3.0419,3.0419,3.0419,3.0419,3.0419,3.0419,3.0419,3.0547,3.0625,3.0625,3.082,3.0898,0.8445,0.8308,0.8361,0.9942,0.9485,0.0,1.1768,1.192,1.1674,1.2037,1.1195,0.0,0.0,0.0,0.0,0.0,0.0,0.0,0.0,0.0,0.0,0.0,0.0,0.0,0.0,0.0,0.0,0.0,0.0,0.0,0.0,1.9401,1.9401,1.9401,1.9401,1.9401,1.9401,1.9401,1.9401,1.9401,1.9401,1.9401,1.9401,1.9401,1.9401,1.9401,1.9401,1.9401,1.9401,1.9401,1.9706,2.0264,2.0851,2.1109,2.1109,2.1109,2.1109,2.1109,2.1109,2.1109,2.1109,2.1109,2.1109,2.1109,2.1109,2.1109,2.1109,2.1109,2.1109,2.1109,2.1109,2.1109,2.1109,2.1109,2.1109,2.1109,2.1109,2.1109,2.1443,2.2591,2.281,2.317,2.4255,2.4455,2.464,2.5161,2.5318,2.5935,2.7548,2.7852,2.8382,2.9504,3.0151,3.0392,3.0259,3.078,3.1035,3.0898,3.0898,3.0898,3.0898,3.0898,3.0898,3.0898,3.0898,3.0898,3.0898,3.0898,3.0898,3.0898,3.1035,3.1094,0.7335,0.6766,0.65,0.7705,0.0,0.0,1.0047,1.0397,1.0369,1.0227,0.0,0.8696,0.0,0.0,0.0,0.0,0.0,0.0,0.0,0.0,0.0,0.0,0.0,0.0,0.0,0.0,0.0,0.0,0.0,0.0,0.0,1.9401,1.9401,1.9401,1.9401,1.9401,1.9401,1.9401,1.9401,1.9401,1.9401,1.9401,1.9401,1.9401,1.9401,1.9401,1.9401,1.9401,1.9401,1.9401,1.972,2.0264,2.0882,2.1109,2.1109,2.1109,2.1109,2.1109,2.1109,2.1109,2.1109,2.1109,2.1109,2.1109,2.1109,2.1109,2.1109,2.1109,2.1109,2.1109,2.1109,2.1109,2.1109,2.1109,2.1109,2.1109,2.1109,2.1109,2.1109,2.1109,2.1109,2.1109,2.1109,2.1109,2.1677,2.334,2.3826,2.4543,2.6171,2.6671,2.69,2.69,2.8428,2.9344,2.8936,3.0498,3.1318,3.0918,3.0898,3.0898,3.0898,3.0898,3.0898,3.0898,3.0898,3.0898,3.0898,3.0898,3.0898,3.0918,3.1328,3.1494,0.717,0.693,0.0,0.8404,0.0,0.0,0.0,0.9877,0.0,0.0,0.9313,0.0,0.0,0.0,0.0,0.0,0.0,0.0,0.0,0.0,0.0,0.0,0.0,0.0,0.0,0.0,0.0,0.0,0.0,0.0,0.0,1.9401,1.9401,1.9401,1.9401,1.9401,1.9401,1.9401,1.9401,1.9401,1.9401,1.9401,1.9401,1.9401,1.9401,1.9401,1.9401,1.9401,1.9428,1.9813,2.0201,2.0588,2.0962,2.1109,2.1109,2.1109,2.1109,2.1109,2.1109,2.1109,2.1109,2.1109,2.1109,2.1109,2.1109,2.1109,2.1109,2.1109,2.1109,2.1109,2.1109,2.1109,2.1109,2.1109,2.1109,2.1109,2.1109,2.1109,2.1109,2.1109,2.1109,2.1176,2.1422,2.1448,2.1676,2.2364,2.2526,2.3152,2.4798,2.6104,2.69,2.69,2.7898,2.8535,2.8412,2.8873,2.9829,3.1376,3.0491,3.022,3.0859,3.0898,3.0898,3.0898,3.0898,3.0898,3.0898,3.1191,3.1328,3.1348,3.1777,3.1298,0.6473,0.6489,0.0,0.7837,0.7613,0.7464,0.8811,0.0,0.0,0.0,0.0,0.0,0.0,0.0,0.0,0.0,0.0,0.0,0.0,0.0,0.0,0.0,0.0,0.0,0.0,0.0,0.0,0.0,0.0,0.0,0.0,1.9401,1.9401,1.9401,1.9401,1.9401,1.9401,1.9401,1.9401,1.9401,1.9401,1.9401,1.9401,1.9401,1.9401,1.9401,1.9401,1.9401,1.9441,2.0,2.0304,2.0535,2.0949,2.1109,2.1109,2.1109,2.1109,2.1109,2.1109,2.1109,2.1109,2.1109,2.1109,2.1109,2.1109,2.1109,2.1109,2.1109,2.1109,2.1109,2.1109,2.1109,2.1109,2.1109,2.1109,2.1109,2.1109,2.1203,2.1283,2.1283,2.1376,2.151,2.1729,2.1756,2.181,2.1997,2.2084,2.2557,2.3648,2.4704,2.5328,2.5328,2.6616,2.7097,2.6166,2.7384,2.8504,2.9199,2.9297,2.9323,2.9313,3.0683,3.1436,3.1436,3.1436,3.1436,3.1436,3.166,3.1427,3.0713,3.1191,3.0462,0.5494,0.5705,0.0,0.6593,0.6965,0.0,0.0,0.0,0.0,0.0,0.0,0.0,0.0,0.0,0.0,0.0,0.0,0.0,0.0,0.0,0.0,0.0,0.0,0.0,0.0,0.0,0.0,0.0,0.0,0.0,0.0,1.9261,1.9361,1.9401,1.9401,1.9401,1.9401,1.9401,1.9401,1.9401,1.9401,1.9401,1.9401,1.9401,1.9401,1.9401,1.9401,1.9415,1.9481,1.997,2.0224,2.0304,2.0895,2.1109,2.1109,2.1109,2.1109,2.1109,2.1109,2.1109,2.1109,2.1109,2.1109,2.1109,2.1109,2.1109,2.1109,2.1109,2.1109,2.1109,2.1109,2.1122,2.1149,2.1149,2.1149,2.1149,2.1149,2.1408,2.1622,2.1622,2.1836,2.2024,2.2017,2.2031,2.2064,2.2091,2.2285,2.2552,2.2867,2.2893,2.2893,2.2893,2.4824,2.5214,2.3065,2.5853,2.7029,2.536,2.731,2.8028,2.6919,2.9981,3.1722,3.1722,3.1722,3.1722,3.1722,3.1761,3.0945,2.9311,2.9815,2.9052,0.5426,0.5815,0.0,0.0,0.7402,0.7905,0.0,0.0,0.0,0.0,0.0,0.0,0.0,0.0,0.0,0.0,0.0,0.0,0.0,0.0,0.0,0.0,0.0,0.0,0.0,0.0,0.0,0.0,0.0,0.0,1.726,1.8399,1.9132,1.9388,1.9401,1.9401,1.9401,1.9401,1.9401,0.0,1.9401,1.9401,1.9401,1.9401,1.9401,1.9401,1.9401,1.9522,1.9733,2.0064,2.0374,2.0615,2.0975,2.1109,2.1109,2.1109,2.1109,2.1109,2.1109,2.1109,2.1109,2.1109,2.1109,2.1109,2.1109,2.1109,2.1109,2.1109,2.1109,2.1109,2.1109,2.1315,2.1489,2.1489,2.1489,2.1489,2.1489,2.1716,2.193,2.193,2.197,2.2058,2.2285,2.2325,2.2405,2.2679,2.276,2.2827,2.2893,2.2893,2.2893,2.2893,2.3359,2.3461,2.2928,2.3597,2.3862,2.3473,2.3967,2.4933,2.6421,2.7484,2.8037,2.8037,2.8037,2.8037,2.8037,2.836,2.8305,2.7937,2.8404,2.7654,0.5583,0.0,0.0,0.7256,0.0,0.8054,0.0,0.0,0.0,0.0,0.0,0.0,0.0,0.0,0.0,0.0,0.0,0.0,0.0,0.0,0.0,0.0,0.0,0.0,0.0,0.0,0.0,0.0,0.0,1.5304,1.5454,1.6972,1.7932,1.81,1.8961,1.9401,1.9401,1.9401,1.9401,1.9401,1.9401,1.9401,1.9401,1.9401,1.9401,1.9401,1.9401,1.9481,1.9626,2.0024,2.029,2.0508,2.0935,2.1109,2.1109,2.1109,2.1109,2.1109,2.1109,2.1109,2.1109,2.1109,2.1109,2.1109,2.1109,2.1109,2.1109,2.1109,2.1216,2.1355,2.1355,2.1569,2.1796,2.1796,2.1796,2.1796,2.1796,2.1991,2.2191,2.2191,2.2311,2.2492,2.2605,2.2632,2.2686,2.288,2.2893,2.2893,2.2893,2.2893,2.2893,2.2893,2.2893,2.2893,2.2893,2.2893,2.2893,2.2893,2.2893,2.3461,2.4655,2.4904,2.5797,2.7489,2.7505,2.7505,2.7505,2.7735,2.7393,2.6539,2.6794,2.5953,0.5721,0.0,0.6804,0.7604,0.7905,0.0,0.8201,0.0,0.0,0.0,0.0,0.0,0.0,0.0,0.0,0.0,0.0,0.0,0.0,0.0,0.0,0.0,0.0,0.0,0.0,0.0,0.0,0.0,0.0,1.3595,1.3635,1.5273,1.6229,1.6304,1.7786,1.8561,1.8561,1.8561,1.8561,1.8561,1.8852,1.8823,1.859,1.8852,1.8997,1.8997,1.8997,1.8997,1.905,1.9867,2.0197,2.0264,2.0851,2.1109,2.1109,2.1109,2.1109,2.1109,2.1109,2.1109,2.1109,2.1109,2.1109,2.1109,2.1109,2.1109,2.1109,2.1109,2.1355,2.1582,2.1582,2.1836,2.2058,2.2058,2.2098,2.2124,2.2071,2.2285,2.2498,2.2498,2.2733,2.2893,2.2893,2.2893,2.2893,2.2893,2.2893,2.2893,2.2893,2.2893,2.2893,2.2893,2.2893,2.2893,2.2893,2.2893,2.2893,2.2893,2.2893,2.2893,2.2893,2.2893,2.4297,2.7238,2.7271,2.7271,2.7271,2.7271,2.6522,2.5046,2.5046,2.4283,0.5402,0.0,0.7154,0.0,0.7905,0.7995,0.0,0.0,0.0,0.0,0.0,0.0,0.0,0.0,0.0,0.0,0.0,0.0,0.0,0.0,0.0,0.0,0.0,0.0,0.0,0.0,0.0,0.0,1.0662,1.1604,1.1826,1.3399,1.4406,1.469,1.5047,1.5233,1.5233,1.5233,1.5233,1.5252,1.6639,1.658,1.5281,1.668,1.7325,1.7325,1.7325,1.7325,1.7461,1.9404,2.0197,2.0264,2.0851,2.1109,2.1109,2.1109,2.1109,2.1109,2.1109,2.1109,2.1109,2.1109,2.1109,2.1109,2.1109,2.1109,2.1109,2.1109,2.1355,2.1582,2.1582,2.1984,2.2365,2.2365,2.2552,2.2706,2.2418,2.2592,2.284,2.284,2.2867,2.2893,2.2893,2.2893,2.2893,2.2893,2.2893,2.2893,2.2893,2.2893,2.2893,2.2893,2.2893,2.2893,2.2893,2.2893,2.2893,2.2893,2.2893,2.2893,2.2893,2.2893,2.3133,2.3597,2.3597,2.3597,2.3597,2.3597,2.3495,2.3256,2.3256,2.3133,0.5804,0.6552,0.7227,0.0,0.7966,0.7988,0.7988,0.0,0.0,0.0,0.0,0.0,0.0,0.0,0.0,0.0,0.0,0.0,0.0,0.0,0.0,0.0,0.0,0.0,0.0,0.0,0.0,0.0,0.9506,0.9921,1.0045,1.1649,1.2663,1.2933,1.3946,1.4537,1.4599,1.4599,1.4599,1.4599,1.5311,1.5281,1.4599,1.4391,1.4807,1.5666,1.5666,1.5666,1.5817,1.8022,1.8924,1.9066,2.0524,2.1109,2.1109,2.1109,2.1109,2.1109,2.1109,2.1109,2.1109,2.1109,2.1109,2.1109,2.1109,2.1109,2.1149,2.1341,2.1596,2.1863,2.1991,2.2352,2.2672,2.2672,2.28,2.2853,2.2699,2.28,2.2893,2.2893,2.2893,2.2893,2.2893,2.2893,2.2893,2.2893,2.2893,2.2893,2.2893,2.2893,2.2893,2.2893,2.2893,2.2893,2.2893,2.2893,2.2893,2.2893,2.3215,2.3402,2.3402,2.3402,2.3402,2.3402,2.3067,2.2893,2.2893,2.2893,2.2987,2.3126,2.3126,2.3207,0.0,0.0,0.7039,0.7634,0.7871,0.7966,0.0,0.0,0.0,0.0,0.0,0.0,0.0,0.0,0.0,0.0,0.0,0.0,0.0,0.0,0.0,0.0,0.0,0.0,0.0,0.0,0.0,0.0,0.8912,0.8912,0.8912,1.0181,1.0968,1.1135,1.2479,1.3234,1.3333,1.3349,1.3377,1.3377,1.3795,1.3765,1.3347,1.2569,1.2629,1.3407,1.3795,1.3974,1.4152,1.6328,1.7234,1.7414,1.9103,2.0068,2.043,2.043,2.0716,2.1109,2.1109,2.1109,2.1109,2.1109,2.1109,2.1109,2.1109,2.1162,2.1269,2.1529,2.185,2.2151,2.2365,2.2645,2.2893,2.2893,2.2893,2.2893,2.2893,2.2893,2.2893,2.2893,2.2893,2.2893,2.2893,2.2893,2.2893,2.2893,2.2893,2.2893,2.2893,2.2893,2.2893,2.2893,2.2893,2.3014,2.3322,2.3313,2.3313,2.3313,2.3741,2.3995,2.3995,2.3884,2.3803,2.3803,2.3362,2.3134,2.3134,2.3134,2.3207,2.3434,2.3434,2.3554,0.0,0.5981,0.0,0.7019,0.7486,0.0,0.0,0.0,0.0,0.0,0.0,0.0,0.0,0.0,0.0,0.0,0.0,0.0,0.0,0.0,0.0,0.0,0.0,0.0,0.0,0.0,0.0,0.0,0.8912,0.8912,0.8912,0.916,0.9327,0.9334,0.9653,0.9849,0.9856,0.9995,1.0058,1.0058,1.1585,1.1525,1.0088,1.1525,1.1412,1.0119,1.1645,1.2337,1.2483,1.4583,1.5432,1.5483,1.5966,1.7184,1.864,1.864,1.9674,2.1109,2.1109,2.1109,2.1109,2.1109,2.1109,2.1109,2.1109,2.1309,2.1569,2.1614,2.1997,2.2371,2.2418,2.2645,2.2893,2.2893,2.2893,2.2893,2.2893,2.2893,2.2893,2.2893,2.2893,2.2893,2.2893,2.2893,2.2893,2.2893,2.2893,2.2893,2.2893,2.2893,2.2893,2.2893,2.2893,2.3348,2.4412,2.4506,2.4506,2.4506,2.4532,2.4559,2.4559,2.4062,2.3803,2.3803,2.3777,2.3763,2.3763,2.3763,2.3763,2.379,2.379,2.379,0.0,0.0,0.0,0.6715,0.7197,0.757,0.0,0.0,0.0,0.0,0.0,0.0,0.0,0.0,0.0,0.0,0.0,0.0,0.0,0.0,0.0,0.0,0.0,0.0,0.0,0.0,0.0,0.0,0.0,0.8912,0.8912,0.896,0.9055,0.9207,0.9383,0.9551,0.971,0.9765,0.9792,0.9822,1.0391,1.0361,0.9822,1.0391,1.0361,0.9822,1.0422,1.0664,1.0838,1.2893,1.377,1.39,1.5324,1.6269,1.6818,1.6818,1.7237,1.7923,1.9024,1.9419,1.961,2.0748,2.1109,2.1149,2.1368,2.1502,2.1662,2.2004,2.2258,2.2458,2.2659,2.2813,2.2893,2.2893,2.2893,2.2893,2.2893,2.2893,2.2893,2.2893,2.2893,2.2893,2.2893,2.2893,2.2893,2.2893,2.2893,2.2893,2.2893,2.3527,2.3995,2.3995,2.3995,2.4168,2.4559,2.4599,2.4599,2.4599,2.4599,2.4599,2.4599,2.4436,2.4329,2.4329,2.4329,2.4142,2.3803,2.3803,2.391,2.4048,2.4048,2.4155,0.5096,0.0,0.0,0.0,0.0,0.0,0.0,0.0,0.0,0.0,0.0,0.0,0.0,0.0,0.0,0.0,0.0,0.0,0.0,0.0,0.0,0.0,0.0,0.0,0.0,0.0,0.0,0.0,0.0,0.0,0.8912,0.8912,0.9008,0.9207,0.9328,0.9503,0.9717,0.9765,0.9792,0.9792,0.9792,0.9792,0.9792,0.9792,0.9792,0.9792,0.9792,0.9792,0.9903,1.1417,1.2028,1.2154,1.3593,1.4525,1.5037,1.5037,1.5394,1.6075,1.7237,1.802,1.8704,1.9846,2.0259,2.0471,2.1322,2.1293,2.1121,2.2111,2.2485,2.2619,2.284,2.2893,2.2893,2.2893,2.2893,2.2893,2.2893,2.2893,2.2893,2.2893,2.2893,2.2893,2.2893,2.2893,2.3027,2.3394,2.3148,2.3041,2.3407,2.4142,2.4599,2.4599,2.4599,2.4599,2.4599,2.4599,2.4599,2.4599,2.4599,2.4599,2.4599,2.4599,2.4599,2.4599,2.4599,2.4412,2.4062,2.4062,2.4155,2.4342,2.4342,2.4412,0.0,0.0,0.0,0.0,0.0,0.0,0.0,0.0,0.0,0.0,0.0,0.0,0.0,0.0,0.0,0.0,0.0,0.0,0.0,0.0,0.0,0.0,0.0,0.0,0.0,0.0,0.0,0.0,0.8912,0.8912,0.8912,0.8912,0.9008,0.9207,0.9328,0.9449,0.9605,0.9717,0.9785,0.9792,0.9792,0.9792,0.9792,0.9792,0.9792,0.9792,0.9792,0.9792,0.9812,1.0154,1.0315,1.0342,1.0609,1.1729,1.3226,1.3226,1.4297,1.5751,1.5816,1.6915,1.834,1.8416,1.8527,1.8965,2.087,2.0551,1.9913,2.1813,2.2564,2.2825,2.2893,2.2893,2.2893,2.2893,2.2893,2.2893,2.2893,2.2893,2.2893,2.2907,2.2907,2.2907,2.292,2.2934,2.3348,2.4426,2.3661,2.3327,2.4452,2.4599,2.4599,2.4599,2.4599,2.4599,2.4599,2.4599,2.4599,2.4599,2.4599,2.4599,2.4599,2.4599,2.4599,2.4599,2.4599,2.4599,2.4599,2.4599,2.4599,2.4599,2.4599,2.4599,0.4721,0.0,0.0,0.0,0.0,0.0,0.0,0.0,0.0,0.0,0.0,0.0,0.0,0.0,0.0,0.0,0.0,0.0,0.0,0.0,0.0,0.0,0.0,0.0,0.0,0.0,0.0,0.0,0.8912,0.8912,0.8912,0.8912,0.9008,0.9207,0.9248,0.9369,0.9605,0.9646,0.972,0.9792,0.9792,0.9792,0.9792,0.9792,0.9792,0.9792,0.9792,0.9792,0.9812,1.0154,1.0315,1.0342,1.0609,1.0982,1.1406,1.1406,1.1729,1.2314,1.3578,1.433,1.4968,1.6335,1.6799,1.6981,1.788,1.7872,1.8011,2.0139,2.081,2.1183,2.2551,2.2893,2.2893,2.2893,2.2893,2.2893,2.2893,2.2893,2.296,2.3153,2.302,2.3041,2.3482,2.3861,2.4262,2.4546,2.4319,2.4226,2.4559,2.4599,2.4599,2.4599,2.4599,2.4599,2.4599,2.4599,2.4599,2.4599,2.4599,2.4599,2.4599,2.4599,2.4599,2.4599,2.4599,2.4599,2.4599,2.4599,2.4599,2.4599,2.4599,2.4599,0.0,0.0,0.0,0.0,0.0,0.0,0.0,0.6668,0.0,0.0,0.0,0.0,0.0,0.0,0.0,0.0,0.0,0.0,0.0,0.0,0.0,0.0,0.0,0.0,0.0,0.8912,0.8912,0.8912,0.8912,0.8912,0.8912,0.8912,0.8946,0.9062,0.9152,0.9267,0.9415,0.9544,0.9652,0.9704,0.9765,0.9792,0.9792,0.9792,0.9792,0.9792,0.9792,0.9792,0.9812,1.0154,1.0315,1.0342,1.0609,1.0684,1.0684,1.0684,1.0684,1.085,1.1861,1.2724,1.3559,1.466,1.5108,1.543,1.6481,1.6342,1.6415,1.9276,2.0652,2.1527,2.2619,2.2893,2.2934,2.3033,2.2987,2.2947,2.3121,2.3215,2.3335,2.3474,2.3201,2.3014,2.3362,2.4088,2.4599,2.4599,2.4599,2.4412,2.3955,2.4292,2.4599,2.4599,2.4599,2.4599,2.4599,2.4599,2.4599,2.4599,2.4599,2.4599,2.4599,2.4599,2.4599,2.4599,2.4599,2.4599,2.4599,2.4599,2.4599,2.4599,2.4599,2.4599,0.5241,0.5389,0.0,0.0,0.0,0.0,0.6728,0.6769,0.6844,0.0,0.0,0.0,0.0,0.0,0.0,0.0,0.0,0.0,0.0,0.0,0.0,0.0,0.0,0.0,0.8885,0.8899,0.8912,0.8912,0.8912,0.8912,0.8912,0.8912,0.8912,0.8912,0.9062,0.9165,0.9207,0.9442,0.9591,0.9612,0.9724,0.9792,0.9792,0.9792,0.9792,0.9792,0.9792,0.9798,0.9839,1.0161,1.0315,1.0342,1.0609,1.0684,1.0684,1.0684,1.0684,1.0684,1.0684,1.1807,1.321,1.3226,1.3464,1.4022,1.569,1.5236,1.4858,1.8438,2.0963,2.2585,2.2585,2.2756,2.2974,2.3207,2.3113,2.3081,2.3375,2.3683,2.391,2.391,2.3469,2.3094,2.3094,2.3941,2.4599,2.4599,2.4599,2.4212,2.3228,2.3981,2.4599,2.4599,2.4599,2.4599,2.4599,2.4599,2.4599,2.4599,2.4599,2.4599,2.4599,2.4599,2.4599,2.4599,2.4599,2.4599,2.4599,2.4599,2.4599,2.4599,2.429,2.4179,0.5549,0.57,0.5856,0.0,0.0,0.0,0.0,0.6056,0.6443,0.0,0.0,0.0,0.0,0.0,0.0,0.0,0.0,0.0,0.0,0.0,0.0,0.0,0.0,0.0,0.873,0.8838,0.8912,0.8912,0.8912,0.8912,0.8912,0.8912,0.8912,0.8912,0.894,0.9035,0.9207,0.9362,0.949,0.9612,0.9724,0.9792,0.9792,0.9792,0.9792,0.9792,0.9792,0.9859,0.9988,1.0202,1.0315,1.0342,1.0609,1.0684,1.0684,1.0684,1.0684,1.0684,1.0684,1.102,1.1436,1.159,1.1761,1.2002,1.2486,1.2409,1.2602,1.4893,1.7984,2.0652,2.0652,2.1769,2.2907,2.2974,2.3308,2.3509,2.3108,2.3768,2.4426,2.4426,2.4332,2.4252,2.4252,2.4452,2.4599,2.4599,2.4599,2.4519,2.4279,2.4452,2.4599,2.4599,2.4599,2.4599,2.4599,2.4599,2.4599,2.4599,2.4599,2.4599,2.4599,2.4599,2.4599,2.4599,2.4599,2.4599,2.4599,2.4599,2.4599,2.4562,2.2397,2.1676,0.5888,0.5976,0.6112,0.5992,0.0,0.0,0.0,0.0,0.6268,0.6715,0.0,0.0,0.0,0.0,0.0,0.0,0.0,0.0,0.0,0.0,0.0,0.0,0.0,0.0,0.8594,0.8737,0.8831,0.8906,0.8912,0.8912,0.8912,0.8912,0.8912,0.8912,0.8912,0.8946,0.9049,0.9294,0.9422,0.9496,0.972,0.9792,0.9792,0.9792,0.9792,0.9792,0.9792,0.9879,1.0028,1.0215,1.0356,1.0412,1.0629,1.0684,1.0684,1.0684,1.0684,1.0698,1.0772,1.0901,1.1084,1.1261,1.1382,1.1518,1.1599,1.2252,1.3202,1.4148,1.6439,1.8868,1.9843,2.0888,2.1963,2.298,2.3509,2.3803,2.3754,2.4222,2.4599,2.4599,2.4599,2.4599,2.4599,2.4599,2.4599,2.4599,2.4599,2.4599,2.4599,2.4599,2.4599,2.4599,2.4599,2.4599,2.4599,2.4599,2.4599,2.4599,2.4599,2.4599,2.4599,2.3648,2.2967,2.2633,2.2633,2.3277,2.4599,2.2583,2.1937,2.2546,2.0542,1.979,0.0,0.0,0.0,0.0,0.0,0.6309,0.0,0.0,0.0,0.6775,0.0,0.0,0.0,0.0,0.0,0.0,0.0,0.0,0.0,0.0,0.0,0.0,0.0,0.0,0.0,0.8554,0.8703,0.8852,0.8838,0.8852,0.8906,0.8912,0.8912,0.8912,0.8912,0.8912,0.8912,0.9232,0.941,0.9417,0.968,0.9792,0.9792,0.9792,0.9792,0.9792,0.9792,0.9893,1.0069,1.0229,1.0378,1.0548,1.067,1.0684,1.0684,1.0684,1.0684,1.0711,1.086,1.1043,1.122,1.1376,1.1497,1.1584,1.1584,1.2674,1.3872,1.3872,1.5212,1.7047,1.8643,1.9501,2.0403,2.237,2.3345,2.3981,2.4479,2.4599,2.4599,2.4599,2.4599,2.4599,2.4599,2.4599,2.4599,2.4599,2.4599,2.4599,2.4599,2.4599,2.4599,2.4599,2.4599,2.4599,2.4599,2.4599,2.4599,2.4599,2.4599,2.4451,2.4031,2.236,2.1141,2.0628,2.1115,2.2061,2.3463,1.9403,1.7967,1.8988,1.7929,1.7625,0.0,0.0,0.0,0.0,0.6872,0.0,0.0,0.0,0.6532,0.6201,0.0,0.0,0.0,0.0,0.0,0.0,0.0,0.0,0.0,0.0,0.0,0.0,0.0,0.0,0.0,0.8335,0.8464,0.8716,0.8608,0.8655,0.8899,0.8912,0.8912,0.8912,0.8912,0.8912,0.8912,0.9232,0.941,0.9417,0.968,0.9792,0.9792,0.9792,0.9792,0.9792,0.9792,0.9985,1.0256,1.0308,1.0446,1.0697,1.0677,1.0684,1.0684,1.0684,1.0684,1.0711,1.086,1.1043,1.122,1.1376,1.1497,1.1584,1.1584,1.1763,1.1936,1.1936,1.3274,1.4822,1.5211,1.6558,1.8262,2.0002,2.2224,2.4092,2.4506,2.4599,2.4599,2.4599,2.4599,2.4599,2.4599,2.4599,2.4599,2.4599,2.4599,2.4599,2.4599,2.4599,2.4599,2.4599,2.4599,2.4599,2.4599,2.4599,2.4599,2.4599,2.4599,2.3796,2.2012,2.1153,2.0703,2.059,2.293,2.2546,1.9252,1.5165,1.3267,1.3414,1.3259,1.4137,0.0,0.0,0.0,0.0,0.0,0.0,0.0,0.0,0.6289,0.0,0.0,0.0,0.0,0.0,0.0,0.0,0.0,0.0,0.0,0.0,0.0,0.0,0.0,0.0,0.0,0.0,0.0,0.0,0.8464,0.8492,0.8764,0.8777,0.8818,0.8906,0.8912,0.8912,0.8912,0.9232,0.941,0.9417,0.968,0.9792,0.9792,0.9792,0.9792,0.9798,0.9886,1.0049,1.0322,1.0371,1.0527,1.0684,1.0684,1.0684,1.0684,1.0684,1.0745,1.084,1.1023,1.1172,1.1356,1.147,1.1565,1.1584,1.1584,1.1584,1.1584,1.1584,1.2208,1.3184,1.4377,1.5457,1.648,1.747,1.8694,1.9916,2.092,2.1104,2.0418,1.8042,1.7588,1.9063,2.3796,2.4599,2.4599,2.4599,2.4599,2.4599,2.4599,2.4599,2.4599,2.4599,2.4599,2.4599,2.4599,2.4599,2.4599,2.4599,2.2397,2.038,1.8713,1.8373,1.7512,1.5922,1.7018,1.6751,1.505,1.3337,1.2501,1.2501,1.2501,1.2958,0.7425,0.0,0.0,0.0,0.0,0.0,0.0,0.0,0.0,0.0,0.0,0.0,0.0,0.0,0.0,0.0,0.0,0.0,0.0,0.0,0.0,0.0,0.0,0.0,0.0,0.0,0.0,0.0,0.0,0.8309,0.8689,0.871,0.875,0.8906,0.8912,0.8912,0.8912,0.9232,0.941,0.9417,0.968,0.9792,0.9792,0.9792,0.9792,0.9798,0.9954,1.0103,1.0322,1.0432,1.0582,1.0684,1.0684,1.0684,1.0684,1.0684,1.0786,1.0934,1.1145,1.1329,1.147,1.1586,1.1584,1.1584,1.1584,1.1584,1.159,1.1631,1.1712,1.2136,1.3646,1.4258,1.4555,1.4931,1.567,1.6523,1.755,1.7891,1.717,1.4176,1.2997,1.4368,2.0268,2.3116,2.4599,2.4599,2.4599,2.4599,2.4599,2.4599,2.4599,2.4599,2.4599,2.4599,2.4599,2.4599,2.4142,2.3042,2.023,1.7625,1.5493,1.5378,1.4475,1.254,1.2501,1.2501,1.2501,1.2501,1.2501,1.2501,1.2501,1.2501,0.0,0.0,0.0,0.724,0.0,0.0,0.0,0.0,0.6681,0.0,0.0,0.0,0.0,0.0,0.0,0.0,0.0,0.0,0.0,0.0,0.0,0.0,0.0,0.0,0.0,0.0,0.0,0.0,0.7885,0.0,0.8676,0.871,0.875,0.8906,0.8912,0.8912,0.8912,0.9232,0.941,0.9417,0.968,0.9792,0.9792,0.9792,0.9792,0.9798,0.9954,1.0103,1.0322,1.0432,1.0582,1.0684,1.0684,1.0684,1.0684,1.0684,1.0786,1.0934,1.1145,1.1362,1.1577,1.1619,1.1584,1.1584,1.1584,1.1584,1.1647,1.1746,1.1793,1.1898,1.2271,1.2398,1.2439,1.2576,1.4091,1.554,1.5578,1.6104,1.6514,1.64,1.4283,1.2579,1.2842,1.9403,2.4599,2.4599,2.4599,2.4599,2.4599,2.4599,2.4599,2.4599,2.4599,2.4599,2.4599,2.4599,2.293,1.9025,1.8686,1.679,1.2804,1.2617,1.2579,1.2501,1.2501,1.2501,1.2501,1.2501,1.2501,1.2501,1.2501,1.2501,0.0,0.0,0.8072,0.757,0.0,0.0,0.0,0.0,0.0,0.0,0.0,0.0,0.0,0.0,0.0,0.0,0.0,0.0,0.0,0.0,0.0,0.0,0.0,0.0,0.0,0.0,0.0,0.0,0.7699,0.0,0.8417,0.8506,0.8628,0.8757,0.8858,0.8912,0.8912,0.9232,0.941,0.9417,0.968,0.9792,0.9792,0.9792,0.9792,0.9805,1.0093,1.0236,1.0329,1.0541,1.067,1.0684,1.0684,1.0684,1.0684,1.0684,1.088,1.1124,1.1375,1.1531,1.1584,1.1584,1.1584,1.1584,1.1584,1.1584,1.1611,1.1753,1.1904,1.207,1.2237,1.2359,1.244,1.2488,1.3035,1.3529,1.3529,1.3683,1.3868,1.3868,1.3112,1.2501,1.2501,1.4782,1.8421,2.3796,2.4599,2.2657,1.7284,1.6599,1.8638,2.4031,2.4599,2.4599,2.4599,1.9666,1.5998,1.4629,1.4552,1.3945,1.2579,1.2501,1.2501,1.2501,1.2501,1.2501,1.2501,1.2501,1.2501,1.2501,1.2501,1.2501,0.8094,0.8228,0.0,0.7855,0.7685,0.0,0.7041,0.0,0.0,0.0,0.0,0.0,0.0,0.0,0.0,0.0,0.0,0.0,0.0,0.0,0.0,0.0,0.0,0.0,0.0,0.0,0.7246,0.7645,0.7529,0.0,0.0,0.0,0.8554,0.8703,0.8831,0.8933,0.9015,0.9259,0.9437,0.9462,0.9707,0.9792,0.9792,0.9792,0.9819,0.9886,1.0168,1.0342,1.0403,1.0622,1.0684,1.0684,1.0684,1.0684,1.0691,1.0745,1.0989,1.1315,1.1531,1.1584,1.1584,1.1584,1.1584,1.1584,1.1584,1.1617,1.1692,1.187,1.2026,1.2213,1.2325,1.2433,1.2501,1.2501,1.2501,1.2501,1.2501,1.2501,1.2501,1.2501,1.2501,1.2501,1.2501,1.2501,1.4291,1.9516,2.0305,1.8421,1.319,1.2501,1.4514,1.9741,2.0305,2.0305,2.0305,1.5501,1.2501,1.2501,1.2501,1.2501,1.2501,1.2501,1.2501,1.2501,1.2501,1.2501,1.2501,1.2501,1.2501,1.2501,1.2501,1.2501]},{"header":{"parameterUnit":"m.s-1","parameterCategory":1,"la1":30.6,"la2":29.2853,"lo1":-89.7004,"lo2":-87.6739,"dy":0.0162,"dx":0.0183,"nx":112,"ny":82,"refTime":"2026-04-11T00:00:00:Z","depth":0,"parameterNumber":3,"parameterNumberName":"V-component_of_WINDS"},"data":[0.0,0.0,0.0,0.0,0.0,0.0,0.0,0.0,0.0,0.0,0.0,0.0,0.0,0.0,0.0,0.0,0.0,0.0,0.0,0.0,0.0,0.0,0.0,0.0,0.0,0.0,0.0,0.0,0.0,0.0,0.0,0.0,0.0,0.0,0.0,0.0,0.0,0.0,0.0,0.0,0.0,0.0,0.0,0.0,0.0,0.0,0.0,0.0,0.0,0.0,0.0,0.0,0.0,0.0,0.0,0.0,0.0,0.0,0.0,0.0,0.0,0.0,0.0,0.0,0.0,0.0,0.0,0.0,0.0,0.0,0.0,0.0,0.0,0.0,0.0,0.0,0.0,0.0,0.0,0.0,0.0,0.0,0.0,0.0,0.0,0.0,0.0,0.0,0.0,0.0,0.0,1.1732,1.3066,1.4143,1.4652,1.5343,1.5649,1.5432,0.0,0.0,0.0,0.0,0.0,0.0,0.0,0.0,0.0,0.0,0.0,0.0,0.0,0.0,0.0,0.0,0.0,0.0,0.0,0.0,0.0,0.0,0.0,0.0,0.0,0.0,0.0,0.0,0.0,0.0,0.0,0.0,0.0,0.0,0.0,0.0,0.0,0.0,0.0,0.0,0.0,0.0,0.0,0.0,0.0,0.0,0.0,0.0,0.0,0.0,0.0,0.0,0.0,0.0,0.0,0.0,0.0,0.0,0.0,0.0,0.0,0.0,0.0,0.0,0.0,0.0,0.0,0.0,0.0,0.0,0.0,0.0,0.0,0.0,0.0,0.0,0.0,0.0,0.0,0.0,0.0,0.0,0.0,0.0,0.0,0.0,0.0,0.0,0.0,0.0,0.0,0.0,0.0,0.0,0.0,0.0,0.0,0.0,0.0,0.0,0.0,0.0,0.0,0.0,1.0987,1.2543,1.3822,1.4595,1.4686,1.571,1.5971,1.5056,0.0,0.0,0.0,0.0,0.0,0.0,0.0,0.0,0.0,0.0,0.0,0.0,0.0,0.0,0.0,0.0,0.0,0.0,0.0,0.0,0.0,0.0,0.0,0.0,0.0,0.0,0.0,0.0,0.0,0.0,0.0,0.0,0.0,0.0,0.0,0.0,0.0,0.0,0.0,0.0,0.0,0.0,0.0,0.0,0.0,0.0,0.0,0.0,0.0,0.0,0.0,0.0,0.0,0.0,0.0,0.0,0.0,0.0,0.0,0.0,0.0,0.0,0.0,0.0,0.0,0.0,0.0,0.0,0.0,0.0,0.0,0.0,0.0,0.0,0.0,0.0,0.0,0.0,0.0,0.0,0.0,0.0,0.0,0.0,0.0,0.0,0.0,0.0,0.0,0.0,0.0,0.0,0.0,0.0,0.0,0.0,0.0,0.0,0.0,0.0,0.0,0.0,0.0,1.12,1.1851,1.3236,1.3874,1.4491,1.5141,1.5699,1.58,1.5251,1.3952,0.0,0.0,0.0,0.0,0.0,0.0,0.0,0.0,0.0,0.0,0.0,0.0,0.0,0.0,0.0,0.0,0.0,0.0,0.0,0.0,0.0,0.0,0.0,0.0,0.0,0.0,0.0,0.0,0.0,0.0,0.0,0.0,0.0,0.0,0.0,0.0,0.0,0.0,0.0,0.0,0.0,0.0,0.0,0.0,0.0,0.0,0.0,0.0,0.0,0.0,0.0,0.0,0.0,0.0,0.0,0.0,0.0,0.0,0.0,0.0,0.0,0.0,0.0,0.0,0.0,0.0,0.0,0.0,0.0,0.0,0.0,0.0,0.0,0.0,0.0,0.0,0.0,0.0,0.0,0.0,0.0,0.0,0.0,0.0,0.0,0.0,0.0,0.0,0.0,0.0,0.0,0.0,0.0,0.0,0.0,0.0,0.0,0.0,0.0,0.0,0.0,0.0,1.2374,1.2949,1.3902,1.4143,1.4595,1.5509,1.5612,1.5557,1.5384,1.3878,0.0,0.0,0.0,0.0,0.0,0.0,0.0,0.0,0.0,0.0,0.0,0.0,0.0,0.0,0.0,0.0,0.0,0.0,0.0,0.0,0.0,0.0,0.0,0.0,0.0,0.0,0.0,0.0,0.0,0.0,0.0,0.0,0.0,0.0,0.0,0.0,0.0,0.0,0.0,0.0,0.0,0.0,0.0,0.0,0.0,0.0,0.0,0.0,0.0,0.0,0.0,0.0,0.0,0.0,0.0,0.0,0.0,0.0,0.0,0.0,0.0,0.0,0.0,0.0,0.0,0.0,0.0,0.0,0.0,0.0,0.0,0.0,0.0,0.0,0.0,0.0,0.0,0.0,0.0,0.0,0.0,0.0,0.0,0.0,0.0,0.0,0.0,0.0,0.0,0.0,0.0,0.0,0.0,0.0,0.0,0.0,0.0,0.0,0.0,0.0,0.0,0.0,1.2918,1.3935,1.4572,1.5152,1.5498,1.5576,1.5663,1.5472,1.4982,1.3384,0.0,0.0,0.0,0.0,0.0,0.0,0.0,0.0,0.0,0.0,0.0,0.0,0.0,0.0,0.0,0.0,0.0,0.0,0.0,0.0,0.0,0.0,0.0,0.0,0.0,0.0,0.0,0.0,0.0,0.0,0.0,0.0,0.0,0.0,0.0,0.0,0.0,0.0,0.0,0.0,0.0,0.0,0.0,0.0,0.0,0.0,0.0,0.0,0.0,0.0,0.0,0.0,0.0,0.0,0.0,0.0,0.0,0.0,0.0,0.0,0.0,0.0,0.0,0.0,0.0,0.0,0.0,0.0,0.0,0.0,0.0,0.0,0.0,0.0,0.0,0.0,0.0,0.0,0.0,0.0,0.0,0.0,0.0,0.0,0.0,0.0,0.0,0.0,0.0,0.0,0.0,0.0,0.0,0.0,0.0,0.0,0.0,0.0,0.0,0.0,0.0,0.0,1.3553,1.4686,0.0,1.5772,1.6126,1.6165,1.6496,1.618,1.4988,0.0,0.0,0.0,0.0,0.0,0.0,0.0,0.0,0.0,0.0,0.0,0.0,0.0,0.0,0.0,0.0,0.0,0.0,0.0,0.0,0.0,0.0,0.0,0.0,0.0,0.0,0.0,0.0,0.0,0.0,0.0,0.0,0.0,0.0,0.0,0.0,0.0,0.0,0.0,0.0,0.0,0.0,0.0,0.0,0.0,0.0,0.0,0.0,0.0,0.0,0.0,0.0,0.0,0.0,0.0,0.0,0.0,0.0,0.0,0.0,0.0,0.0,0.0,0.0,0.0,0.0,0.0,0.0,0.0,0.0,0.0,0.0,0.0,0.0,0.0,0.0,0.0,0.0,0.0,0.0,0.0,0.0,0.0,0.0,0.0,0.0,0.0,0.0,0.0,0.0,0.0,0.0,0.0,0.0,0.0,0.0,0.0,0.0,0.0,0.0,0.0,0.0,1.2816,1.4228,1.5372,0.0,1.649,1.6662,1.6518,1.6835,1.6487,1.5175,0.0,0.0,0.0,0.0,0.0,0.0,0.0,0.0,0.0,0.0,0.0,0.0,0.0,0.0,0.0,0.0,0.0,0.0,0.0,0.0,0.0,0.0,0.0,0.0,0.0,0.0,0.0,0.0,0.0,0.0,0.0,0.0,0.0,0.0,0.0,0.0,0.0,0.0,0.0,0.0,0.0,0.0,0.0,0.0,0.0,0.0,0.0,0.0,0.0,0.0,0.0,0.0,0.0,0.0,0.0,0.0,0.0,0.0,0.0,0.0,0.0,0.0,0.0,0.0,0.0,0.0,0.0,0.0,0.0,0.0,0.0,0.0,0.0,0.0,0.0,0.0,0.0,0.0,0.0,0.0,0.0,0.0,0.0,0.0,0.0,0.0,0.0,0.0,0.0,0.0,0.0,0.0,0.0,0.0,0.0,0.0,0.0,0.0,0.0,0.0,0.0,0.0,1.3863,1.4971,1.602,1.7262,1.7412,1.7186,1.6561,1.6528,1.6249,0.0,0.0,0.0,0.0,0.0,0.0,0.0,0.0,0.0,0.0,0.0,0.0,0.0,0.0,0.0,0.0,0.0,0.0,0.0,0.0,0.0,0.0,0.0,0.0,0.0,0.0,0.0,0.0,0.0,0.0,0.0,0.0,0.0,0.0,0.0,0.0,0.0,0.0,0.0,0.0,0.0,0.0,0.0,0.0,0.0,0.0,0.0,0.0,0.0,0.0,0.0,0.0,0.0,0.0,0.0,0.0,0.0,0.0,0.0,0.0,0.0,0.0,0.0,0.0,0.0,0.0,0.0,0.0,0.0,0.0,0.0,0.0,0.0,0.0,0.0,0.0,0.0,0.0,0.0,0.0,0.0,0.0,0.0,0.0,0.0,0.0,0.0,0.0,0.0,0.0,0.0,0.0,0.0,0.0,0.0,0.0,0.0,0.0,0.0,0.0,0.0,0.0,0.0,0.0,1.6074,1.754,1.7918,1.8292,1.8307,1.7748,1.7992,1.7579,1.6136,0.0,0.0,0.0,0.0,0.0,0.0,0.0,0.0,0.0,0.0,0.0,0.0,0.0,0.0,0.0,0.0,0.0,0.0,0.0,0.0,0.0,0.0,0.0,0.0,0.0,0.0,0.0,0.0,0.0,0.0,0.0,0.0,0.0,0.0,0.0,0.0,0.0,0.0,0.0,0.0,0.0,0.0,0.0,0.0,0.0,0.0,0.0,0.0,0.0,0.0,0.0,0.0,0.0,0.0,0.0,0.0,0.0,0.0,0.0,0.0,0.0,0.0,0.0,0.0,0.0,0.0,0.0,0.0,0.0,0.0,0.0,0.0,0.0,0.0,0.0,0.0,0.0,0.0,0.0,0.0,0.0,0.0,0.0,0.0,0.0,0.0,0.0,0.0,0.0,0.0,0.0,0.0,0.0,0.0,0.0,0.0,0.0,0.0,0.0,0.0,0.0,0.0,1.433,1.6476,1.8029,1.8469,1.8807,1.8772,1.8238,1.8633,1.822,1.6629,0.0,0.0,0.0,0.0,0.0,0.0,0.0,0.0,0.0,0.0,0.0,0.0,0.0,0.0,0.0,0.0,0.0,0.0,0.0,0.0,0.0,0.0,0.0,0.0,0.0,0.0,0.0,0.0,0.0,0.0,0.0,0.0,0.0,0.0,0.0,0.0,0.0,0.0,0.0,0.0,0.0,0.0,0.0,0.0,0.0,0.0,0.0,0.0,0.0,0.0,0.0,0.0,0.0,0.0,0.0,0.0,0.0,0.0,0.0,0.0,0.0,0.0,0.0,0.0,0.0,0.0,0.0,0.0,0.0,0.0,0.0,0.0,0.0,0.0,0.0,0.0,0.0,0.0,0.0,0.0,0.0,0.0,0.0,0.0,0.0,0.0,0.0,0.0,0.0,0.0,0.0,0.0,0.0,0.0,0.0,0.0,0.0,0.0,0.0,0.0,0.0,0.0,1.4845,1.6504,1.7885,1.8958,1.9145,1.8969,1.8484,1.8836,1.852,1.7248,0.0,0.0,0.0,0.0,0.0,0.0,0.0,0.0,0.0,0.0,0.0,0.0,0.0,0.0,0.0,0.0,0.0,0.0,0.0,0.0,0.0,0.0,0.0,0.0,0.0,0.0,0.0,0.0,0.0,0.0,0.0,0.0,0.0,0.0,0.0,0.0,0.0,0.0,0.0,0.0,0.0,0.0,0.0,0.0,0.0,0.0,0.0,0.0,0.0,0.0,0.0,0.0,0.0,0.0,0.0,0.0,0.0,0.0,0.0,0.0,1.9149,0.0,0.0,0.0,0.0,0.0,0.0,0.0,0.0,0.0,0.0,0.0,0.0,0.0,0.0,0.0,0.0,0.0,0.0,0.0,0.0,0.0,0.0,0.0,0.0,0.0,0.0,0.0,0.0,0.0,0.0,0.0,0.0,0.0,0.0,0.0,0.0,0.0,0.0,0.0,0.0,0.0,1.5406,1.7364,1.8884,1.9559,2.0116,2.0357,2.0252,2.029,1.9977,1.9144,0.0,0.0,0.0,0.0,0.0,0.0,0.0,0.0,0.0,0.0,0.0,0.0,0.0,0.0,0.0,0.0,0.0,0.0,0.0,0.0,0.0,0.0,0.0,0.0,0.0,0.0,0.0,0.0,0.0,0.0,0.0,0.0,0.0,0.0,0.0,0.0,0.0,0.0,0.0,0.0,0.0,0.0,0.0,0.0,0.0,0.0,0.0,0.0,0.0,0.0,0.0,0.0,0.0,0.0,0.0,0.0,0.0,0.0,0.0,0.0,0.0,2.042,0.0,0.0,0.0,0.0,0.0,0.0,0.0,0.0,0.0,0.0,0.0,0.0,0.0,0.0,0.0,0.0,0.0,0.0,0.0,0.0,0.0,0.0,0.0,0.0,0.0,0.0,0.0,0.0,0.0,0.0,0.0,0.0,0.0,0.0,0.0,0.0,0.0,0.0,0.0,0.0,1.5578,1.7618,1.9346,2.0194,2.0584,2.0922,2.1215,2.119,2.0776,1.9752,1.8424,0.0,0.0,0.0,0.0,0.0,0.0,0.0,0.0,0.0,0.0,0.0,0.0,0.0,0.0,0.0,0.0,0.0,0.0,0.0,0.0,0.0,0.0,0.0,0.0,0.0,0.0,0.0,0.0,0.0,0.0,0.0,0.0,0.0,0.0,0.0,0.0,0.0,0.0,0.0,0.0,0.0,0.0,0.0,0.0,0.0,0.0,0.0,0.0,0.0,0.0,0.0,0.0,0.0,2.6022,2.604,2.6482,2.7141,2.7141,2.653,2.4926,2.3781,2.2992,0.0,0.0,0.0,0.0,0.0,0.0,0.0,0.0,0.0,0.0,0.0,0.0,0.0,0.0,0.0,0.0,0.0,0.0,0.0,0.0,0.0,0.0,0.0,0.0,0.0,2.2528,2.1931,0.0,0.0,0.0,0.0,0.0,0.0,0.0,0.0,0.0,0.0,0.0,0.0,1.5869,1.7934,1.9683,2.0681,2.1005,2.1332,2.1842,2.1874,2.1414,2.0299,1.9361,1.8272,0.0,0.0,0.0,0.0,0.0,0.0,0.0,0.0,0.0,0.0,0.0,0.0,0.0,0.0,0.0,0.0,0.0,0.0,0.0,0.0,0.0,0.0,0.0,0.0,0.0,0.0,0.0,0.0,0.0,0.0,0.0,0.0,2.1051,2.0905,0.0,0.0,0.0,0.0,0.0,0.0,0.0,0.0,0.0,0.0,0.0,0.0,0.0,2.4365,2.4986,2.6871,2.7692,2.7435,2.9581,3.0315,2.9894,3.0554,3.0823,3.0703,3.0464,0.0,2.4335,2.4246,0.0,0.0,0.0,0.0,0.0,0.0,0.0,0.0,0.0,0.0,0.0,0.0,0.0,0.0,0.0,0.0,0.0,0.0,0.0,0.0,0.0,0.0,2.3235,2.3344,2.3417,2.3319,0.0,2.0675,1.8515,1.7214,1.6234,0.0,0.0,0.0,0.0,0.0,0.0,0.0,1.7075,1.9118,2.0617,2.0783,2.1774,2.2495,2.2556,2.2558,2.25,2.2313,2.0576,1.9471,1.9265,1.7533,0.0,0.0,0.0,0.0,0.0,0.0,0.0,0.0,0.0,0.0,0.0,0.0,0.0,0.0,0.0,0.0,0.0,0.0,0.0,0.0,0.0,0.0,0.0,0.0,0.0,0.0,0.0,0.0,0.0,2.1458,2.2754,2.2442,2.3013,2.2911,0.0,0.0,0.0,0.0,0.0,0.0,0.0,0.0,0.0,2.5818,2.6512,2.7338,2.8325,2.9611,3.0269,3.0372,3.1525,3.2123,3.2198,3.2482,3.2632,3.2632,3.2632,3.1256,2.8923,2.7457,2.5644,2.3811,0.0,0.0,0.0,0.0,2.4219,2.4418,2.5069,2.5518,0.0,2.577,0.0,0.0,0.0,0.0,0.0,0.0,0.0,0.0,0.0,0.0,2.5514,2.6243,2.6135,2.5848,2.5848,2.3926,2.1711,0.0,1.9382,1.8444,1.6618,0.0,0.0,0.0,0.0,0.0,1.8809,2.0552,2.1985,2.2387,2.2932,2.3258,2.3194,2.3201,2.3052,2.2733,2.1864,2.1235,2.0836,1.9241,1.8066,0.0,0.0,0.0,0.0,0.0,0.0,0.0,0.0,0.0,0.0,0.0,0.0,0.0,0.0,0.0,0.0,0.0,0.0,0.0,0.0,0.0,0.0,0.0,0.0,0.0,0.0,0.0,0.0,2.3062,2.415,2.3544,2.4599,2.4653,0.0,0.0,0.0,0.0,0.0,0.0,2.5591,2.641,2.747,2.88,2.9325,3.0133,3.127,3.1944,3.2512,3.3006,3.317,3.3544,3.3993,3.3993,3.3993,3.3993,3.3993,3.3634,3.2826,3.0358,2.8278,2.6686,2.6752,2.6722,2.6764,2.756,2.744,2.6991,2.7991,2.8244,2.8064,2.7735,0.0,2.6063,2.444,0.0,0.0,0.0,0.0,2.4194,2.5453,2.6569,2.7632,2.862,2.847,2.8094,2.8094,2.6811,2.4993,0.0,2.2293,2.1575,1.9642,0.0,0.0,0.0,0.0,2.0748,2.0738,2.2148,2.3342,2.3909,2.4106,2.41,2.3865,2.3879,2.358,2.2972,2.2793,2.2493,2.1974,2.0836,1.9818,1.8972,0.0,0.0,0.0,0.0,0.0,0.0,0.0,0.0,0.0,0.0,0.0,0.0,0.0,0.0,0.0,0.0,0.0,0.0,0.0,0.0,0.0,0.0,0.0,0.0,0.0,0.0,0.0,0.0,0.0,2.3827,2.6067,0.0,0.0,0.0,0.0,2.6,2.688,2.7692,2.8368,2.9594,3.0881,3.2213,3.2303,3.2647,3.3335,3.4009,3.4384,3.4398,3.504,3.537,3.54,3.54,3.54,3.54,3.54,3.5011,3.4248,3.2213,3.1271,3.1092,3.0285,3.0464,3.1182,3.1241,3.0837,3.0253,3.0342,2.9997,2.9698,3.0867,2.9956,2.8308,2.7585,2.6093,0.0,0.0,2.6469,2.687,2.8092,2.8923,2.9458,2.9518,2.9518,2.9502,2.9502,2.8919,2.7607,0.0,2.3928,2.332,2.2761,0.0,2.2521,2.1911,2.2341,2.275,2.2754,2.3834,2.4603,2.4648,2.5159,2.5239,2.4593,2.4545,2.4276,2.361,2.3032,2.2673,2.2643,2.1974,2.0986,1.9678,1.9549,0.0,0.0,0.0,0.0,0.0,0.0,0.0,0.0,0.0,0.0,0.0,0.0,0.0,0.0,0.0,0.0,0.0,0.0,0.0,0.0,0.0,0.0,0.0,0.0,0.0,0.0,0.0,0.0,2.7827,2.9551,0.0,2.9311,2.9437,2.9781,3.0206,3.0646,3.1398,3.2526,3.2489,3.3065,3.4437,3.4045,3.4113,3.4771,3.5011,3.513,3.513,3.54,3.5519,3.5519,3.5519,3.5519,3.5519,3.5519,3.537,3.507,3.4366,3.3738,3.317,3.2542,3.2691,3.32,3.2901,3.2647,3.2437,3.2437,3.2287,3.2108,3.2123,3.1361,3.0404,3.0179,2.9637,2.9201,2.9616,2.9786,2.9927,3.0333,3.0658,3.0807,3.0807,3.0478,3.0177,3.0177,2.9698,2.8949,2.8008,2.6584,2.5209,2.4152,2.4336,2.4282,2.3275,2.3945,2.4576,2.4626,2.5338,2.5865,2.5933,2.6135,2.5974,2.5304,2.4844,2.4515,2.4257,2.364,2.3291,2.3291,2.2662,2.1924,2.1016,2.0157,1.8583,0.0,0.0,0.0,0.0,0.0,0.0,0.0,0.0,0.0,0.0,0.0,0.0,0.0,0.0,0.0,0.0,0.0,0.0,0.0,0.0,0.0,0.0,0.0,0.0,0.0,0.0,2.9863,3.018,3.2106,3.3032,3.205,3.2299,3.2826,3.3528,3.3646,3.4195,3.5388,3.5142,3.5396,3.6305,3.5615,3.555,3.6274,3.5764,3.5619,3.5878,3.5619,3.5519,3.5519,3.5519,3.5519,3.5519,3.5519,3.5519,3.5519,3.5519,3.516,3.4622,3.4292,3.4352,3.4592,3.4292,3.4173,3.4143,3.3919,3.3829,3.3739,3.3066,3.2542,3.2168,3.2168,3.2168,3.2168,3.2168,3.2168,3.2168,3.2168,3.2168,3.2168,3.2168,3.1675,3.1166,3.1166,3.0672,3.0163,2.9967,2.865,2.732,2.644,2.6662,2.6659,2.5832,2.6376,2.6831,2.6652,2.6964,2.715,2.6954,2.6944,2.6674,2.6004,2.5334,2.4844,2.4593,2.3958,2.352,2.3291,2.2912,2.2283,2.1365,2.0268,1.9031,1.772,0.0,0.0,0.0,0.0,0.0,0.0,0.0,0.0,0.0,0.0,0.0,0.0,0.0,0.0,0.0,0.0,0.0,0.0,0.0,0.0,0.0,0.0,0.0,2.7335,2.965,3.121,3.071,3.3697,3.5264,3.3765,3.4329,3.5078,3.5778,3.5745,3.6065,3.6878,3.7481,3.7822,3.7883,3.7086,3.7072,3.7871,3.6398,3.5988,3.6692,3.594,3.5598,3.563,3.5598,3.5598,3.56,3.5568,3.5552,3.5522,3.5519,3.5519,3.5519,3.5519,3.5519,3.5519,3.5519,3.5519,3.54,3.4757,3.4518,3.4428,3.3769,3.3544,3.3544,3.3544,3.3544,3.3544,3.3544,3.3544,3.3544,3.3544,3.3514,3.3514,3.3484,3.3006,3.2512,3.2512,3.2019,3.1361,3.0731,3.0117,2.9668,2.9608,2.9608,2.9608,2.9608,2.9608,0.0,2.8697,2.8637,2.838,2.7705,2.7615,2.7375,2.6704,2.6004,2.5334,2.4653,2.3988,2.3351,2.2763,2.2733,2.2124,2.0787,2.0079,1.9729,1.9729,0.0,0.0,0.0,0.0,0.0,0.0,0.0,0.0,0.0,0.0,0.0,0.0,0.0,0.0,0.0,0.0,0.0,0.0,0.0,0.0,0.0,0.0,3.0408,3.0796,3.2471,3.4174,3.5665,3.7638,3.8731,3.8294,3.8929,3.9237,3.8925,3.8327,3.8354,3.9167,3.8302,3.832,3.942,3.8704,3.8633,3.9398,3.8976,3.8869,3.9067,3.8214,3.8135,3.873,3.8118,3.7871,3.7929,3.7343,3.6783,3.6275,3.5718,3.5519,3.5519,3.5519,3.5519,3.5519,3.5519,3.5519,3.5473,3.528,3.522,3.519,3.5011,3.4951,3.4951,3.4951,3.4951,3.4951,3.4951,3.4951,3.4831,3.4338,3.4218,3.4099,3.362,3.3365,3.3215,3.3215,3.3095,3.2916,3.2706,3.2138,3.124,2.9847,2.9608,2.9608,2.9608,2.9608,0.0,2.9338,2.9338,2.9069,2.841,2.8321,2.8051,2.7375,2.6243,2.5513,2.5334,2.4238,2.3531,2.3351,2.3351,2.2962,2.2164,2.1006,2.0438,0.0,0.0,0.0,0.0,0.0,0.0,0.0,0.0,0.0,0.0,0.0,0.0,0.0,0.0,0.0,0.0,0.0,0.0,0.0,0.0,0.0,0.0,3.207,3.3525,3.4923,3.5566,3.6637,3.8599,3.9863,4.0574,4.0574,4.0686,4.0566,4.0121,3.9668,3.9741,4.0502,3.9999,4.0084,4.0988,4.0258,4.0225,4.0949,4.0336,4.0172,4.0469,3.964,3.9516,3.9991,3.9485,3.9279,0.0,3.8498,3.7887,3.742,3.663,3.6297,0.0,0.0,0.0,0.0,0.0,3.5519,3.5519,3.5519,3.5519,3.5519,3.5519,3.5519,3.5519,3.5519,3.5519,3.5519,3.5519,3.5519,3.54,3.5011,3.4937,3.4817,3.4442,3.4113,3.3919,3.3919,3.3709,3.3484,3.3484,3.3185,0.0,3.1434,3.0761,3.0402,3.0402,3.0402,3.0283,3.0013,2.9997,2.9728,2.9099,2.8757,2.8427,2.8051,2.6782,0.0,0.0,0.0,2.3789,2.3261,2.2951,0.0,0.0,0.0,0.0,0.0,0.0,0.0,0.0,2.0519,2.0627,0.0,0.0,0.0,0.0,0.0,0.0,0.0,0.0,0.0,0.0,0.0,0.0,0.0,0.0,0.0,0.0,3.4968,3.6625,3.8802,3.8565,3.8633,3.9931,4.0743,4.117,4.1068,4.0642,4.03,4.0231,4.0294,4.0647,4.13,0.0,0.0,0.0,0.0,4.1808,4.2557,4.1198,4.0877,4.1565,4.0759,4.0412,4.0503,4.0412,4.038,4.0361,3.9487,3.906,3.8902,3.795,3.749,3.7268,3.6088,3.5609,3.5609,3.5519,3.5519,3.5519,3.5519,0.0,0.0,3.5519,3.5519,3.5519,3.5519,3.5519,3.5519,3.5519,3.5519,3.5519,3.5519,3.5519,3.5519,3.5519,3.5056,3.4607,3.4607,3.4158,3.3724,3.3724,3.3664,3.3604,3.3604,3.2572,3.169,3.163,3.16,3.1361,3.0687,3.0598,3.0372,2.9758,0.0,0.0,2.8727,2.756,2.6794,2.6704,2.5453,2.4197,2.3062,2.2453,2.2712,2.3909,2.3939,2.4567,2.5824,2.5824,2.5872,2.5872,2.34,2.3191,0.0,0.0,0.0,0.0,0.0,0.0,0.0,0.0,0.0,0.0,0.0,0.0,0.0,0.0,0.0,3.5633,3.6874,3.8024,3.966,3.9762,3.9762,4.0079,4.0743,4.0967,4.0371,4.1268,4.1647,4.1022,4.1538,4.193,4.2083,4.2232,4.2557,4.3152,4.3063,4.3333,4.4161,4.3875,4.3771,4.3931,0.0,0.0,4.3685,4.2965,4.2679,4.2691,4.1943,4.1277,4.059,3.9077,3.8019,3.7345,3.6596,3.6314,3.6254,3.5699,3.5519,3.5519,3.5519,3.5519,3.5519,3.5519,3.5519,3.5519,3.5519,3.5519,0.0,3.5519,3.5519,3.5519,3.5519,3.5519,3.5519,3.5519,3.54,3.531,3.531,3.519,3.51,3.51,3.4697,3.4308,3.4308,3.3649,3.2946,3.2392,3.2303,3.2049,3.1391,3.1301,3.1032,3.0402,3.0223,2.9953,2.9458,2.8667,2.7991,2.7435,2.6153,2.5304,2.5046,2.4915,2.5226,2.6015,2.6015,2.6405,2.7225,2.7225,2.7482,2.7979,2.6405,2.5854,0.0,0.0,0.0,0.0,0.0,0.0,0.0,0.0,0.0,0.0,0.0,3.0065,3.1968,0.0,3.5306,3.7528,3.851,3.9254,4.0011,4.0113,4.0235,4.0608,4.1305,4.161,4.1251,4.2185,4.2557,4.1813,4.2422,4.2861,4.2861,4.3247,4.3619,4.3978,4.4012,4.4181,4.4615,4.4615,4.4615,4.4601,4.415,4.4198,4.4601,4.4136,4.3963,4.397,4.3144,4.2576,4.2114,4.0419,3.9178,3.8344,3.7704,3.7255,3.6896,3.6567,3.6447,3.6447,3.6447,3.6447,3.6417,3.6088,3.5998,3.5938,3.5609,3.5519,3.5519,3.5519,3.5519,3.5519,3.5519,3.5519,3.5519,3.5519,3.5519,3.5519,3.5519,3.5519,3.5519,3.5519,3.522,3.4997,3.4997,3.4711,3.4173,3.3155,3.2691,3.2392,3.2019,3.172,3.1361,3.1046,3.0687,3.0372,3.0087,2.9488,2.883,2.8141,2.747,2.6961,2.6614,2.6614,2.6914,2.759,2.759,2.7931,2.8603,2.8603,2.9099,3.0029,2.9371,2.8727,0.0,0.0,0.0,0.0,0.0,0.0,0.0,0.0,2.8256,2.9948,3.1336,3.2892,3.4821,3.6276,3.7664,3.9017,3.9694,4.0146,4.0269,4.0303,4.054,4.1136,4.1711,4.213,4.23,4.2963,4.3152,4.2557,4.32,4.3626,4.3626,4.4262,4.4615,4.4615,4.4615,4.4615,4.4615,4.4615,4.4615,4.4615,4.4615,4.4615,4.4615,4.4615,4.4615,4.4573,4.3875,4.3472,4.3169,4.1593,4.0447,3.957,3.8882,3.8272,3.7764,3.7494,3.7387,3.7387,3.7387,3.7387,3.7315,3.6836,3.6656,3.6567,3.6028,3.5789,3.5699,3.5699,3.5609,3.5519,3.5519,3.5519,3.5519,3.5519,3.5519,3.5519,3.5519,3.5519,3.5519,3.5519,3.5519,3.5519,3.5519,3.5519,3.51,3.3889,3.3245,3.2856,3.2691,3.2213,3.1839,3.172,3.1226,3.0851,3.0702,3.0133,2.9548,2.8996,2.8846,2.856,2.8004,2.7974,2.8291,2.8966,2.8966,2.9355,3.0177,3.0177,3.0846,3.2116,3.2116,3.1473,2.7802,2.7055,2.7004,2.829,2.8078,2.8601,0.0,0.0,3.2283,3.4427,3.5554,3.6445,3.7347,3.8193,3.9017,3.9829,4.0045,4.0337,4.0967,4.1068,4.1102,4.1204,4.1271,4.1576,4.2232,4.2963,4.3389,4.3288,4.4012,4.4465,4.4465,4.4533,4.4615,4.4615,4.4615,4.4615,4.4615,4.4615,4.4615,4.4615,4.4615,4.4615,4.4615,4.4615,4.4615,4.4601,4.4483,4.402,4.3214,4.2269,4.133,4.0468,3.9611,3.9242,3.9032,3.7836,3.7387,3.7387,3.7387,3.7387,3.7404,3.7315,3.7315,3.7285,3.7225,3.6806,3.6404,3.6404,3.5968,3.5519,3.5519,3.5519,3.5519,3.5519,3.5519,3.5519,3.5519,3.5519,3.5519,3.5519,3.5519,3.5519,3.5519,3.5519,3.525,3.4488,3.4308,3.4069,3.3455,3.3335,3.3066,3.2452,3.2333,3.2033,3.1451,3.0777,3.0372,3.0283,2.9788,2.9458,2.9382,2.9382,2.9668,3.0283,3.0283,3.0911,3.2183,3.2183,3.2911,3.4327,3.4327,3.3872,2.9937,2.9228,2.9025,0.0,3.0997,3.1654,3.3975,3.437,3.4731,3.6558,3.755,3.8307,3.9051,3.9423,3.974,0.0,4.0472,4.0832,4.117,4.1576,4.1847,4.1847,4.2219,4.2442,4.23,4.3369,4.4079,4.4079,4.4398,4.4615,4.4615,4.4615,4.4615,4.4615,4.5007,4.5229,4.5229,4.5684,4.5887,4.5887,4.5887,4.5887,4.5887,4.5887,4.5887,4.5887,4.5887,4.5063,4.3719,4.3377,4.2168,4.0479,4.0124,3.972,3.9331,3.8763,3.8554,3.8554,3.8554,3.8554,3.8494,3.8123,3.7973,3.7913,3.7524,3.7225,3.7015,3.7015,3.6567,3.6088,3.6088,3.5789,3.5519,3.5519,3.5519,3.5519,3.5519,3.5519,3.5519,3.5519,3.5519,3.5519,3.5519,3.5519,3.54,3.513,3.4757,3.4398,3.4128,3.3739,3.3395,3.3125,3.3095,3.2976,3.2691,3.2407,3.2258,3.2258,3.2003,3.1883,3.1883,3.1883,3.1988,3.2228,3.2258,3.2527,3.3095,3.3095,3.3834,3.5234,3.5234,3.5494,3.1572,3.1258,0.0,3.2848,3.3772,3.4573,3.5532,3.6163,3.6896,3.8227,3.8949,3.9457,4.0011,4.0113,4.018,4.0371,4.0832,4.1339,4.1732,4.2286,4.2591,4.2591,4.3267,4.3369,4.2388,4.3687,4.4615,4.4615,4.4615,4.4615,4.4615,4.4804,4.4905,4.4905,4.5602,4.6007,4.6007,4.6515,4.68,4.68,4.68,4.68,4.68,4.68,4.68,4.68,4.68,4.5901,4.4427,4.4209,4.2897,4.1006,4.0778,4.0367,3.9948,3.9948,3.972,3.9391,3.9391,3.9391,3.9331,3.8841,3.8691,3.8601,3.8105,3.7823,3.7674,3.7674,3.7225,3.6746,3.6746,3.6387,3.5998,3.5818,3.5789,3.5729,3.5549,3.5519,3.5519,3.5519,3.5519,3.5519,3.5519,3.5519,3.5519,3.5519,3.507,3.4787,3.4787,3.4188,3.3769,3.3769,3.3604,3.3484,3.3484,3.3484,3.3484,3.3484,3.3484,3.3484,3.3484,3.3484,3.3484,3.3484,3.3484,3.3697,3.4076,3.4076,3.4924,3.652,3.652,3.7192,3.2452,3.278,3.3649,3.5137,3.6096,3.7088,3.8543,3.8882,3.9119,3.9876,4.0045,4.0079,4.0113,4.0113,4.0337,4.1035,4.1204,4.1698,4.3118,4.3355,4.3389,4.3389,4.4079,4.3958,0.0,4.3687,4.4615,4.4615,4.4615,4.4615,4.4615,4.5263,4.5669,4.5669,4.638,4.6766,4.6766,4.68,4.68,4.68,4.68,4.68,4.68,4.68,4.68,4.68,4.68,4.624,4.5304,4.4427,4.3513,4.2538,4.17,4.1373,4.1343,4.1343,4.0516,3.9391,3.9391,3.9391,3.9391,3.9391,3.9361,3.9361,3.9361,3.8901,3.8362,3.8362,3.7883,3.7357,3.7357,3.7375,3.7195,3.6613,3.6464,3.6284,3.5639,3.5519,3.5519,3.5519,3.5519,3.5519,3.5519,3.5519,3.5519,3.5519,3.5489,3.5459,3.5459,3.4877,3.4458,3.4458,3.3889,3.3484,3.3484,3.3484,3.3484,3.3484,3.3484,3.3484,3.3484,3.3484,3.3484,3.3484,3.3484,3.4167,3.5547,3.5547,3.6668,3.8807,3.8807,3.9229,3.2814,0.0,3.5239,3.6761,3.7686,3.851,3.9491,3.9728,3.9795,4.0045,4.0113,4.0113,4.0113,4.0113,4.0337,4.1068,4.161,4.2083,4.2591,4.3538,4.3822,4.2794,4.3335,0.0,0.0,0.0,0.0,4.3842,4.4296,4.4804,4.5297,4.5568,4.594,4.6413,4.7158,4.7515,4.7515,4.8037,4.8274,4.8274,4.8274,4.8274,4.8274,4.8274,4.8274,4.8274,4.8274,4.7745,4.6782,4.5848,4.4672,4.3326,4.2402,4.1792,4.1403,4.1403,4.1104,4.0666,4.0217,4.0068,4.0008,3.9541,3.9391,3.9391,3.9391,3.9242,3.9062,3.9062,3.8571,3.8063,3.8063,3.7734,3.7345,3.7135,3.7105,3.6926,3.6297,3.6148,3.6179,3.6225,3.6243,3.6415,3.692,3.701,3.701,3.701,3.6148,3.5519,3.5519,3.531,3.516,3.516,3.4951,3.4831,3.4831,3.5291,3.5554,3.5554,3.6069,3.6351,3.6351,3.6351,3.6351,3.6351,3.6351,3.6578,3.7048,3.7048,3.7676,3.8894,3.8894,3.9328,3.4529,3.5712,3.6794,3.8294,3.9051,3.9553,4.0229,4.0241,4.0142,4.0343,4.0163,3.9907,3.9744,3.963,3.9839,4.0654,4.1441,4.2083,4.2625,4.3538,4.3809,4.2828,4.3118,0.0,0.0,0.0,0.0,4.3457,4.4161,4.4905,4.5669,4.594,4.6447,4.7158,4.7887,4.8293,4.8293,4.8766,4.9018,4.9018,4.9018,4.9018,4.9018,4.9018,4.9018,4.9018,4.9018,4.8482,4.7539,4.6968,4.59,4.4611,4.4001,4.3512,4.3057,4.2746,4.2614,4.2436,4.1186,4.0756,4.0696,4.0247,3.9948,3.9823,4.0136,4.0061,3.992,4.0253,3.9795,3.9217,3.9217,3.8684,3.8045,3.7823,3.7764,3.7584,3.6956,3.7074,3.7288,3.7342,3.7389,3.7597,3.8101,3.7982,3.7807,3.7807,3.6966,3.6227,3.5927,3.5667,3.5603,3.5878,3.5879,3.6006,3.6305,3.6753,3.7024,3.7024,3.7499,3.7807,3.7807,3.7807,3.7807,3.7807,3.7807,3.7937,3.8189,3.8189,3.8566,3.9328,3.9328,3.961,3.7302,3.798,3.8376,3.9778,4.0154,4.0341,4.0827,4.0506,4.0272,4.0735,4.0181,3.9457,3.8996,0.0,3.8917,3.9895,4.073,4.1732,4.3152,4.3423,4.3457,0.0,0.0,0.0,0.0,0.0,0.0,4.3524,0.0,4.4973,4.5737,4.6447,4.7192,4.7921,4.8646,4.9018,4.9018,4.9018,4.9018,4.9018,4.9018,4.9018,4.9018,4.9018,4.9018,4.9018,4.9018,4.8497,4.7688,4.7638,4.7087,4.6261,4.6208,4.6191,4.6085,4.5208,4.4887,4.457,4.2406,4.1595,4.1509,4.1479,4.1066,4.0758,4.1577,4.1362,4.1055,4.1819,4.1459,4.0806,4.0775,4.0135,3.9355,3.873,3.858,3.8399,3.7721,3.823,3.8805,3.8822,3.8946,3.9023,3.9023,3.8372,3.7879,3.7923,3.7851,3.7513,3.6752,3.6054,3.5894,3.66,3.6645,3.6964,3.7749,3.7836,3.7865,3.7865,3.7908,3.7923,3.7923,3.7923,3.7923,3.7923,3.7923,3.826,3.8962,3.8962,3.9342,4.0113,4.0113,4.0113,3.7584,3.8993,4.0238,4.0617,4.1036,4.1408,4.1552,4.0986,4.0337,3.987,3.9147,3.8373,3.7623,0.0,0.0,3.9615,4.1018,0.0,4.2523,4.3572,0.0,0.0,0.0,4.3321,4.3152,4.3457,0.0,0.0,4.4993,4.5737,4.6481,4.721,4.7954,4.8714,4.8917,4.9018,4.9018,4.9018,4.9018,4.9018,4.9018,4.9018,4.9018,4.9018,4.9018,4.9018,4.9018,4.8861,4.8592,4.7885,4.7456,4.7172,4.6471,4.6191,4.6173,4.5925,4.585,4.5768,4.5187,4.4206,4.3088,4.2614,4.2807,4.3278,4.3517,4.3426,4.3221,4.2909,4.2651,4.2343,4.1802,4.1478,4.1282,4.111,4.1078,4.0906,4.0228,4.0246,4.0432,4.054,4.0578,4.0608,4.0608,3.9484,3.8813,3.9428,3.8544,3.7735,3.7513,3.7339,3.7294,3.7455,3.7484,3.7589,3.7793,3.8302,3.8621,3.8621,3.9169,3.9506,3.9506,3.9506,3.9506,3.9506,3.9506,3.9597,3.9778,3.9778,3.9901,4.0113,4.0113,4.0113,3.8926,4.0239,4.1284,4.1284,4.1527,4.1686,4.1192,4.0578,3.9701,3.8444,3.7822,0.0,3.5671,3.6972,0.0,0.0,0.0,0.0,4.3012,4.3657,4.4,0.0,4.3593,0.0,4.3389,4.3998,4.4621,0.0,4.5466,4.6162,4.7225,4.7684,4.8225,4.8984,4.9018,4.9018,4.9018,4.9018,4.9018,4.9018,4.9018,4.9018,4.9018,4.9018,4.9018,4.9018,0.0,4.9018,4.8938,4.845,4.8209,4.8161,4.7622,4.7423,4.7373,4.6985,4.6799,4.6748,4.6331,4.5882,4.5341,4.4555,4.4452,4.4711,4.5079,4.5016,4.4756,4.4716,4.4459,4.3977,4.3247,4.2783,4.2398,4.2094,4.1981,4.1901,4.1533,4.1735,4.203,4.2162,4.2152,4.207,4.1745,4.0708,4.0053,4.051,3.9575,3.8805,3.8805,3.8236,3.7937,3.8246,3.8274,3.8414,3.8778,3.9183,3.942,3.942,3.9863,4.0113,4.0113,4.0113,4.0113,4.0113,4.0113,4.0113,4.0113,4.0113,4.0113,4.0113,4.0113,4.0113,4.0665,4.144,4.1952,4.2069,4.205,4.1752,4.0708,3.9871,3.875,3.6774,0.0,3.5493,3.3648,3.5637,3.7477,3.7241,0.0,4.2521,4.3915,4.3828,4.3878,4.459,4.4138,4.3803,4.381,4.5032,4.5871,4.5974,4.5993,4.6534,4.7819,4.7988,4.8326,4.8984,4.9018,4.9018,4.9018,4.9018,4.9018,4.9018,4.9018,4.9018,4.9018,4.9018,4.9018,4.9018,4.9018,0.0,4.9018,4.9018,4.9018,4.9018,4.9018,4.9018,4.8892,4.8096,4.7786,4.7688,4.6833,4.7104,4.7638,4.6679,4.607,4.5841,4.6585,4.6413,4.6087,4.6743,4.6389,4.5666,4.4907,4.4164,4.3428,4.2799,4.2557,4.2492,4.2492,4.3021,4.3481,4.3535,4.349,4.3186,4.2557,4.1847,4.1339,4.1339,4.0811,4.035,4.0282,3.8993,3.8344,3.8975,3.9056,3.9342,4.0028,4.0113,4.0113,4.0113,4.0113,4.0113,4.0113,4.0113,4.0113,4.0113,4.0113,4.0113,4.0113,4.0113,4.0146,4.0248,4.0248,4.0316,4.1555,4.2072,4.2701,4.3368,4.3364,4.2985,4.215,4.0336,0.0,0.0,3.4219,3.3175,3.2807,3.4413,3.6253,3.7487,0.0,0.0,0.0,0.0,4.5175,0.0,0.0,0.0,0.0,0.0,0.0,0.0,0.0,4.7616,4.7887,4.8462,4.8883,4.9018,4.9018,4.9018,4.9018,4.9018,4.9018,4.9018,4.9018,4.9018,4.9018,4.9018,4.9018,4.9018,4.9018,0.0,4.9018,4.9018,4.9018,4.9018,4.9018,4.9018,4.9003,4.8829,4.8767,4.8751,4.8576,4.8608,4.8592,4.7671,4.7785,4.8359,4.8518,4.8479,4.8308,4.7857,4.7593,4.7319,4.6593,4.6268,4.6129,4.5995,4.5511,4.5075,4.5075,4.4707,4.4378,4.437,4.3842,4.3355,4.322,4.2591,4.2117,4.2117,4.1995,4.169,4.1102,4.022,3.976,3.9876,3.9901,3.9952,4.01,4.0113,4.0113,4.0113,4.0113,4.0113,4.0113,4.0113,4.0113,4.0113,4.0113,4.0113,4.0113,4.0113,4.0405,4.1001,4.1001,4.1339,4.2272,4.2667,4.3306,4.4107,4.3587,4.2433,4.0818,0.0,0.0,0.0,3.2222,3.1715,3.0895,0.0,0.0,0.0,0.0,0.0,0.0,0.0,0.0,0.0,0.0,0.0,0.0,0.0,0.0,0.0,0.0,4.8462,4.8462,4.88,4.9018,4.9018,4.9018,4.9018,4.9018,4.9018,4.9018,4.9018,4.9018,4.9018,4.9018,4.9018,4.9018,4.9018,4.9018,0.0,4.9018,4.9018,4.9018,4.9018,4.9018,4.9018,4.9018,4.9018,4.9018,4.9018,4.9018,4.9018,4.8923,4.8482,4.8624,4.9018,4.9018,4.9018,4.8951,4.8563,4.8462,4.8293,4.7549,4.7361,4.7293,4.6887,4.6244,4.5703,4.5703,4.5142,4.4615,4.4615,4.4296,4.4012,4.4012,4.3369,4.2861,4.2861,4.2557,4.2164,4.1813,4.1454,4.0946,4.018,4.0113,4.0113,4.0113,4.0113,4.0113,4.0113,4.0113,4.0113,4.0113,4.0113,4.0282,4.0675,4.0675,4.0878,4.1251,4.1251,4.142,4.1779,4.1779,4.1948,4.3073,4.3324,4.369,4.4516,4.3489,4.1662,3.9232,3.7331,0.0,0.0,3.0577,3.054,2.9464,0.0,3.4454,0.0,3.7277,0.0,0.0,0.0,0.0,0.0,0.0,0.0,0.0,0.0,0.0,0.0,0.0,0.0,4.9018,4.9018,4.9018,4.9018,4.9018,4.9018,4.9018,4.9018,4.9018,4.9018,4.9018,4.9018,4.9018,4.9018,4.9018,4.9018,4.9018,0.0,0.0,4.9018,4.9018,4.9018,4.9018,4.9018,4.9018,4.9018,4.9018,4.9018,4.9018,4.9018,4.9018,4.9018,4.9018,4.9018,4.9018,4.9018,4.9018,4.9018,4.9018,4.8883,4.8293,4.8157,4.7954,4.7225,4.6583,4.6128,4.5974,4.5481,4.5007,4.4871,4.4838,4.4804,4.4635,4.4079,4.366,4.366,4.3166,4.274,4.2557,4.2523,4.2029,4.0709,4.0574,4.0574,4.0574,4.0574,4.0574,4.0574,4.0574,4.0574,4.0574,4.0574,4.0844,4.1407,4.1441,4.1711,4.23,4.23,4.2401,4.2523,4.2523,4.2625,4.4307,4.4013,4.369,4.4516,4.3489,4.1662,3.9232,0.0,0.0,3.0864,2.969,2.939,2.9983,3.098,3.2712,3.5716,3.7624,3.9844,0.0,0.0,0.0,0.0,0.0,0.0,0.0,0.0,0.0,0.0,0.0,0.0,4.9015,4.9018,4.9018,4.9018,4.9018,4.9018,4.9018,4.9018,4.9018,4.9018,4.9018,4.9018,4.9018,4.9018,4.9018,4.9018,4.9018,0.0,0.0,4.9018,4.9018,4.9018,4.9018,4.9018,4.9018,4.9018,4.9018,4.9018,4.9018,4.9018,4.9018,4.9018,4.9018,4.9018,4.9018,4.9018,4.9018,4.9018,4.9018,4.8984,4.8917,4.8917,4.8714,4.7954,4.7752,4.7515,4.6853,4.6665,4.6394,4.5737,4.5602,4.5399,4.4716,4.4533,4.4499,4.4499,4.4432,4.4127,4.3389,4.3288,4.2983,4.2198,4.2097,4.2097,4.2097,4.2097,4.2097,4.2097,4.2097,4.2097,4.2097,4.2097,4.213,4.2198,4.2198,4.2232,4.23,4.23,4.2625,4.3288,4.3288,4.3707,4.3754,4.3726,4.369,4.4516,4.3122,4.0956,3.855,0.0,3.336,3.0124,2.9207,2.9097,2.9427,3.013,3.1421,3.369,3.4608,3.6479,4.0752,0.0,0.0,0.0,0.0,0.0,0.0,0.0,0.0,0.0,0.0,0.0,5.0286,4.9447,4.9018,4.9018,4.9018,4.9018,4.9018,4.9018,4.9018,4.9018,4.9018,4.9018,4.9018,4.9018,4.9018,4.9018,4.9018,0.0,0.0,4.9018,4.9018,4.9018,4.9018,4.9018,4.9018,4.9018,4.9018,4.9018,4.9018,4.9018,4.9018,4.9018,4.9018,4.9018,4.9018,4.9018,4.9018,4.9018,4.9018,4.9018,4.9018,4.9018,4.8951,4.8631,4.8225,4.7819,4.7515,4.7124,4.6733,4.6413,4.6346,4.6109,4.5399,4.5263,4.5094,4.4682,4.4615,4.4465,4.4147,4.4113,4.4025,4.3721,4.2841,4.23,4.23,4.23,4.23,4.23,4.23,4.23,4.23,4.23,4.2489,4.2949,4.2949,4.32,4.3687,4.3687,4.3856,4.4113,4.4113,4.4296,4.3212,4.3506,4.3653,4.4195,4.2535,4.012,0.0,3.5245,3.2589,2.961,2.8981,2.8981,2.8981,2.9653,3.0717,3.2332,3.3213,3.5165,3.9321,4.0495,0.0,0.0,0.0,0.0,0.0,0.0,0.0,0.0,0.0,0.0,5.1112,5.016,4.9521,4.9301,4.9107,4.9018,4.9018,4.9018,4.9018,4.9018,4.9018,4.9018,4.9018,4.9018,4.9018,4.9018,4.9018,0.0,0.0,4.9018,4.9018,4.9018,4.9018,4.912,4.9323,4.9323,4.9458,4.9661,4.9661,4.9661,4.9627,4.939,4.9323,4.9289,4.9086,4.9018,4.9018,4.9018,4.9018,4.9018,4.9018,4.9018,4.9018,4.9018,4.8597,4.8225,4.8225,4.7834,4.7394,4.7158,4.7124,4.6887,4.6143,4.6041,4.5838,4.5311,4.5244,4.5176,4.4939,4.4939,4.4838,4.4615,4.3619,4.2976,4.2976,4.2976,4.2976,4.2976,4.2976,4.2976,4.2976,4.2976,4.32,4.3727,4.3761,4.4045,4.4615,4.4615,4.4615,4.4615,4.4804,4.5041,4.3065,4.3506,4.3506,4.3506,4.1707,3.9284,3.6861,3.4387,3.1922,2.95,2.8981,2.8981,2.8981,2.9653,3.0717,3.2332,3.4651,3.7118,3.9578,4.1964,0.0,0.0,0.0,0.0,0.0,0.0,0.0,0.0,0.0,0.0,5.1138,5.1086,5.0743,5.0019,4.9361,4.9018,4.9018,4.9018,4.9018,4.9018,4.9018,4.9018,4.9018,4.9018,4.9018,0.0,0.0,0.0,0.0,4.9018,4.9018,4.9018,4.9018,4.9458,5.0083,5.0083,5.0541,5.1167,5.1167,5.1167,5.1066,5.0338,5.0083,4.9947,4.9221,4.9018,4.9018,4.9018,4.9018,4.9018,4.9018,4.9018,4.9018,4.9018,4.8984,4.8984,4.8984,4.8984,4.8766,4.8022,4.7887,4.765,4.6936,4.68,4.68,4.68,4.68,4.6515,4.5771,4.5703,4.5399,4.4668,4.4581,4.4567,4.4567,4.4567,4.4567,4.4567,4.4567,4.4567,4.4567,4.4567,4.4567,4.4581,4.4581,4.4601,4.4615,4.4615,4.4615,4.4615,4.5365,4.6075,3.9937,4.0606,4.0899,4.0341,3.9247,3.7632,3.5135,3.3543,3.1922,2.95,2.8981,2.8981,2.8981,2.9207,3.0277,3.2993,3.4064,3.5826,0.0,0.0,0.0,0.0,0.0,0.0,0.0,0.0,0.0,0.0,0.0,0.0,5.2568,5.2042,5.1469,5.077,5.0061,4.9678,4.9678,4.9211,4.9018,4.9018,4.9018,4.9018,4.9018,4.9018,4.9018,0.0,0.0,0.0,0.0,4.9018,4.9018,4.9052,4.956,4.9898,5.015,5.0676,5.0998,5.1201,5.1201,5.1201,5.1167,5.093,5.0829,5.071,4.9965,4.939,4.9018,4.9018,4.9018,4.9018,4.9018,4.9018,4.9018,4.9018,4.9018,4.9018,4.9018,4.9018,4.8951,4.8714,4.8631,4.8428,4.7684,4.7549,4.7394,4.6887,4.68,4.6733,4.6481,4.6447,4.6346,4.6123,4.609,4.5684,4.4682,4.4615,4.4615,4.4615,4.4615,4.4615,4.4615,4.4615,4.4615,4.4615,4.5108,4.5365,4.5365,4.5853,4.609,4.6123,4.6346,4.6853,3.7331,3.8615,3.9313,3.8836,3.7624,3.6083,3.4211,3.2699,3.1188,2.9354,2.8981,2.8981,2.8981,2.9244,3.0204,3.2522,3.366,3.5459,0.0,0.0,0.0,0.0,0.0,0.0,0.0,0.0,0.0,0.0,0.0,0.0,5.3214,5.2758,5.2312,5.1898,5.0929,5.0404,5.0404,4.9722,4.9391,4.9357,4.9123,4.9018,4.9018,4.9018,4.9018,0.0,0.0,0.0,0.0,4.9018,4.9154,4.9458,4.9914,5.0455,5.098,5.1454,5.181,5.208,5.208,5.208,5.2013,5.1708,5.1438,5.11,5.0642,4.9796,4.9018,4.9018,4.9018,4.9018,4.9018,4.9018,4.9018,4.9018,4.9018,4.9018,4.9018,4.9018,4.9018,4.9018,4.9018,4.8849,4.8394,4.8326,4.8157,4.7699,4.7631,4.753,4.7259,4.7225,4.7124,4.6834,4.68,4.6428,4.5514,4.5413,4.5413,4.5413,4.5413,4.5413,4.5413,4.5413,4.5413,4.5413,4.5872,4.6109,4.6109,4.6583,4.6921,4.7225,4.7225,4.7631,0.0,3.7,3.8241,3.8175,3.6442,3.4527,3.3733,3.1825,0.0,2.917,2.8981,2.9023,2.9133,2.969,3.0467,3.1574,3.3617,0.0,0.0,0.0,0.0,0.0,0.0,0.0,0.0,0.0,0.0,0.0,0.0,0.0,5.3214,5.3214,5.3214,5.3214,5.191,5.1215,5.1176,5.0431,5.009,5.0075,4.9432,4.9153,4.9153,4.9153,4.9153,0.0,0.0,0.0,0.0,4.9092,4.9548,5.0255,5.0289,5.1206,5.2446,5.2448,5.2974,5.3651,5.3601,5.3618,5.3516,5.272,5.1941,5.1349,5.1285,5.027,4.9086,4.9086,4.9052,4.9018,4.9018,4.9018,4.9018,4.9018,4.9018,4.9018,4.9018,4.9018,4.9018,4.9018,4.9018,4.9018,4.9018,4.9018,4.9018,4.9018,4.9018,4.8732,4.8056,4.7988,4.7718,4.7022,4.6969,4.6969,4.6969,4.6853,4.68,4.68,4.68,4.68,4.68,4.68,4.68,4.68,4.6868,4.6902,4.6969,4.6969,4.7327,4.7988,4.7988,4.836,3.035,0.0,3.3874,3.3256,3.2675,3.2051,0.0,3.0613,2.9983,2.917,0.0,2.939,3.0613,2.9983,3.0571,3.4504,3.5605,0.0,0.0,0.0,0.0,0.0,0.0,0.0,0.0,0.0,0.0,0.0,0.0,5.3214,5.3214,5.3214,5.3214,5.3214,5.2883,5.244,5.185,5.1189,5.0836,5.0836,5.0676,5.0595,5.0595,5.0595,5.0595,0.0,0.0,0.0,5.0554,4.999,5.0555,5.1836,5.2383,5.3204,5.4072,5.4041,5.4541,5.5119,5.4544,5.4695,5.5069,5.4287,5.3566,5.2822,5.2225,5.1014,4.983,4.983,4.9424,4.9018,4.9018,4.9018,4.9018,4.9018,4.9018,4.9018,4.9018,4.9018,4.9018,4.9018,4.9018,4.9018,4.9018,4.9018,4.9018,4.9018,4.9018,4.8951,4.8766,4.8732,4.868,4.8511,4.8477,4.8477,4.8477,4.7428,4.68,4.68,4.68,4.68,4.68,4.68,4.68,4.68,4.7361,4.7921,4.8477,4.8477,4.8578,4.8732,4.8732,4.8834,2.7776,2.9947,3.2045,3.1971,3.1684,3.128,3.0834,3.0173,2.9537,0.0,0.0,2.939,3.0613,3.043,0.0,3.5085,3.634,0.0,0.0,0.0,0.0,0.0,0.0,0.0,0.0,0.0,0.0,0.0,0.0,5.3214,5.3214,5.3214,5.3214,5.3214,5.3214,5.2991,5.2599,5.1922,5.1556,5.1556,5.1241,5.1099,5.1099,5.1099,5.1099,0.0,0.0,0.0,5.1034,5.0293,5.1095,5.2834,5.3245,5.4109,5.5094,5.5086,5.5364,5.5653,5.5232,5.5364,5.5653,5.5232,5.4819,5.443,5.3994,5.3091,5.1953,5.0914,5.0338,5.0017,5.0017,5.0017,5.0017,5.0017,5.0017,5.0017,5.0017,4.9729,4.9492,4.9492,4.9221,4.912,4.9458,4.9221,4.912,4.9458,4.9221,4.9018,4.9018,4.9018,4.9018,4.9018,4.9018,4.9018,4.9018,4.8274,4.78,4.78,4.78,4.78,4.78,4.78,4.78,4.78,4.8191,4.8597,4.9018,4.9018,4.9018,4.9018,4.9018,4.9187,2.6827,2.9035,3.1311,3.1745,3.1531,3.117,3.106,0.0,0.0,0.0,0.0,0.0,0.0,0.0,0.0,0.0,0.0,0.0,0.0,0.0,0.0,0.0,0.0,0.0,0.0,0.0,0.0,0.0,0.0,5.3214,5.3214,5.3214,5.3214,5.3214,5.3214,5.3214,5.3214,5.2576,5.2289,5.2277,5.1667,5.1406,5.1406,5.1406,5.1406,5.1368,0.0,0.0,5.1355,5.0622,5.1684,5.3757,5.3757,5.467,5.6045,5.592,5.5962,5.6059,5.6059,5.6059,5.6045,5.592,5.5893,5.5865,5.5752,5.5242,5.4367,5.2432,5.1641,5.1344,5.1233,5.1201,5.1201,5.1201,5.1201,5.1201,5.1201,5.071,5.027,5.027,4.9763,4.9526,5.0168,4.9763,4.956,5.0168,4.9729,4.9357,4.9357,4.9357,4.9357,4.9357,4.9357,4.9357,4.9357,4.9357,4.9357,4.9357,4.912,4.9018,4.9018,4.9018,4.9018,4.9018,4.9018,4.9018,4.9018,4.912,4.9187,4.9187,4.9273,4.9661,2.7886,2.9506,3.0099,2.8857,2.9475,3.021,2.9506,2.917,0.0,0.0,0.0,0.0,0.0,0.0,0.0,0.0,0.0,0.0,0.0,0.0,0.0,0.0,0.0,0.0,0.0,0.0,0.0,0.0,0.0,5.3214,5.3214,5.3214,5.3214,5.3214,5.3214,5.3214,5.3214,5.3092,5.3049,5.3049,5.2926,5.2883,5.2883,5.2883,5.2883,5.285,0.0,5.2207,5.2839,5.2077,5.3146,5.5268,5.5268,5.6254,5.757,5.6964,5.7116,5.7642,5.7642,5.7642,5.7546,5.6938,5.6708,5.6603,5.5906,5.5617,5.5469,5.512,5.3663,5.2054,5.1376,5.1201,5.1201,5.1201,5.1201,5.1201,5.1201,5.11,5.1032,5.1032,5.093,5.0897,5.0998,5.093,5.0897,5.0998,5.093,5.0863,5.0863,5.0863,5.0863,5.0863,5.0863,5.0863,5.0863,5.0863,5.0863,5.0863,4.9679,4.9018,4.9018,4.9018,4.9018,4.9018,4.9018,4.9018,4.9018,4.9627,4.9932,4.9947,5.0558,5.093,2.5983,2.764,2.8815,2.8515,3.032,3.2045,3.1672,3.1262,0.0,0.0,0.0,0.0,0.0,0.0,0.0,0.0,0.0,0.0,0.0,0.0,0.0,0.0,0.0,0.0,0.0,0.0,0.0,0.0,0.0,0.0,5.3214,5.3214,5.3214,5.3214,5.3214,5.3214,5.3214,5.3214,5.3214,5.3214,5.3214,5.3214,5.3214,5.3214,5.3214,5.3146,0.0,5.2531,5.3135,5.2393,5.3463,5.5585,5.5585,5.6576,5.7962,5.7631,5.7714,5.7997,5.7997,5.7997,5.795,5.7582,5.7486,5.7425,5.7054,5.6917,5.684,5.6461,5.5312,5.4093,5.3744,5.3638,5.3638,5.3638,5.3638,5.3638,5.3638,5.3306,5.2909,5.252,5.2133,5.1841,5.1806,5.1472,5.1336,5.1708,5.1472,5.1201,5.1201,5.1201,5.1201,5.1201,5.1201,5.1201,5.1201,5.1201,5.1201,5.1201,5.0558,5.0186,5.0186,5.0186,5.0186,5.0186,5.0186,5.0186,5.0186,5.0541,5.071,5.071,5.1032,5.1404,2.5181,2.6702,2.839,2.934,3.1268,3.3146,3.3917,3.3323,3.2945,0.0,0.0,0.0,0.0,0.0,0.0,0.0,0.0,0.0,0.0,0.0,0.0,0.0,0.0,0.0,0.0,0.0,0.0,0.0,0.0,0.0,5.3214,5.3214,5.3214,5.3214,5.3214,5.3214,5.3214,5.3214,5.3214,5.3214,5.3214,5.3214,5.3214,5.3214,5.3214,5.3156,5.2599,5.2691,5.3146,5.2588,5.3636,5.5585,5.5585,5.6576,5.7997,5.7997,5.7997,5.7997,5.7997,5.7997,5.7997,5.7997,5.7997,5.7997,5.7997,5.7997,5.7867,5.7327,5.6698,5.6155,5.5808,5.5709,5.5709,5.5709,5.5709,5.5709,5.5709,5.5242,5.4677,5.4126,5.3569,5.3147,5.3094,5.264,5.239,5.2778,5.2372,5.1917,5.1775,5.1742,5.1742,5.1742,5.1742,5.1742,5.1742,5.1742,5.1742,5.1742,5.1404,5.1201,5.1201,5.1201,5.1201,5.1201,5.1201,5.1201,5.1201,5.137,5.1472,5.1472,5.1641,5.2046,2.8038,2.8973,2.9593,3.0906,3.0834,3.1231,3.4234,3.372,0.0,3.6025,0.0,0.0,0.0,0.0,0.0,0.0,0.0,0.0,0.0,0.0,0.0,0.0,0.0,0.0,0.0,0.0,0.0,0.0,0.0,0.0,5.3214,5.3214,5.3214,5.3214,5.3214,5.3214,5.3214,5.3214,5.3214,5.3214,5.3214,5.3214,5.3214,5.3214,5.3214,5.3214,5.3135,5.3135,5.3214,5.3135,5.4099,5.5585,5.5585,5.6576,5.7997,5.7997,5.7997,5.7997,5.7997,5.7997,5.7997,5.7997,5.7997,5.7997,5.7997,5.7997,5.7985,5.7939,5.7867,5.7486,5.6073,5.5709,5.5709,5.5709,5.5709,5.5709,5.5709,5.5653,5.5589,5.5532,5.5497,5.5447,5.5461,5.5411,5.5165,5.4533,5.439,5.4108,5.3415,5.3332,5.3332,5.3332,5.3332,5.3332,5.3332,5.3332,5.3332,5.3332,5.1979,5.1201,5.1201,5.1201,5.1201,5.1201,5.1201,5.1201,5.1201,5.1894,5.2232,5.2232,5.2976,5.3382,2.656,2.8089,2.9771,3.1078,3.2229,0.0,0.0,3.6263,3.7275,3.9381,4.0089,0.0,0.0,0.0,0.0,0.0,0.0,0.0,0.0,0.0,0.0,0.0,0.0,0.0,0.0,0.0,0.0,0.0,0.0,0.0,5.3214,5.3214,5.3214,5.3214,5.3214,5.3214,5.3214,5.3214,5.3214,5.3214,5.3214,5.3214,5.3214,5.3214,5.3214,5.3214,5.3214,5.3214,5.3214,5.3214,5.4142,5.5695,5.6686,5.7446,5.7997,5.7997,5.7997,5.7997,5.7997,5.7997,5.7997,5.7997,5.7997,5.7997,5.7997,5.7997,5.7997,5.7997,5.7997,5.7856,5.729,5.713,5.713,5.713,5.713,5.713,5.713,5.713,5.7004,5.655,5.6434,5.6286,5.5794,5.5709,5.561,5.532,5.5276,5.5029,5.428,5.4168,5.3993,5.3534,5.3518,5.3518,5.3518,5.3518,5.3518,5.3518,5.2926,5.2621,5.2621,5.2621,5.2621,5.2621,5.2621,5.2621,5.2621,5.2909,5.3044,5.3044,5.3382,5.3518,2.6089,2.7605,2.9583,3.0942,3.3284,0.0,3.7043,3.8387,4.0052,4.259,4.3384,0.0,0.0,0.0,0.0,0.0,0.0,0.0,0.0,0.0,0.0,0.0,0.0,0.0,0.0,0.0,0.0,0.0,0.0,0.0,0.0,5.3214,5.3214,5.3214,5.3214,5.3214,5.3214,5.3214,5.3214,5.3214,5.3214,5.3214,5.3214,5.3214,5.3214,5.3214,5.3214,5.3214,5.3214,5.3214,5.4142,5.5768,5.7384,5.7997,5.7997,5.7997,5.7997,5.7997,5.7997,5.7997,5.7997,5.7997,5.7997,5.7997,5.7997,5.7997,5.7997,5.7997,5.7997,5.7997,5.7997,5.7997,5.7997,5.7997,5.7997,5.7997,5.7997,5.7997,5.7832,5.7351,5.7265,5.7078,5.654,5.6411,5.6331,5.61,5.6286,5.6177,5.5404,5.5558,5.5552,5.5053,5.4746,5.4478,5.424,5.3991,5.3754,5.3518,5.3518,5.3518,5.3518,5.3518,5.3518,5.3518,5.3518,5.3518,5.3518,5.3518,5.3518,5.3518,5.3754,5.3856,2.7435,2.7983,2.9167,3.0688,0.0,0.0,3.9202,3.9757,4.1014,4.5425,0.0,4.6777,0.0,0.0,0.0,0.0,0.0,0.0,0.0,0.0,0.0,0.0,0.0,0.0,0.0,0.0,0.0,0.0,0.0,0.0,0.0,5.3214,5.3214,5.3214,5.3214,5.3214,5.3214,5.3214,5.3214,5.3214,5.3214,5.3214,5.3214,5.3214,5.3214,5.3214,5.3214,5.3214,5.3214,5.3214,5.4179,5.5768,5.7373,5.7997,5.7997,5.7997,5.7997,5.7997,5.7997,5.7997,5.7997,5.7997,5.7997,5.7997,5.7997,5.7997,5.7997,5.7997,5.7997,5.7997,5.7997,5.7997,5.7997,5.7997,5.7997,5.7997,5.7997,5.7997,5.7997,5.7997,5.7997,5.7997,5.7997,5.7997,5.7786,5.7051,5.7611,5.7819,5.7015,5.7688,5.8184,5.8184,5.7409,5.6595,5.5882,5.509,5.4313,5.3551,5.3518,5.3518,5.3518,5.3518,5.3518,5.3518,5.3518,5.3518,5.3518,5.3518,5.3518,5.3551,5.4262,5.4617,2.7478,2.8867,0.0,3.309,0.0,0.0,0.0,4.3102,0.0,0.0,4.7494,0.0,0.0,0.0,0.0,0.0,0.0,0.0,0.0,0.0,0.0,0.0,0.0,0.0,0.0,0.0,0.0,0.0,0.0,0.0,0.0,5.3214,5.3214,5.3214,5.3214,5.3214,5.3214,5.3214,5.3214,5.3214,5.3214,5.3214,5.3214,5.3214,5.3214,5.3214,5.3214,5.3214,5.3287,5.4436,5.55,5.6565,5.7593,5.7997,5.7997,5.7997,5.7997,5.7997,5.7997,5.7997,5.7997,5.7997,5.7997,5.7997,5.7997,5.7997,5.7997,5.7997,5.7997,5.7997,5.7997,5.7997,5.7997,5.7997,5.7997,5.7997,5.7997,5.7997,5.7997,5.7997,5.7997,5.818,5.8756,5.8829,5.8954,5.9323,5.9554,5.9439,5.8687,5.8374,5.8184,5.8184,5.7278,5.6613,5.6369,5.6135,5.5588,5.455,5.5362,5.5154,5.3585,5.3518,5.3518,5.3518,5.3518,5.3518,5.3518,5.4025,5.4262,5.4296,5.504,5.5673,2.8973,3.0449,0.0,3.5353,3.8274,4.1403,4.4806,0.0,0.0,0.0,0.0,0.0,0.0,0.0,0.0,0.0,0.0,0.0,0.0,0.0,0.0,0.0,0.0,0.0,0.0,0.0,0.0,0.0,0.0,0.0,0.0,5.3214,5.3214,5.3214,5.3214,5.3214,5.3214,5.3214,5.3214,5.3214,5.3214,5.3214,5.3214,5.3214,5.3214,5.3214,5.3214,5.3214,5.3324,5.495,5.5879,5.6418,5.7556,5.7997,5.7997,5.7997,5.7997,5.7997,5.7997,5.7997,5.7997,5.7997,5.7997,5.7997,5.7997,5.7997,5.7997,5.7997,5.7997,5.7997,5.7997,5.7997,5.7997,5.7997,5.7997,5.7997,5.7997,5.8253,5.8474,5.8474,5.8731,5.9098,5.96,5.9673,5.982,6.0334,6.0676,6.0836,6.0713,6.0291,6.0032,6.0032,5.9086,5.8609,5.9031,5.8476,5.7721,5.6846,5.719,5.6782,5.5421,5.4719,5.438,5.438,5.438,5.438,5.438,5.4837,5.5196,5.5551,5.6269,5.7066,3.116,3.2352,0.0,3.7392,3.9627,0.0,0.0,0.0,0.0,0.0,0.0,0.0,0.0,0.0,0.0,0.0,0.0,0.0,0.0,0.0,0.0,0.0,0.0,0.0,0.0,0.0,0.0,0.0,0.0,0.0,0.0,5.3099,5.3104,5.3214,5.3214,5.3214,5.3214,5.3214,5.3214,5.3214,5.3214,5.3214,5.3214,5.3214,5.3214,5.3214,5.3214,5.3251,5.3434,5.4961,5.5658,5.5879,5.7409,5.7997,5.7997,5.7997,5.7997,5.7997,5.7997,5.7997,5.7997,5.7997,5.7997,5.7997,5.7997,5.7997,5.7997,5.7997,5.7997,5.7997,5.7997,5.8033,5.8107,5.8107,5.8107,5.8107,5.8107,5.8719,5.9306,5.9306,5.9893,6.0407,6.0493,6.0529,6.0517,6.0591,6.1227,6.1961,6.2719,6.2793,6.2793,6.2793,6.1928,6.1728,6.273,6.1464,6.0442,6.0018,5.907,5.8516,5.8476,5.6835,5.5926,5.5926,5.5926,5.5926,5.5926,5.5994,5.6405,5.7139,5.789,5.867,3.0577,3.2769,0.0,0.0,4.2247,4.4975,0.0,0.0,0.0,0.0,0.0,0.0,0.0,0.0,0.0,0.0,0.0,0.0,0.0,0.0,0.0,0.0,0.0,0.0,0.0,0.0,0.0,0.0,0.0,0.0,5.2633,5.2411,5.2564,5.3177,5.3214,5.3214,5.3214,5.3214,5.3214,0.0,5.3214,5.3214,5.3214,5.3214,5.3214,5.3214,5.3214,5.3544,5.4216,5.5218,5.5978,5.6638,5.7629,5.7997,5.7997,5.7997,5.7997,5.7997,5.7997,5.7997,5.7997,5.7997,5.7997,5.7997,5.7997,5.7997,5.7997,5.7997,5.7997,5.7997,5.7997,5.8462,5.8939,5.8939,5.8939,5.8939,5.8939,5.9563,6.015,6.015,6.026,6.0603,6.1227,6.1337,6.1557,6.2205,6.2426,6.2609,6.2793,6.2793,6.2793,6.2793,6.2579,6.2541,6.278,6.249,6.2264,6.2161,6.193,6.1421,6.0583,5.8688,5.7645,5.7645,5.7645,5.7645,5.7645,5.8226,5.86,5.8819,5.9549,6.0331,3.166,0.0,0.0,4.1281,0.0,4.5821,0.0,0.0,0.0,0.0,0.0,0.0,0.0,0.0,0.0,0.0,0.0,0.0,0.0,0.0,0.0,0.0,0.0,0.0,0.0,0.0,0.0,0.0,0.0,5.177,5.2173,5.2234,5.2449,5.2846,5.3082,5.3214,5.3214,5.3214,5.3214,5.3214,5.3214,5.3214,5.3214,5.3214,5.3214,5.3214,5.3214,5.3434,5.3922,5.5108,5.5842,5.6345,5.7519,5.7997,5.7997,5.7997,5.7997,5.7997,5.7997,5.7997,5.7997,5.7997,5.7997,5.7997,5.7997,5.7997,5.7997,5.7997,5.829,5.8572,5.8572,5.9159,5.9783,5.9783,5.9783,5.9783,5.9783,6.0419,6.097,6.097,6.13,6.1692,6.2108,6.2181,6.2328,6.2756,6.2793,6.2793,6.2793,6.2793,6.2793,6.2793,6.2793,6.2793,6.2793,6.2793,6.2793,6.2793,6.2793,6.2541,6.1996,6.0969,6.0044,5.9289,5.9238,5.9238,5.9238,5.9648,6.0021,6.0403,6.0803,6.1421,3.2548,0.0,3.8465,4.3124,4.4975,0.0,4.6509,0.0,0.0,0.0,0.0,0.0,0.0,0.0,0.0,0.0,0.0,0.0,0.0,0.0,0.0,0.0,0.0,0.0,0.0,0.0,0.0,0.0,0.0,5.1639,5.179,5.2186,5.2469,5.2609,5.3158,5.343,5.343,5.343,5.343,5.343,5.3328,5.3339,5.342,5.3328,5.3277,5.3277,5.3277,5.3277,5.3424,5.4957,5.5585,5.5768,5.7384,5.7997,5.7997,5.7997,5.7997,5.7997,5.7997,5.7997,5.7997,5.7997,5.7997,5.7997,5.7997,5.7997,5.7997,5.7997,5.8572,5.9196,5.9196,5.9893,6.0603,6.0603,6.0713,6.0786,6.0639,6.1227,6.1814,6.1814,6.2352,6.2793,6.2793,6.2793,6.2793,6.2793,6.2793,6.2793,6.2793,6.2793,6.2793,6.2793,6.2793,6.2793,6.2793,6.2793,6.2793,6.2793,6.2793,6.2793,6.2793,6.2793,6.2179,6.082,6.0805,6.0805,6.0805,6.0805,6.1178,6.1797,6.1797,6.2143,3.0541,0.0,4.0704,0.0,4.4975,4.5633,0.0,0.0,0.0,0.0,0.0,0.0,0.0,0.0,0.0,0.0,0.0,0.0,0.0,0.0,0.0,0.0,0.0,0.0,0.0,0.0,0.0,0.0,5.0568,5.0641,5.1351,5.1811,5.2391,5.3083,5.3916,5.4351,5.4351,5.4351,5.4351,5.4305,5.3896,5.3914,5.4297,5.3924,5.372,5.372,5.372,5.372,5.3841,5.508,5.5585,5.5768,5.7384,5.7997,5.7997,5.7997,5.7997,5.7997,5.7997,5.7997,5.7997,5.7997,5.7997,5.7997,5.7997,5.7997,5.7997,5.7997,5.8572,5.9196,5.9196,6.0297,6.1447,6.1447,6.1961,6.2279,6.1594,6.2071,6.2646,6.2646,6.2719,6.2793,6.2793,6.2793,6.2793,6.2793,6.2793,6.2793,6.2793,6.2793,6.2793,6.2793,6.2793,6.2793,6.2793,6.2793,6.2793,6.2793,6.2793,6.2793,6.2793,6.2793,6.2705,6.249,6.249,6.249,6.249,6.249,6.2528,6.2618,6.2618,6.2705,3.2811,3.7161,4.1247,0.0,4.5321,4.5594,4.5594,0.0,0.0,0.0,0.0,0.0,0.0,0.0,0.0,0.0,0.0,0.0,0.0,0.0,0.0,0.0,0.0,0.0,0.0,0.0,0.0,0.0,5.052,5.0599,5.0933,5.1351,5.1996,5.2855,5.3445,5.4016,5.4484,5.4484,5.4484,5.4484,5.4288,5.4297,5.4484,5.4539,5.4428,5.4187,5.4187,5.4187,5.4265,5.5466,5.5949,5.6065,5.746,5.7997,5.7997,5.7997,5.7997,5.7997,5.7997,5.7997,5.7997,5.7997,5.7997,5.7997,5.7997,5.7997,5.8107,5.8535,5.9233,5.9967,6.0419,6.141,6.2291,6.2291,6.2536,6.2683,6.2365,6.2536,6.2793,6.2793,6.2793,6.2793,6.2793,6.2793,6.2793,6.2793,6.2793,6.2793,6.2793,6.2793,6.2793,6.2793,6.2793,6.2793,6.2793,6.2793,6.2793,6.2793,6.3673,6.4187,6.4187,6.4187,6.4187,6.4187,6.327,6.2793,6.2793,6.2793,6.305,6.3539,6.3539,6.3759,0.0,0.0,4.005,4.3436,4.4782,4.5321,0.0,0.0,0.0,0.0,0.0,0.0,0.0,0.0,0.0,0.0,0.0,0.0,0.0,0.0,0.0,0.0,0.0,0.0,0.0,0.0,0.0,0.0,5.0707,5.0707,5.0707,5.1185,5.1741,5.2384,5.3124,5.3827,5.4486,5.4683,5.4797,5.4797,5.4693,5.4701,5.4804,5.4988,5.4974,5.479,5.4693,5.4648,5.4723,5.5906,5.637,5.6518,5.7825,5.8282,5.8198,5.8198,5.8097,5.7997,5.7997,5.7997,5.7997,5.7997,5.7997,5.7997,5.7997,5.8143,5.8437,5.9049,5.993,6.086,6.1447,6.2218,6.2793,6.2793,6.2793,6.2793,6.2793,6.2793,6.2793,6.2793,6.2793,6.2793,6.2793,6.2793,6.2793,6.2793,6.2793,6.2793,6.2793,6.2793,6.2793,6.2793,6.2793,6.3123,6.3967,6.4053,6.4053,6.4053,6.5228,6.5925,6.5925,6.5508,6.5288,6.5288,6.4077,6.3453,6.3453,6.3453,6.3759,6.4383,6.4383,6.4714,0.0,3.3811,0.0,3.9935,4.2589,0.0,0.0,0.0,0.0,0.0,0.0,0.0,0.0,0.0,0.0,0.0,0.0,0.0,0.0,0.0,0.0,0.0,0.0,0.0,0.0,0.0,0.0,0.0,5.0707,5.0707,5.0707,5.1457,5.1903,5.1941,5.3551,5.4468,5.4507,5.5275,5.5621,5.5621,5.5244,5.5256,5.5616,5.5256,5.5319,5.561,5.5231,5.508,5.5168,5.6387,5.6849,5.7037,5.8687,5.9075,5.8673,5.8673,5.8375,5.7997,5.7997,5.7997,5.7997,5.7997,5.7997,5.7997,5.7997,5.8547,5.9159,5.9184,6.0334,6.1569,6.1594,6.2218,6.2793,6.2793,6.2793,6.2793,6.2793,6.2793,6.2793,6.2793,6.2793,6.2793,6.2793,6.2793,6.2793,6.2793,6.2793,6.2793,6.2793,6.2793,6.2793,6.2793,6.2793,6.404,6.7187,6.7444,6.7444,6.7444,6.7517,6.759,6.759,6.6109,6.5288,6.5288,6.5215,6.5178,6.5178,6.5178,6.5178,6.5251,6.5251,6.5251,0.0,0.0,0.0,3.8203,4.0816,4.2931,0.0,0.0,0.0,0.0,0.0,0.0,0.0,0.0,0.0,0.0,0.0,0.0,0.0,0.0,0.0,0.0,0.0,0.0,0.0,0.0,0.0,0.0,0.0,5.0707,5.0707,5.0976,5.1356,5.1885,5.3044,5.4164,5.5247,5.5555,5.5708,5.5703,5.556,5.5566,5.5703,5.556,5.5566,5.5703,5.5554,5.5508,5.5594,5.6837,5.7354,5.7484,5.8858,5.9293,5.9139,5.9139,5.9019,5.8855,5.8549,5.8461,5.8397,5.8085,5.7997,5.8107,5.8609,5.8976,5.9416,6.0456,6.1153,6.1704,6.2254,6.2572,6.2793,6.2793,6.2793,6.2793,6.2793,6.2793,6.2793,6.2793,6.2793,6.2793,6.2793,6.2793,6.2793,6.2793,6.2793,6.2793,6.2793,6.464,6.5925,6.5925,6.5925,6.6402,6.759,6.77,6.77,6.77,6.77,6.77,6.77,6.7136,6.6843,6.6843,6.6843,6.6329,6.5288,6.5288,6.5582,6.6072,6.6072,6.6366,2.881,0.0,0.0,0.0,0.0,0.0,0.0,0.0,0.0,0.0,0.0,0.0,0.0,0.0,0.0,0.0,0.0,0.0,0.0,0.0,0.0,0.0,0.0,0.0,0.0,0.0,0.0,0.0,0.0,0.0,5.0707,5.0707,5.1087,5.1885,5.2736,5.3895,5.5285,5.5555,5.5708,5.5708,5.5708,5.5708,5.5708,5.5708,5.5708,5.5708,5.5708,5.5708,5.5808,5.7232,5.7825,5.7958,5.9322,5.9784,5.9617,5.9617,5.9526,5.9346,5.9019,5.8825,5.8652,5.8358,5.8423,5.8722,5.9083,5.9716,6.0481,6.1373,6.1777,6.2144,6.2646,6.2793,6.2793,6.2793,6.2793,6.2793,6.2793,6.2793,6.2793,6.2793,6.2793,6.2793,6.2793,6.2793,6.316,6.4273,6.349,6.3196,6.431,6.6329,6.77,6.77,6.77,6.77,6.77,6.77,6.77,6.77,6.77,6.77,6.77,6.77,6.77,6.77,6.77,6.7187,6.6109,6.6109,6.6366,6.688,6.688,6.7187,0.0,0.0,0.0,0.0,0.0,0.0,0.0,0.0,0.0,0.0,0.0,0.0,0.0,0.0,0.0,0.0,0.0,0.0,0.0,0.0,0.0,0.0,0.0,0.0,0.0,0.0,0.0,0.0,5.0707,5.0707,5.0707,5.0707,5.1087,5.1885,5.2736,5.3587,5.4472,5.5285,5.567,5.5708,5.5708,5.5708,5.5708,5.5708,5.5708,5.5708,5.5708,5.5708,5.5824,5.7588,5.8313,5.8467,6.0165,6.0514,6.0125,6.0125,5.9839,5.9432,5.9415,5.9112,5.8726,5.8743,5.9323,5.9922,5.9451,6.0759,6.2326,6.1811,6.2206,6.2818,6.2793,6.2793,6.2793,6.2793,6.2793,6.2793,6.2793,6.2793,6.2793,6.2829,6.2829,6.2829,6.2866,6.2903,6.404,6.7223,6.5007,6.409,6.7297,6.77,6.77,6.77,6.77,6.77,6.77,6.77,6.77,6.77,6.77,6.77,6.77,6.77,6.77,6.77,6.77,6.77,6.77,6.77,6.77,6.77,6.77,6.77,2.6774,0.0,0.0,0.0,0.0,0.0,0.0,0.0,0.0,0.0,0.0,0.0,0.0,0.0,0.0,0.0,0.0,0.0,0.0,0.0,0.0,0.0,0.0,0.0,0.0,0.0,0.0,0.0,5.0707,5.0707,5.0707,5.0707,5.1087,5.1885,5.2115,5.2967,5.4472,5.4703,5.5126,5.5708,5.5708,5.5708,5.5708,5.5708,5.5708,5.5708,5.5708,5.5708,5.5824,5.7588,5.8313,5.8467,6.0165,6.0734,6.0616,6.0616,6.0514,6.0358,6.0006,5.9831,5.9755,6.0044,6.0321,6.0717,6.172,6.2454,6.2942,6.3033,6.3226,6.3308,6.2917,6.2793,6.2793,6.2793,6.2793,6.2793,6.2793,6.2793,6.2976,6.3613,6.3246,6.3196,6.4407,6.5558,6.6659,6.7554,6.693,6.6673,6.759,6.77,6.77,6.77,6.77,6.77,6.77,6.77,6.77,6.77,6.77,6.77,6.77,6.77,6.77,6.77,6.77,6.77,6.77,6.77,6.77,6.77,6.77,6.77,0.0,0.0,0.0,0.0,0.0,0.0,0.0,3.7815,0.0,0.0,0.0,0.0,0.0,0.0,0.0,0.0,0.0,0.0,0.0,0.0,0.0,0.0,0.0,0.0,0.0,5.0707,5.0707,5.0707,5.0707,5.0707,5.0707,5.0707,5.0899,5.1395,5.1736,5.239,5.3395,5.4126,5.4741,5.5208,5.5555,5.5708,5.5708,5.5708,5.5708,5.5708,5.5708,5.5708,5.5824,5.7588,5.8313,5.8467,6.0165,6.0787,6.0787,6.0787,6.0787,6.0757,6.0489,6.0512,6.0691,6.0917,6.1451,6.2176,6.2876,6.3477,6.3902,6.3669,6.3442,6.3191,6.2892,6.2793,6.2903,6.3282,6.305,6.2939,6.3417,6.3673,6.4004,6.4494,6.3637,6.3123,6.4077,6.6182,6.77,6.77,6.77,6.7187,6.5815,6.6856,6.77,6.77,6.77,6.77,6.77,6.77,6.77,6.77,6.77,6.77,6.77,6.77,6.77,6.77,6.77,6.77,6.77,6.77,6.77,6.77,6.77,6.77,2.9816,3.0663,0.0,0.0,0.0,0.0,3.828,3.8511,3.8815,0.0,0.0,0.0,0.0,0.0,0.0,0.0,0.0,0.0,0.0,0.0,0.0,0.0,0.0,0.0,5.0553,5.063,5.0707,5.0707,5.0707,5.0707,5.0707,5.0707,5.0707,5.0707,5.1395,5.1813,5.1885,5.3549,5.4395,5.4511,5.5324,5.5708,5.5708,5.5708,5.5708,5.5708,5.5708,5.5747,5.5978,5.7627,5.8313,5.8467,6.0165,6.0787,6.0787,6.0787,6.0787,6.0787,6.0787,6.1096,6.1488,6.1564,6.2671,6.3909,6.352,6.4233,6.5003,6.4039,6.334,6.2904,6.2904,6.2842,6.3013,6.3759,6.3503,6.3306,6.4114,6.4958,6.5582,6.5582,6.4371,6.3343,6.3343,6.5778,6.77,6.77,6.77,6.6636,6.371,6.5888,6.77,6.77,6.77,6.77,6.77,6.77,6.77,6.77,6.77,6.77,6.77,6.77,6.77,6.77,6.77,6.77,6.77,6.77,6.77,6.77,6.777,6.781,3.1468,3.2432,3.3317,0.0,0.0,0.0,0.0,3.4234,3.6427,0.0,0.0,0.0,0.0,0.0,0.0,0.0,0.0,0.0,0.0,0.0,0.0,0.0,0.0,0.0,4.9668,5.0284,5.0707,5.0707,5.0707,5.0707,5.0707,5.0707,5.0707,5.0707,5.0861,5.1241,5.1885,5.2928,5.3818,5.4511,5.5324,5.5708,5.5708,5.5708,5.5708,5.5708,5.5708,5.6093,5.6824,5.7857,5.8313,5.8467,6.0165,6.0787,6.0787,6.0787,6.0787,6.0787,6.0787,6.1322,6.208,6.2727,6.3649,6.4558,6.5182,6.5554,6.5597,6.4995,6.4168,6.3442,6.3442,6.3109,6.2829,6.3013,6.393,6.4481,6.338,6.5301,6.7223,6.7223,6.6966,6.6746,6.6746,6.7297,6.77,6.77,6.77,6.748,6.6819,6.7297,6.77,6.77,6.77,6.77,6.77,6.77,6.77,6.77,6.77,6.77,6.77,6.77,6.77,6.77,6.77,6.77,6.77,6.77,6.77,6.7714,6.8296,6.8487,3.3391,3.3891,3.4661,3.3769,0.0,0.0,0.0,0.0,3.5545,3.8084,0.0,0.0,0.0,0.0,0.0,0.0,0.0,0.0,0.0,0.0,0.0,0.0,0.0,0.0,4.874,4.9548,5.0245,5.0668,5.0707,5.0707,5.0707,5.0707,5.0707,5.0707,5.0707,5.0899,5.1318,5.2544,5.3433,5.3857,5.5126,5.5708,5.5708,5.5708,5.5708,5.5708,5.5708,5.6209,5.7055,5.7934,5.8544,5.905,6.0281,6.0787,6.0787,6.0787,6.0787,6.0864,6.1287,6.2018,6.2858,6.366,6.4551,6.532,6.5782,6.5703,6.5439,6.5161,6.4581,6.3954,6.3659,6.3694,6.3785,6.3676,6.4481,6.5288,6.5264,6.6549,6.77,6.77,6.77,6.77,6.77,6.77,6.77,6.77,6.77,6.77,6.77,6.77,6.77,6.77,6.77,6.77,6.77,6.77,6.77,6.77,6.77,6.77,6.77,6.7956,6.8148,6.826,6.826,6.8084,6.77,6.8235,6.8404,6.8247,6.8795,6.9015,0.0,0.0,0.0,0.0,0.0,3.5895,0.0,0.0,0.0,3.8669,0.0,0.0,0.0,0.0,0.0,0.0,0.0,0.0,0.0,0.0,0.0,0.0,0.0,0.0,0.0,4.8509,4.9356,5.0361,5.0284,5.0361,5.0668,5.0707,5.0707,5.0707,5.0707,5.0707,5.0707,5.2356,5.3197,5.3236,5.4895,5.5708,5.5708,5.5708,5.5708,5.5708,5.5708,5.6285,5.7286,5.8011,5.8858,5.9819,6.0512,6.0787,6.0787,6.0787,6.0787,6.0941,6.1787,6.2627,6.3429,6.4314,6.5205,6.5904,6.5904,6.5583,6.5261,6.5261,6.4921,6.4464,6.4224,6.454,6.4957,6.4967,6.5246,6.5888,6.737,6.77,6.77,6.77,6.77,6.77,6.77,6.77,6.77,6.77,6.77,6.77,6.77,6.77,6.77,6.77,6.77,6.77,6.77,6.77,6.77,6.77,6.77,6.7754,6.7863,6.8308,6.8614,6.881,6.8662,6.8405,6.802,6.9085,6.9472,6.92,6.9482,6.9559,0.0,0.0,0.0,0.0,3.885,0.0,0.0,0.0,3.7046,3.5279,0.0,0.0,0.0,0.0,0.0,0.0,0.0,0.0,0.0,0.0,0.0,0.0,0.0,0.0,0.0,4.712,4.7851,4.9433,4.8817,4.9086,5.063,5.0707,5.0707,5.0707,5.0707,5.0707,5.0707,5.2356,5.3197,5.3236,5.4895,5.5708,5.5708,5.5708,5.5708,5.5708,5.5708,5.6626,5.8165,5.8275,5.9242,6.0666,6.0748,6.0787,6.0787,6.0787,6.0787,6.0941,6.1787,6.2627,6.3429,6.4314,6.5205,6.5904,6.5904,6.5872,6.5801,6.5801,6.5425,6.5172,6.5884,6.58,6.5713,6.6592,6.642,6.6305,6.7444,6.77,6.77,6.77,6.77,6.77,6.77,6.77,6.77,6.77,6.77,6.77,6.77,6.77,6.77,6.77,6.77,6.77,6.77,6.77,6.77,6.77,6.77,6.7904,6.838,6.8651,6.8788,6.8822,6.816,6.8247,6.9127,7.0217,7.0719,7.0652,7.0681,7.0471,0.0,0.0,0.0,0.0,0.0,0.0,0.0,0.0,3.578,0.0,0.0,0.0,0.0,0.0,0.0,0.0,0.0,0.0,0.0,0.0,0.0,0.0,0.0,0.0,0.0,0.0,0.0,0.0,4.7851,4.8163,4.9861,4.9938,5.0168,5.0668,5.0707,5.0707,5.0707,5.2356,5.3197,5.3236,5.4895,5.5708,5.5708,5.5708,5.5708,5.5747,5.6247,5.717,5.8352,5.8819,5.9704,6.0787,6.0787,6.0787,6.0787,6.0787,6.1133,6.1672,6.2512,6.3358,6.4199,6.5051,6.559,6.5904,6.5904,6.5904,6.5904,6.5904,6.6069,6.6279,6.6391,6.695,6.751,6.7704,6.7984,6.8328,6.8559,6.8625,6.8792,6.9452,6.9569,6.9179,6.7904,6.77,6.77,6.77,6.77,6.77,6.77,6.77,6.77,6.77,6.77,6.77,6.77,6.77,6.77,6.77,6.8296,6.8803,6.9234,6.9325,6.9588,7.0009,6.9711,6.9775,7.0241,7.0666,7.0898,7.0898,7.0898,7.0777,4.2243,0.0,0.0,0.0,0.0,0.0,0.0,0.0,0.0,0.0,0.0,0.0,0.0,0.0,0.0,0.0,0.0,0.0,0.0,0.0,0.0,0.0,0.0,0.0,0.0,0.0,0.0,0.0,0.0,4.7124,4.9279,4.9394,4.9784,5.0668,5.0707,5.0707,5.0707,5.2356,5.3197,5.3236,5.4895,5.5708,5.5708,5.5708,5.5708,5.5747,5.6632,5.7478,5.8352,5.9165,6.0012,6.0787,6.0787,6.0787,6.0787,6.0787,6.1364,6.221,6.3006,6.4045,6.5051,6.5705,6.5904,6.5904,6.5904,6.5904,6.5942,6.6173,6.6635,6.7114,6.7262,6.8173,6.9029,6.8949,6.9425,6.9829,6.9579,6.9492,6.9673,7.0463,7.0769,7.0424,6.8836,6.8097,6.77,6.77,6.77,6.77,6.77,6.77,6.77,6.77,6.77,6.77,6.77,6.77,6.7823,6.8123,6.8847,6.9559,7.0065,7.009,7.0362,7.0891,7.0898,7.0898,7.0898,7.0898,7.0898,7.0898,7.0898,7.0898,0.0,0.0,0.0,4.1324,0.0,0.0,0.0,0.0,3.7892,0.0,0.0,0.0,0.0,0.0,0.0,0.0,0.0,0.0,0.0,0.0,0.0,0.0,0.0,0.0,0.0,0.0,0.0,0.0,4.4859,0.0,4.9202,4.9394,4.9784,5.0668,5.0707,5.0707,5.0707,5.2356,5.3197,5.3236,5.4895,5.5708,5.5708,5.5708,5.5708,5.5747,5.6632,5.7478,5.8352,5.9165,6.0012,6.0787,6.0787,6.0787,6.0787,6.0787,6.1364,6.221,6.3006,6.4436,6.5865,6.5897,6.5904,6.5904,6.5904,6.5904,6.6051,6.6827,6.7096,6.7475,6.9154,6.9647,6.9878,7.0647,7.044,7.0095,7.0086,6.9927,6.9791,6.9818,7.0401,7.0885,7.0798,6.9085,6.77,6.77,6.77,6.77,6.77,6.77,6.77,6.77,6.77,6.77,6.77,6.77,6.816,6.919,6.9282,6.9766,7.0805,7.0878,7.0885,7.0898,7.0898,7.0898,7.0898,7.0898,7.0898,7.0898,7.0898,7.0898,0.0,0.0,4.5778,4.2931,0.0,0.0,0.0,0.0,0.0,0.0,0.0,0.0,0.0,0.0,0.0,0.0,0.0,0.0,0.0,0.0,0.0,0.0,0.0,0.0,0.0,0.0,0.0,0.0,4.3662,0.0,4.7582,4.824,4.8933,4.9822,5.0399,5.0707,5.0707,5.2356,5.3197,5.3236,5.4895,5.5708,5.5708,5.5708,5.5708,5.5785,5.7242,5.805,5.839,5.9781,6.0512,6.0787,6.0787,6.0787,6.0787,6.0787,6.1704,6.3089,6.4512,6.5397,6.5904,6.5904,6.5904,6.5904,6.5904,6.5904,6.6058,6.6865,6.7513,6.8237,6.9398,7.009,7.0552,7.0821,7.0762,7.063,7.063,7.06,7.0524,7.0524,7.0748,7.0898,7.0898,7.0298,6.9353,6.7904,6.77,6.821,6.9645,6.9811,6.9255,6.7863,6.77,6.77,6.77,6.901,6.9992,7.033,7.0346,7.0509,7.0885,7.0898,7.0898,7.0898,7.0898,7.0898,7.0898,7.0898,7.0898,7.0898,7.0898,7.0898,4.6052,4.6663,0.0,4.4547,4.3585,0.0,3.9931,0.0,0.0,0.0,0.0,0.0,0.0,0.0,0.0,0.0,0.0,0.0,0.0,0.0,0.0,0.0,0.0,0.0,0.0,0.0,4.0966,4.3355,4.2701,0.0,0.0,0.0,4.8509,4.9356,5.0245,5.0822,5.1125,5.251,5.3351,5.3664,5.5049,5.5708,5.5708,5.5708,5.5862,5.6247,5.7665,5.8467,5.8813,6.0242,6.0787,6.0787,6.0787,6.0787,6.0825,6.1133,6.232,6.3968,6.5397,6.5904,6.5904,6.5904,6.5904,6.5904,6.5904,6.6096,6.6519,6.7321,6.8205,6.9045,6.9898,7.0514,7.0898,7.0898,7.0898,7.0898,7.0898,7.0898,7.0898,7.0898,7.0898,7.0898,7.0898,7.0898,7.044,6.9053,6.8825,6.9353,7.0734,7.0898,7.0354,6.8989,6.8825,6.8825,6.8825,7.0103,7.0898,7.0898,7.0898,7.0898,7.0898,7.0898,7.0898,7.0898,7.0898,7.0898,7.0898,7.0898,7.0898,7.0898,7.0898,7.0898]}]]